[[{"header":{"parameterUnit":"m.s-1","parameterCategory":1,"la1":30.6,"la2":29.2853,"lo1":-89.7004,"lo2":-87.6739,"dy":0.0162,"dx":0.0183,"nx":112,"ny":82,"refTime":"2026-03-24T12:00:00:Z","depth":0,"parameterNumber":2,"parameterNumberName":"U-component_of_WINDS"},"data":[0.0,0.0,0.0,0.0,0.0,0.0,0.0,0.0,0.0,0.0,0.0,0.0,0.0,0.0,0.0,0.0,0.0,0.0,0.0,0.0,0.0,0.0,0.0,0.0,0.0,0.0,0.0,0.0,0.0,0.0,0.0,0.0,0.0,0.0,0.0,0.0,0.0,0.0,0.0,0.0,0.0,0.0,0.0,0.0,0.0,0.0,0.0,0.0,0.0,0.0,0.0,0.0,0.0,0.0,0.0,0.0,0.0,0.0,0.0,0.0,0.0,0.0,0.0,0.0,0.0,0.0,0.0,0.0,0.0,0.0,0.0,0.0,0.0,0.0,0.0,0.0,0.0,0.0,0.0,0.0,0.0,0.0,0.0,0.0,0.0,0.0,0.0,0.0,0.0,0.0,0.0,-0.7737,-0.8161,-0.8389,-0.8356,-0.8046,-0.7351,-0.6204,0.0,0.0,0.0,0.0,0.0,0.0,0.0,0.0,0.0,0.0,0.0,0.0,0.0,0.0,0.0,0.0,0.0,0.0,0.0,0.0,0.0,0.0,0.0,0.0,0.0,0.0,0.0,0.0,0.0,0.0,0.0,0.0,0.0,0.0,0.0,0.0,0.0,0.0,0.0,0.0,0.0,0.0,0.0,0.0,0.0,0.0,0.0,0.0,0.0,0.0,0.0,0.0,0.0,0.0,0.0,0.0,0.0,0.0,0.0,0.0,0.0,0.0,0.0,0.0,0.0,0.0,0.0,0.0,0.0,0.0,0.0,0.0,0.0,0.0,0.0,0.0,0.0,0.0,0.0,0.0,0.0,0.0,0.0,0.0,0.0,0.0,0.0,0.0,0.0,0.0,0.0,0.0,0.0,0.0,0.0,0.0,0.0,0.0,0.0,0.0,0.0,0.0,0.0,0.0,-0.7061,-0.8256,-0.839,-0.8331,-0.8164,-0.7833,-0.7365,-0.6717,0.0,0.0,0.0,0.0,0.0,0.0,0.0,0.0,0.0,0.0,0.0,0.0,0.0,0.0,0.0,0.0,0.0,0.0,0.0,0.0,0.0,0.0,0.0,0.0,0.0,0.0,0.0,0.0,0.0,0.0,0.0,0.0,0.0,0.0,0.0,0.0,0.0,0.0,0.0,0.0,0.0,0.0,0.0,0.0,0.0,0.0,0.0,0.0,0.0,0.0,0.0,0.0,0.0,0.0,0.0,0.0,0.0,0.0,0.0,0.0,0.0,0.0,0.0,0.0,0.0,0.0,0.0,0.0,0.0,0.0,0.0,0.0,0.0,0.0,0.0,0.0,0.0,0.0,0.0,0.0,0.0,0.0,0.0,0.0,0.0,0.0,0.0,0.0,0.0,0.0,0.0,0.0,0.0,0.0,0.0,0.0,0.0,0.0,0.0,0.0,0.0,0.0,0.0,-0.7105,-0.741,-0.8395,-0.8344,-0.8169,-0.8011,-0.7783,-0.7242,-0.6257,-0.5782,0.0,0.0,0.0,0.0,0.0,0.0,0.0,0.0,0.0,0.0,0.0,0.0,0.0,0.0,0.0,0.0,0.0,0.0,0.0,0.0,0.0,0.0,0.0,0.0,0.0,0.0,0.0,0.0,0.0,0.0,0.0,0.0,0.0,0.0,0.0,0.0,0.0,0.0,0.0,0.0,0.0,0.0,0.0,0.0,0.0,0.0,0.0,0.0,0.0,0.0,0.0,0.0,0.0,0.0,0.0,0.0,0.0,0.0,0.0,0.0,0.0,0.0,0.0,0.0,0.0,0.0,0.0,0.0,0.0,0.0,0.0,0.0,0.0,0.0,0.0,0.0,0.0,0.0,0.0,0.0,0.0,0.0,0.0,0.0,0.0,0.0,0.0,0.0,0.0,0.0,0.0,0.0,0.0,0.0,0.0,0.0,0.0,0.0,0.0,0.0,0.0,0.0,-0.7491,-0.7824,-0.8374,-0.8238,-0.8082,-0.7954,-0.7768,-0.7156,-0.5958,-0.5482,0.0,0.0,0.0,0.0,0.0,0.0,0.0,0.0,0.0,0.0,0.0,0.0,0.0,0.0,0.0,0.0,0.0,0.0,0.0,0.0,0.0,0.0,0.0,0.0,0.0,0.0,0.0,0.0,0.0,0.0,0.0,0.0,0.0,0.0,0.0,0.0,0.0,0.0,0.0,0.0,0.0,0.0,0.0,0.0,0.0,0.0,0.0,0.0,0.0,0.0,0.0,0.0,0.0,0.0,0.0,0.0,0.0,0.0,0.0,0.0,0.0,0.0,0.0,0.0,0.0,0.0,0.0,0.0,0.0,0.0,0.0,0.0,0.0,0.0,0.0,0.0,0.0,0.0,0.0,0.0,0.0,0.0,0.0,0.0,0.0,0.0,0.0,0.0,0.0,0.0,0.0,0.0,0.0,0.0,0.0,0.0,0.0,0.0,0.0,0.0,0.0,0.0,-0.7501,-0.824,-0.8218,-0.8202,-0.8161,-0.8087,-0.7739,-0.7206,-0.6482,-0.5606,0.0,0.0,0.0,0.0,0.0,0.0,0.0,0.0,0.0,0.0,0.0,0.0,0.0,0.0,0.0,0.0,0.0,0.0,0.0,0.0,0.0,0.0,0.0,0.0,0.0,0.0,0.0,0.0,0.0,0.0,0.0,0.0,0.0,0.0,0.0,0.0,0.0,0.0,0.0,0.0,0.0,0.0,0.0,0.0,0.0,0.0,0.0,0.0,0.0,0.0,0.0,0.0,0.0,0.0,0.0,0.0,0.0,0.0,0.0,0.0,0.0,0.0,0.0,0.0,0.0,0.0,0.0,0.0,0.0,0.0,0.0,0.0,0.0,0.0,0.0,0.0,0.0,0.0,0.0,0.0,0.0,0.0,0.0,0.0,0.0,0.0,0.0,0.0,0.0,0.0,0.0,0.0,0.0,0.0,0.0,0.0,0.0,0.0,0.0,0.0,0.0,0.0,-0.7079,-0.7724,0.0,-0.8166,-0.8083,-0.7927,-0.7687,-0.7085,-0.5954,0.0,0.0,0.0,0.0,0.0,0.0,0.0,0.0,0.0,0.0,0.0,0.0,0.0,0.0,0.0,0.0,0.0,0.0,0.0,0.0,0.0,0.0,0.0,0.0,0.0,0.0,0.0,0.0,0.0,0.0,0.0,0.0,0.0,0.0,0.0,0.0,0.0,0.0,0.0,0.0,0.0,0.0,0.0,0.0,0.0,0.0,0.0,0.0,0.0,0.0,0.0,0.0,0.0,0.0,0.0,0.0,0.0,0.0,0.0,0.0,0.0,0.0,0.0,0.0,0.0,0.0,0.0,0.0,0.0,0.0,0.0,0.0,0.0,0.0,0.0,0.0,0.0,0.0,0.0,0.0,0.0,0.0,0.0,0.0,0.0,0.0,0.0,0.0,0.0,0.0,0.0,0.0,0.0,0.0,0.0,0.0,0.0,0.0,0.0,0.0,0.0,0.0,-0.6361,-0.7015,-0.7624,0.0,-0.7962,-0.7732,-0.759,-0.7196,-0.6536,-0.5536,0.0,0.0,0.0,0.0,0.0,0.0,0.0,0.0,0.0,0.0,0.0,0.0,0.0,0.0,0.0,0.0,0.0,0.0,0.0,0.0,0.0,0.0,0.0,0.0,0.0,0.0,0.0,0.0,0.0,0.0,0.0,0.0,0.0,0.0,0.0,0.0,0.0,0.0,0.0,0.0,0.0,0.0,0.0,0.0,0.0,0.0,0.0,0.0,0.0,0.0,0.0,0.0,0.0,0.0,0.0,0.0,0.0,0.0,0.0,0.0,0.0,0.0,0.0,0.0,0.0,0.0,0.0,0.0,0.0,0.0,0.0,0.0,0.0,0.0,0.0,0.0,0.0,0.0,0.0,0.0,0.0,0.0,0.0,0.0,0.0,0.0,0.0,0.0,0.0,0.0,0.0,0.0,0.0,0.0,0.0,0.0,0.0,0.0,0.0,0.0,0.0,0.0,-0.6474,-0.7432,-0.8133,-0.828,-0.7571,-0.7104,-0.7082,-0.6176,-0.5545,0.0,0.0,0.0,0.0,0.0,0.0,0.0,0.0,0.0,0.0,0.0,0.0,0.0,0.0,0.0,0.0,0.0,0.0,0.0,0.0,0.0,0.0,0.0,0.0,0.0,0.0,0.0,0.0,0.0,0.0,0.0,0.0,0.0,0.0,0.0,0.0,0.0,0.0,0.0,0.0,0.0,0.0,0.0,0.0,0.0,0.0,0.0,0.0,0.0,0.0,0.0,0.0,0.0,0.0,0.0,0.0,0.0,0.0,0.0,0.0,0.0,0.0,0.0,0.0,0.0,0.0,0.0,0.0,0.0,0.0,0.0,0.0,0.0,0.0,0.0,0.0,0.0,0.0,0.0,0.0,0.0,0.0,0.0,0.0,0.0,0.0,0.0,0.0,0.0,0.0,0.0,0.0,0.0,0.0,0.0,0.0,0.0,0.0,0.0,0.0,0.0,0.0,0.0,-0.6289,-0.701,-0.7469,-0.7459,-0.7236,-0.6877,-0.6296,-0.5937,-0.5483,-0.487,0.0,0.0,0.0,0.0,0.0,0.0,0.0,0.0,0.0,0.0,0.0,0.0,0.0,0.0,0.0,0.0,0.0,0.0,0.0,0.0,0.0,0.0,0.0,0.0,0.0,0.0,0.0,0.0,0.0,0.0,0.0,0.0,0.0,0.0,0.0,0.0,0.0,0.0,0.0,0.0,0.0,0.0,0.0,0.0,0.0,0.0,0.0,0.0,0.0,0.0,0.0,0.0,0.0,0.0,0.0,0.0,0.0,0.0,0.0,0.0,0.0,0.0,0.0,0.0,0.0,0.0,0.0,0.0,0.0,0.0,0.0,0.0,0.0,0.0,0.0,0.0,0.0,0.0,0.0,0.0,0.0,0.0,0.0,0.0,0.0,0.0,0.0,0.0,0.0,0.0,0.0,0.0,0.0,0.0,0.0,0.0,0.0,0.0,0.0,0.0,0.0,0.0,-0.6691,-0.7011,-0.7272,-0.7556,-0.705,-0.6611,-0.6394,-0.5565,-0.4939,-0.4695,0.0,0.0,0.0,0.0,0.0,0.0,0.0,0.0,0.0,0.0,0.0,0.0,0.0,0.0,0.0,0.0,0.0,0.0,0.0,0.0,0.0,0.0,0.0,0.0,0.0,0.0,0.0,0.0,0.0,0.0,0.0,0.0,0.0,0.0,0.0,0.0,0.0,0.0,0.0,0.0,0.0,0.0,0.0,0.0,0.0,0.0,0.0,0.0,0.0,0.0,0.0,0.0,0.0,0.0,0.0,0.0,0.0,0.0,0.0,0.0,0.0,0.0,0.0,0.0,0.0,0.0,0.0,0.0,0.0,0.0,0.0,0.0,0.0,0.0,0.0,0.0,0.0,0.0,0.0,0.0,0.0,0.0,0.0,0.0,0.0,0.0,0.0,0.0,0.0,0.0,0.0,0.0,0.0,0.0,0.0,0.0,0.0,0.0,0.0,0.0,0.0,0.0,-0.7386,-0.7314,-0.7391,-0.8109,-0.6986,-0.6382,-0.6866,-0.5124,-0.421,-0.4682,0.0,0.0,0.0,0.0,0.0,0.0,0.0,0.0,0.0,0.0,0.0,0.0,0.0,0.0,0.0,0.0,0.0,0.0,0.0,0.0,0.0,0.0,0.0,0.0,0.0,0.0,0.0,0.0,0.0,0.0,0.0,0.0,0.0,0.0,0.0,0.0,0.0,0.0,0.0,0.0,0.0,0.0,0.0,0.0,0.0,0.0,0.0,0.0,0.0,0.0,0.0,0.0,0.0,0.0,0.0,0.0,0.0,0.0,0.0,0.0,-0.8449,0.0,0.0,0.0,0.0,0.0,0.0,0.0,0.0,0.0,0.0,0.0,0.0,0.0,0.0,0.0,0.0,0.0,0.0,0.0,0.0,0.0,0.0,0.0,0.0,0.0,0.0,0.0,0.0,0.0,0.0,0.0,0.0,0.0,0.0,0.0,0.0,0.0,0.0,0.0,0.0,0.0,-0.7265,-0.7286,-0.7226,-0.7348,-0.7069,-0.6521,-0.5602,-0.5055,-0.4575,-0.4125,0.0,0.0,0.0,0.0,0.0,0.0,0.0,0.0,0.0,0.0,0.0,0.0,0.0,0.0,0.0,0.0,0.0,0.0,0.0,0.0,0.0,0.0,0.0,0.0,0.0,0.0,0.0,0.0,0.0,0.0,0.0,0.0,0.0,0.0,0.0,0.0,0.0,0.0,0.0,0.0,0.0,0.0,0.0,0.0,0.0,0.0,0.0,0.0,0.0,0.0,0.0,0.0,0.0,0.0,0.0,0.0,0.0,0.0,0.0,0.0,0.0,-0.917,0.0,0.0,0.0,0.0,0.0,0.0,0.0,0.0,0.0,0.0,0.0,0.0,0.0,0.0,0.0,0.0,0.0,0.0,0.0,0.0,0.0,0.0,0.0,0.0,0.0,0.0,0.0,0.0,0.0,0.0,0.0,0.0,0.0,0.0,0.0,0.0,0.0,0.0,0.0,0.0,-0.7668,-0.7432,-0.7258,-0.7545,-0.7283,-0.6944,-0.6577,-0.5589,-0.4963,-0.4871,-0.4126,0.0,0.0,0.0,0.0,0.0,0.0,0.0,0.0,0.0,0.0,0.0,0.0,0.0,0.0,0.0,0.0,0.0,0.0,0.0,0.0,0.0,0.0,0.0,0.0,0.0,0.0,0.0,0.0,0.0,0.0,0.0,0.0,0.0,0.0,0.0,0.0,0.0,0.0,0.0,0.0,0.0,0.0,0.0,0.0,0.0,0.0,0.0,0.0,0.0,0.0,0.0,0.0,0.0,0.0,0.0,-1.0914,-1.0918,-1.1118,-1.1445,-1.0836,-1.0761,-1.1002,0.0,0.0,0.0,0.0,0.0,0.0,0.0,0.0,0.0,0.0,0.0,0.0,0.0,0.0,0.0,0.0,0.0,0.0,0.0,0.0,0.0,0.0,0.0,0.0,0.0,-0.8599,-0.8407,0.0,0.0,0.0,0.0,0.0,0.0,0.0,0.0,0.0,0.0,0.0,0.0,-0.8147,-0.7696,-0.7484,-0.8048,-0.7607,-0.7446,-0.7865,-0.6339,-0.551,-0.5877,-0.4624,-0.3829,0.0,0.0,0.0,0.0,0.0,0.0,0.0,0.0,0.0,0.0,0.0,0.0,0.0,0.0,0.0,0.0,0.0,0.0,0.0,0.0,0.0,0.0,0.0,0.0,0.0,0.0,0.0,0.0,0.0,0.0,0.0,0.0,-0.764,-0.8315,0.0,0.0,0.0,0.0,0.0,0.0,0.0,0.0,0.0,0.0,0.0,0.0,0.0,0.0,-1.2317,-1.2053,-1.2392,-1.3347,-1.3437,-1.341,-1.3347,-1.3347,-1.3367,-1.343,-1.3328,0.0,-1.1636,-1.0957,0.0,0.0,0.0,0.0,0.0,0.0,0.0,0.0,0.0,0.0,0.0,0.0,0.0,0.0,0.0,0.0,0.0,0.0,0.0,0.0,0.0,0.0,-0.9816,-0.9714,-0.9783,-0.9811,0.0,-0.8425,-0.725,-0.7056,0.0,0.0,0.0,0.0,0.0,0.0,0.0,0.0,-0.8191,-0.8111,-0.8001,-0.8094,-0.8017,-0.7735,-0.7199,-0.6897,-0.6502,-0.5937,-0.5061,-0.4567,-0.4543,-0.3796,0.0,0.0,0.0,0.0,0.0,0.0,0.0,0.0,0.0,0.0,0.0,0.0,0.0,0.0,0.0,0.0,0.0,0.0,0.0,0.0,0.0,0.0,0.0,0.0,0.0,0.0,0.0,0.0,0.0,-0.7475,-0.8524,-0.9532,-0.9647,-0.9633,0.0,0.0,0.0,0.0,0.0,0.0,0.0,0.0,0.0,-1.2199,-1.2364,-1.2545,-1.2801,-1.3299,-1.3647,-1.3797,-1.4184,-1.4169,-1.3797,-1.3797,-1.3797,-1.3797,-1.3797,-1.3468,-1.29,-1.2601,-1.2396,-1.2195,0.0,0.0,0.0,0.0,0.0,0.0,-1.1838,0.0,0.0,0.0,0.0,0.0,0.0,0.0,0.0,0.0,0.0,0.0,0.0,0.0,0.0,-0.9986,-0.9947,-0.9976,-0.9947,-0.932,-0.8674,0.0,-0.8033,-0.7621,-0.6932,0.0,0.0,0.0,0.0,0.0,-0.8106,-0.8075,-0.8048,-0.8048,-0.8048,-0.7919,-0.7587,-0.7216,-0.6855,-0.6537,-0.5769,-0.5143,-0.4776,-0.4314,-0.3899,0.0,0.0,0.0,0.0,0.0,0.0,0.0,0.0,0.0,0.0,0.0,0.0,0.0,0.0,0.0,0.0,0.0,0.0,0.0,0.0,0.0,0.0,0.0,0.0,0.0,0.0,0.0,0.0,-0.8265,-0.9229,-1.0493,-1.0592,-1.0558,0.0,0.0,0.0,0.0,0.0,0.0,-1.2458,-1.2629,-1.2948,-1.3523,-1.3843,-1.3876,-1.3565,-1.4391,-1.4646,-1.4318,-1.5086,-1.5117,-1.4559,-1.4831,-1.4893,-1.4784,-1.4619,-1.4544,-1.4501,-1.4006,-1.379,-1.3706,-1.3148,-1.2969,0.0,-1.3145,-1.2917,-1.2601,-1.3133,-1.2984,-1.246,-1.1893,0.0,-1.1714,-1.1326,0.0,0.0,0.0,0.0,-1.2371,-1.1963,0.0,-1.1405,-1.0787,-1.0648,-1.0588,-1.0413,-1.0383,-1.0185,0.0,-0.9388,-0.9073,-0.8127,0.0,0.0,0.0,0.0,-0.8373,-0.8264,-0.8113,-0.8,-0.8,-0.8,-0.7985,-0.7978,-0.7524,-0.723,-0.7232,-0.6496,-0.5745,-0.509,-0.477,-0.4286,0.0,0.0,0.0,0.0,0.0,0.0,0.0,0.0,0.0,0.0,0.0,0.0,0.0,0.0,0.0,0.0,0.0,0.0,0.0,0.0,0.0,0.0,0.0,0.0,0.0,0.0,0.0,0.0,0.0,0.0,-1.1199,-1.1292,0.0,0.0,0.0,0.0,-1.1376,-1.2292,-1.2935,-1.306,-1.3479,-1.403,-1.4689,-1.4137,-1.4406,-1.5634,-1.508,-1.5095,-1.5709,-1.669,-1.6952,-1.6592,-1.7609,-1.7868,-1.7458,-1.6831,-1.6547,-1.6398,-1.4561,-1.3433,-1.2857,-1.2816,-1.2437,-1.2032,-1.3298,-1.3735,-1.3807,-1.4466,-1.4691,-1.4541,-1.387,-1.366,-1.366,-1.3628,-1.3643,0.0,0.0,-1.3718,-1.369,-1.3688,-1.366,-1.3481,-1.2804,-1.2639,-1.2475,-1.1835,-1.17,-1.1341,0.0,-0.9863,-0.9851,-0.9772,0.0,0.0,-0.9851,-0.9343,-0.8955,-0.8947,-0.8402,-0.8,-0.8,-0.8,-0.7978,-0.7904,-0.7874,-0.786,-0.7861,-0.7158,-0.645,-0.578,-0.5013,-0.4286,-0.3612,-0.3465,0.0,0.0,0.0,0.0,0.0,0.0,0.0,0.0,0.0,0.0,0.0,0.0,0.0,0.0,0.0,0.0,0.0,0.0,0.0,0.0,0.0,0.0,0.0,0.0,0.0,0.0,0.0,0.0,-1.2917,-1.2621,0.0,0.0,-1.3241,-1.3294,-1.297,-1.3412,-1.3846,-1.419,-1.4343,-1.4932,-1.5994,-1.5786,-1.6099,-1.6996,-1.6802,-1.6802,-1.7026,-1.7377,-1.7481,-1.7354,-1.7737,-1.7843,-1.7699,-1.7443,-1.7339,-1.7294,-1.6607,-1.568,-1.4734,-1.4734,-1.4317,-1.3852,-1.4751,-1.4528,-1.3902,-1.4571,-1.463,-1.4396,-1.4329,-1.4208,-1.4142,-1.4569,-1.458,-1.4438,-1.4438,-1.4438,-1.4348,-1.3902,-1.3797,-1.3737,-1.3496,-1.3436,-1.3256,-1.2594,-1.2445,-1.2175,-1.1296,-1.0763,-1.0369,-0.9968,-0.9893,-0.9902,-0.9929,-0.9733,-0.9574,-0.9574,-0.9379,-0.9048,-0.8628,-0.8575,-0.8402,-0.7936,-0.7899,-0.7899,-0.7899,-0.7251,-0.6571,-0.59,-0.5093,-0.435,-0.3676,-0.349,-0.3399,0.0,0.0,0.0,0.0,0.0,0.0,0.0,0.0,0.0,0.0,0.0,0.0,0.0,0.0,0.0,0.0,0.0,0.0,0.0,0.0,0.0,0.0,0.0,0.0,0.0,0.0,-1.1922,-1.348,-1.3546,-1.3568,-1.3782,-1.4326,-1.444,-1.384,-1.4341,-1.4699,-1.4796,-1.5201,-1.583,-1.6666,-1.692,-1.7249,-1.7713,-1.7713,-1.7713,-1.7713,-1.8054,-1.8143,-1.8042,-1.8385,-1.8474,-1.8356,-1.8132,-1.8042,-1.8027,-1.7788,-1.719,-1.6443,-1.6443,-1.6159,-1.583,-1.6278,-1.5874,-1.5142,-1.5381,-1.5143,-1.4776,-1.4962,-1.4887,-1.4814,-1.5257,-1.5275,-1.514,-1.514,-1.514,-1.5035,-1.4588,-1.4468,-1.4408,-1.4199,-1.4139,-1.3959,-1.3283,-1.3133,-1.3014,-1.2568,-1.1749,-1.1002,-1.0608,-1.0533,-1.0562,-1.0629,-1.0386,-1.0247,-1.033,-1.007,-0.9734,-0.9287,-0.9242,-0.8972,-0.8297,-0.8439,-0.8379,-0.7929,-0.7697,-0.7167,-0.6282,-0.571,-0.5088,-0.4418,-0.4193,-0.3955,-0.3698,0.0,0.0,0.0,0.0,0.0,0.0,0.0,0.0,0.0,0.0,0.0,0.0,0.0,0.0,0.0,0.0,0.0,0.0,0.0,0.0,0.0,0.0,0.0,-1.0069,-1.1187,-1.2253,-1.2827,-1.4017,-1.4543,-1.3917,-1.5035,-1.5275,-1.3989,-1.5095,-1.5545,-1.4931,-1.6054,-1.6741,-1.6756,-1.7384,-1.7743,-1.7773,-1.7773,-1.7773,-1.7773,-1.8752,-1.904,-1.8747,-1.9728,-2.0015,-1.9663,-1.9016,-1.8732,-1.8687,-1.8027,-1.7773,-1.7773,-1.7728,-1.7713,-1.7713,-1.7713,-1.7713,-1.7609,-1.6965,-1.6353,-1.5873,-1.5887,-1.5887,-1.5873,-1.5873,-1.5873,-1.5858,-1.5858,-1.5844,-1.5829,-1.5829,-1.5828,-1.5648,-1.5004,-1.4839,-1.4659,-1.3987,-1.384,-1.3827,-1.3797,-1.2762,-1.1865,-1.1835,-1.1831,-1.1865,-1.2066,-1.1384,0.0,-1.1195,-1.0479,-0.995,-0.9935,-0.992,-0.9659,-0.8995,-0.9503,-0.9315,-0.8019,-0.8492,-0.8252,-0.6951,-0.6819,-0.6459,-0.5798,-0.5538,-0.5046,-0.4328,0.0,0.0,0.0,0.0,0.0,0.0,0.0,0.0,0.0,0.0,0.0,0.0,0.0,0.0,0.0,0.0,0.0,0.0,0.0,0.0,0.0,0.0,-1.164,-1.1965,-1.2752,-1.3725,-1.4839,-1.4871,-1.4916,-1.5215,-1.5574,-1.5829,-1.5905,-1.6249,-1.6577,-1.6891,-1.7219,-1.7637,-1.8132,-1.8326,-1.8672,-1.9151,-1.9151,-1.9151,-1.9151,-1.9421,-1.9512,-1.9438,-1.9725,-1.9782,-1.9693,-1.9513,-1.9438,-1.9405,-1.9226,-1.9151,-1.9046,-1.8072,-1.7713,-1.7713,-1.7713,-1.7713,-1.7716,-1.7774,-1.7685,-1.7578,-1.7774,-1.7699,-1.7532,-1.7532,-1.7378,-1.7191,-1.7191,-1.6832,-1.6443,-1.6443,-1.626,-1.6033,-1.5849,-1.5819,-1.5635,-1.4947,-1.4656,-1.4378,-1.3887,-1.3498,-1.3092,-1.2609,-1.2236,-1.1992,-1.1897,0.0,0.0,-1.164,-1.1427,-1.1087,-1.0598,-1.0553,-1.0299,-0.9674,-0.9338,-0.9017,0.0,-0.7884,-0.7286,-0.6906,-0.6377,-0.589,-0.552,-0.5443,-0.5254,0.0,0.0,0.0,0.0,0.0,0.0,0.0,0.0,0.0,0.0,0.0,0.0,0.0,0.0,0.0,0.0,0.0,0.0,0.0,0.0,0.0,0.0,-1.1775,-1.2549,-1.3493,-1.3959,-1.4513,-1.529,-1.529,-1.547,-1.6114,-1.6189,-1.6443,-1.707,-1.713,-1.7294,-1.7684,-1.7968,-1.8296,-1.8687,-1.8972,-1.9318,-1.9708,-1.9708,-1.9708,-1.9708,-1.9708,-1.9708,-1.9708,-1.9708,-1.9708,0.0,-1.9708,-1.9708,-1.9708,-1.9708,-1.9708,0.0,0.0,0.0,0.0,0.0,-1.856,-1.8381,-1.8749,-1.8703,-1.8468,-1.8617,-1.8588,-1.8438,-1.8438,-1.8223,-1.7955,-1.7955,-1.7541,-1.7055,-1.6771,-1.6548,-1.636,-1.6085,-1.6038,-1.5931,-1.555,-1.5324,-1.5095,-1.4707,0.0,0.0,-1.3703,-1.2954,-1.2371,-1.2353,-1.2132,-1.1961,0.0,-1.1844,-1.1655,-1.1256,-1.1226,-1.0957,-1.0329,-1.0183,0.0,0.0,0.0,-0.79,-0.7346,0.0,0.0,0.0,0.0,0.0,0.0,0.0,0.0,0.0,-0.4153,-0.4153,0.0,0.0,0.0,0.0,0.0,0.0,0.0,0.0,0.0,0.0,0.0,0.0,0.0,0.0,0.0,0.0,-1.2639,-1.3463,-1.4736,-1.4962,-1.4992,-1.4931,-1.55,-1.6099,-1.6636,-1.6756,-1.71,-1.7773,-1.7818,-1.7848,-1.7923,0.0,0.0,0.0,0.0,-1.9708,-1.9708,-1.9708,-1.9708,-1.9708,-1.9708,-1.9708,-1.9708,-1.9708,-1.9708,-1.9708,-1.9783,-1.9768,-1.9708,-1.9872,-1.9887,-1.9813,-1.9738,-1.9708,-1.9744,-2.0032,-1.9771,0.0,0.0,0.0,0.0,-1.8899,-1.8929,-1.8959,-1.8959,-1.8779,-1.8579,-1.8579,-1.8234,-1.7717,-1.7148,-1.6922,-1.6728,-1.6098,-1.5947,-1.5932,-1.5857,-1.5827,-1.5799,-1.5799,-1.532,-1.4916,-1.4916,-1.3818,-1.2999,-1.3149,-1.2485,0.0,-1.2152,-1.1953,-1.1805,-1.1805,0.0,0.0,-1.0962,-1.139,-1.0947,-0.9227,-0.9599,-0.9375,-0.8184,-0.8124,-0.7975,-0.7658,-0.7619,-0.7187,-0.6343,-0.6312,-0.6051,-0.5575,-0.5318,-0.52,0.0,0.0,0.0,0.0,0.0,0.0,0.0,0.0,0.0,0.0,0.0,0.0,0.0,0.0,0.0,-1.4002,-1.4332,-1.4691,-1.5499,-1.6039,-1.6159,-1.5649,-1.6144,-1.6577,-1.6681,-1.7189,-1.7772,-1.8463,-1.8506,-1.8747,-1.9271,-1.9453,0.0,-1.9513,-1.9633,-1.9708,-1.9708,-1.9708,-1.9708,-1.9708,0.0,0.0,-1.9708,-1.9708,-1.9708,-1.9738,-2.0273,-2.0198,-1.9783,-2.0876,-2.0991,-2.0434,-1.9899,-1.9708,-1.9708,-1.9764,-1.9725,-1.9604,-1.969,-1.9634,-1.9531,-1.9531,-1.9705,-1.9941,-1.9941,-2.0106,0.0,-2.0318,-1.9651,-1.8879,-1.8757,-1.8328,-1.7746,-1.7088,-1.6935,-1.6782,-1.6229,-1.5955,-1.5799,-1.5799,-1.5709,-1.5619,-1.5619,-1.4624,-1.3803,-1.3675,-1.3194,-1.281,-1.2675,-1.2167,-1.1805,-1.1805,-1.1805,-1.1745,-1.1625,-1.1226,-1.0837,-1.0464,-1.0099,-0.9785,-0.9524,-0.9509,-0.9407,-0.9177,-0.8953,-0.8706,-0.8412,-0.8204,-0.8044,-0.7897,-0.606,-0.52,0.0,0.0,0.0,0.0,0.0,0.0,0.0,0.0,0.0,0.0,0.0,-1.1974,-1.2676,0.0,-1.3628,-1.4646,-1.4811,-1.5035,-1.5709,-1.6323,-1.6592,-1.6278,-1.6817,-1.7339,-1.7669,-1.7997,-1.8493,-1.9151,-1.9196,-1.9346,-1.9693,-1.9708,-1.9708,-1.9708,-1.9708,-1.9708,-1.9708,-1.9708,-1.9708,-1.9708,-2.0034,-2.0198,-2.0213,-2.0543,-2.0711,-2.0707,-2.1066,-2.1006,-2.0756,-2.1425,-2.15,-2.1171,-2.0827,-2.0292,-1.9711,-1.9889,-1.9945,-1.9997,-2.0378,-2.0496,-2.053,-2.0697,-2.0747,-2.0746,-2.0746,-2.0778,-2.0761,-2.0562,-2.0113,-1.9573,-1.9084,-1.8699,-1.8197,-1.7197,-1.6955,-1.6788,-1.6134,-1.5884,-1.5799,-1.5799,-1.5799,-1.5799,-1.5799,-1.5341,-1.4794,-1.4361,-1.3928,-1.3601,-1.3523,-1.2932,-1.2495,-1.2495,-1.2087,-1.1805,-1.1805,-1.1196,-1.0798,-1.0798,-1.0224,-0.989,-0.989,-0.989,-0.9811,-0.9611,-0.9342,-0.9143,-0.9001,-0.8727,-0.8605,-0.8578,-0.7436,-0.6909,0.0,0.0,0.0,0.0,0.0,0.0,0.0,0.0,-1.0476,-1.194,-1.2689,-1.3263,-1.3861,-1.4096,-1.4363,-1.4916,-1.5081,-1.5351,-1.5904,-1.6503,-1.689,-1.689,-1.7488,-1.8117,-1.8657,-1.8822,-1.9106,-1.9663,-1.9708,-1.9708,-1.9708,-1.9708,-1.9708,-1.9708,-1.9828,-1.9902,-1.9902,-2.0022,-2.0097,-2.0112,-2.0647,-2.0882,-2.0897,-2.1455,-2.1695,-2.1695,-2.1695,-2.1844,-2.2054,-2.1934,-2.1889,-2.1889,-2.1889,-2.1141,-2.0119,-2.0393,-2.05,-2.0558,-2.1031,-2.1182,-2.1214,-2.1356,-2.1245,-2.1087,-2.1087,-2.0942,-2.0745,-2.0412,-2.026,-2.0016,-1.9207,-1.8949,-1.8597,-1.7369,-1.71,-1.6876,-1.6144,-1.5964,-1.5934,-1.5829,-1.5799,-1.5799,-1.5799,-1.5799,-1.5619,-1.508,-1.4602,-1.4323,-1.4323,-1.3724,-1.3264,-1.3137,-1.2444,-1.1939,-1.1805,-1.1301,-1.0992,-1.0992,-1.0548,-1.0264,-1.0264,-1.0264,-1.0192,-1.0024,-0.9718,-0.9511,-0.9405,-0.9092,-0.8931,-0.8931,-0.8931,-0.8813,-1.2472,-1.1622,-1.093,-1.1455,-1.0643,-1.047,0.0,0.0,-1.1924,-1.3802,-1.4337,-1.4507,-1.4582,-1.5128,-1.5604,-1.5679,-1.6129,-1.6517,-1.6592,-1.7174,-1.7578,-1.7578,-1.8177,-1.8627,-1.8687,-1.9226,-1.9633,-1.9693,-1.9708,-1.9708,-1.9708,-1.9708,-1.9708,-1.9708,-2.0288,-2.0583,-2.0583,-2.1186,-2.147,-2.147,-2.1545,-2.159,-2.159,-2.1665,-2.1695,-2.1695,-2.1695,-2.2338,-2.334,-2.2823,-2.2583,-2.2583,-2.2583,-2.2134,-2.149,-2.1529,-2.1529,-2.1458,-2.0948,-2.0775,-2.0684,-2.0122,-2.012,-2.0328,-2.0328,-2.0562,-2.0794,-2.0761,-2.0479,-2.0176,-2.0064,-1.9803,-1.9408,-1.8657,-1.8493,-1.8132,-1.6876,-1.6607,-1.6443,-1.5889,-1.5799,-1.5799,-1.5799,-1.5799,-1.5769,-1.5709,-1.5138,-1.4731,-1.4731,-1.416,-1.35,-1.2922,-1.2752,-1.2445,-1.185,-1.173,-1.1685,-1.1685,-1.1625,-1.1595,-1.1595,-1.1595,-1.157,-1.1559,-1.1123,-1.0888,-1.0851,-1.0359,-1.0117,-1.0117,-1.0117,-0.9569,-1.3829,-1.2807,-1.192,0.0,-1.2026,-1.1787,-1.3552,-1.3279,-1.3006,-1.4246,-1.4844,-1.5181,-1.5224,-1.5532,-1.5799,0.0,-1.6308,-1.6696,-1.6696,-1.7279,-1.7713,-1.7713,-1.7953,-1.8267,-1.8672,-1.9301,-1.9708,-1.9708,-1.9708,-1.9708,-1.9708,-2.0064,-2.0288,-2.0288,-2.0932,-2.1291,-2.1291,-2.156,-2.1695,-2.1695,-2.2104,-2.2283,-2.2298,-2.2637,-2.2802,-2.2802,-2.2802,-2.3116,-2.358,-2.3325,-2.3206,-2.3206,-2.3206,-2.3041,-2.2712,-2.1964,-2.1695,-2.1689,-2.1598,-2.1569,-2.1561,-2.1467,-2.1411,-2.1295,-2.0898,-2.0897,-2.0907,-2.0312,-2.0172,-2.0156,-1.9962,-1.98,-1.9528,-1.8867,-1.8702,-1.8448,-1.7488,-1.7279,-1.7085,-1.6443,-1.6323,-1.6219,-1.5858,-1.5799,-1.5799,-1.5799,-1.5684,-1.5613,-1.5613,-1.5019,-1.4298,-1.3475,-1.3029,-1.2696,-1.24,-1.2014,-1.1805,-1.1805,-1.1805,-1.1805,-1.1805,-1.1805,-1.1805,-1.1805,-1.146,-1.1222,-1.1097,-1.0717,-1.0449,-1.0299,-1.0299,-1.0039,-1.4424,0.0,0.0,-1.3368,-1.3121,-1.2935,-1.3617,-1.371,-1.3858,-1.4627,-1.5154,-1.5522,-1.5595,-1.5712,-1.5799,-1.5799,-1.6458,-1.698,-1.698,-1.7399,-1.7713,-1.7713,-1.7533,-1.7699,-1.8356,-1.9031,-1.9513,-1.9693,-1.9708,-1.9708,-1.9708,-2.0348,-2.0703,-2.0703,-2.153,-2.1984,-2.1984,-2.2143,-2.2218,-2.2233,-2.2733,-2.2957,-2.2957,-2.3385,-2.3595,-2.3595,-2.3595,-2.3595,-2.3595,-2.3595,-2.3595,-2.3595,-2.3595,-2.3595,-2.349,-2.2562,-2.2218,-2.2229,-2.2313,-2.233,-2.2358,-2.2415,-2.2255,-2.1984,-2.1484,-2.121,-2.0911,-2.0185,-2.0007,-2.0015,-1.9764,-1.9708,-1.9588,-1.9091,-1.8972,-1.8792,-1.8117,-1.7983,-1.7788,-1.7115,-1.698,-1.6771,-1.6159,-1.6054,-1.5994,-1.5829,-1.5969,-1.6094,-1.6094,-1.5497,-1.4823,-1.415,-1.3481,-1.3074,-1.3074,-1.2628,-1.2358,-1.2358,-1.2179,-1.2085,-1.2085,-1.1895,-1.1805,-1.1805,-1.1534,-1.1299,-1.1097,-1.0825,-1.056,-1.0299,-1.0299,-1.0299,0.0,0.0,-1.3561,-1.3511,-1.3432,-1.3566,-1.4306,-1.4367,-1.4499,-1.5301,-1.5492,-1.5522,-1.5595,-1.5712,-1.5799,-1.5799,-1.6847,-1.7667,-1.7667,-1.7699,-1.7713,-1.7713,-1.713,-1.6995,0.0,-1.8326,-1.9001,-1.9648,-1.9708,-1.9708,-1.9708,-2.0348,-2.0703,-2.0703,-2.1984,-2.2673,-2.2673,-2.3236,-2.3535,-2.3535,-2.3565,-2.3565,-2.3565,-2.3595,-2.3595,-2.3595,-2.3595,-2.3595,-2.3595,-2.3595,-2.3595,-2.3595,-2.3595,-2.3595,-2.3595,-2.355,-2.3535,-2.346,-2.2868,-2.2679,-2.2589,-2.1944,-2.1714,-2.1714,-2.1684,-2.1235,-2.0707,-2.0692,-2.0198,-1.9711,-1.9708,-1.9708,-1.9693,-1.9678,-1.9678,-1.9498,-1.8807,-1.8672,-1.8461,-1.7803,-1.7667,-1.7458,-1.6786,-1.6666,-1.6458,-1.5889,-1.5813,-1.5813,-1.5813,-1.5229,-1.4796,-1.4767,-1.4169,-1.3767,-1.3767,-1.3752,-1.3737,-1.3737,-1.3133,-1.2759,-1.2759,-1.216,-1.1805,-1.1805,-1.1534,-1.1299,-1.1097,-1.0825,-1.056,-1.0299,-1.0299,-1.0299,-1.3753,0.0,-1.3707,-1.4121,-1.4171,-1.4306,-1.5007,-1.5096,-1.5125,-1.5433,-1.5551,-1.558,-1.5595,-1.5712,-1.5799,-1.5799,-1.6877,-1.7713,-1.7713,-1.8087,-1.8192,-1.7758,-1.7488,0.0,0.0,0.0,0.0,-1.9648,-1.9708,-1.9902,-2.0348,-2.1006,-2.156,-2.1994,-2.2847,-2.3295,-2.3295,-2.349,-2.3595,-2.3595,-2.3595,-2.3595,-2.3595,-2.3595,-2.3595,-2.3595,-2.3595,-2.3595,-2.3595,-2.3595,-2.3595,-2.3595,-2.3595,-2.3595,-2.3595,-2.3595,-2.3595,-2.3565,-2.3355,-2.3295,-2.3251,-2.3026,-2.2951,-2.2892,-2.2493,-2.2209,-2.1829,-2.0942,-2.0543,-2.0258,-1.9828,-1.9708,-1.9708,-1.9708,-1.9708,-1.9648,-1.9405,-1.9346,-1.9166,-1.8493,-1.8356,-1.8147,-1.7473,-1.7354,-1.713,-1.6503,-1.6069,-1.5799,-1.5799,-1.5604,-1.5455,-1.5455,-1.4871,-1.4453,-1.4453,-1.4064,-1.3797,-1.3797,-1.36,-1.3466,-1.3466,-1.3256,-1.3124,-1.3124,-1.2603,-1.2132,-1.1765,-1.1222,-1.0741,-1.0299,-1.0299,-1.0299,-1.4003,-1.4037,-1.4145,-1.4768,-1.4889,-1.4992,-1.5418,-1.5301,-1.511,-1.524,-1.5269,-1.5297,-1.5311,-1.5577,-1.5799,-1.5799,-1.6877,-1.7713,-1.7713,-1.8267,-1.8553,-1.8117,-1.7848,0.0,0.0,0.0,0.0,-1.9648,-1.9708,-1.9989,-2.0658,-2.1335,-2.1994,-2.2673,-2.3302,-2.3595,-2.3595,-2.3595,-2.3595,-2.3595,-2.3595,-2.3595,-2.3595,-2.3595,-2.3595,-2.3595,-2.3595,-2.3595,-2.3595,-2.3595,-2.3595,-2.3595,-2.3595,-2.3595,-2.3595,-2.3595,-2.3595,-2.3595,-2.3595,-2.3595,-2.3595,-2.3595,-2.3595,-2.3535,-2.3152,-2.2868,-2.2523,-2.1665,-2.1062,-2.0598,-2.0168,-1.9887,-1.9708,-1.9708,-1.9708,-1.9708,-1.9708,-1.9708,-1.9573,-1.9136,-1.9061,-1.8852,-1.8177,-1.7652,-1.7204,-1.6756,-1.6189,-1.5799,-1.5799,-1.5799,-1.5799,-1.5799,-1.541,-1.5155,-1.5155,-1.4766,-1.4513,-1.4513,-1.4288,-1.4169,-1.4169,-1.3929,-1.3797,-1.3797,-1.325,-1.2781,-1.2387,-1.1827,-1.1342,-1.0899,-1.0717,-1.0625,-1.4551,-1.4729,-1.488,-1.5389,-1.5507,-1.5507,-1.5551,-1.5019,-1.4563,-1.471,-1.4697,-1.4668,0.0,0.0,-1.5754,-1.5754,-1.6847,-1.7713,-1.7713,-1.8311,-1.8747,0.0,0.0,0.0,0.0,0.0,0.0,-1.9753,0.0,-2.0034,-2.0718,-2.1395,-2.2074,-2.2718,-2.3295,-2.3595,-2.3595,-2.3595,-2.3595,-2.3595,-2.3595,-2.3595,-2.3595,-2.3595,-2.3595,-2.3595,-2.3595,-2.3595,-2.3595,-2.3595,-2.3595,-2.3595,-2.3595,-2.3595,-2.3595,-2.3595,-2.3595,-2.3595,-2.3595,-2.3595,-2.3595,-2.3595,-2.3595,-2.3595,-2.3595,-2.3212,-2.2748,-2.2703,-2.1784,-2.0778,-2.0718,-2.0228,-1.9753,-1.9708,-1.9708,-1.9708,-1.9708,-1.9708,-1.9708,-1.9708,-1.9708,-1.9513,-1.8867,-1.7669,-1.6801,-1.6801,-1.6263,-1.5829,-1.5799,-1.5799,-1.5799,-1.5799,-1.5799,-1.5799,-1.5799,-1.5799,-1.5799,-1.5799,-1.52,-1.4856,-1.4856,-1.4244,-1.3902,-1.3902,-1.3559,-1.3239,-1.2954,-1.2608,-1.2283,-1.1994,-1.1475,-1.124,-1.4724,-1.5127,-1.556,-1.5696,-1.5653,-1.5462,-1.5086,-1.482,-1.454,-1.4143,-1.4051,-1.4023,0.0,0.0,0.0,-1.505,-1.6533,0.0,-1.7713,-1.8717,0.0,-1.8762,0.0,-1.9256,-1.9438,-1.9899,0.0,0.0,-2.0737,-2.0737,-2.141,-2.2089,-2.2733,-2.334,-2.352,-2.3595,-2.3595,-2.3595,-2.3595,-2.3595,-2.3595,-2.3595,-2.3595,-2.3595,-2.3595,-2.3595,-2.3595,-2.3595,-2.3595,-2.3595,-2.3595,-2.3595,-2.3595,-2.3595,-2.3595,-2.3595,-2.3595,-2.3595,-2.3595,-2.3595,-2.3595,-2.3595,-2.3595,-2.3595,-2.3595,-2.349,-2.3287,-2.2823,-2.2448,-2.1949,-2.0957,-2.0569,-2.0318,-1.9828,-1.9708,-1.9708,-1.9708,-1.9708,-1.9708,-1.9708,-1.9708,-1.9648,-1.9465,-1.8747,-1.8192,-1.8192,-1.722,-1.6308,-1.5858,-1.5799,-1.5799,-1.5799,-1.5799,-1.5799,-1.5799,-1.5799,-1.5799,-1.5799,-1.5649,-1.5559,-1.5559,-1.5379,-1.529,-1.529,-1.4714,-1.4162,-1.3643,-1.3067,-1.251,-1.2007,-1.1851,-1.1799,-1.5155,-1.5514,-1.5799,-1.5799,-1.5741,-1.5533,-1.4947,-1.4531,-1.413,-1.3496,-1.3361,0.0,0.0,0.0,0.0,0.0,0.0,0.0,-1.7652,-1.8612,-1.9226,0.0,-1.9465,0.0,-2.0109,-2.0483,-2.0991,0.0,-2.135,-2.144,-2.2104,-2.2508,-2.2987,-2.358,-2.3595,-2.3595,-2.3595,-2.3595,-2.3595,-2.3595,-2.3595,-2.3595,-2.3595,-2.3595,-2.3595,-2.3595,0.0,-2.3595,-2.3595,-2.3595,-2.3595,-2.3595,-2.3595,-2.3595,-2.3595,-2.3595,-2.3595,-2.3595,-2.3595,-2.3595,-2.3595,-2.3595,-2.3595,-2.3595,-2.3595,-2.3595,-2.3535,-2.3176,-2.2897,-2.2523,-2.1769,-2.1141,-2.0617,-2.0228,-1.9899,-1.9708,-1.9708,-1.9708,-1.9708,-1.9708,-1.9708,-1.9708,-1.9708,-1.9136,-1.8702,-1.8702,-1.7818,-1.701,-1.6682,-1.6144,-1.5799,-1.5799,-1.5799,-1.5799,-1.5799,-1.5799,-1.5799,-1.5799,-1.5799,-1.5799,-1.5799,-1.5799,-1.5799,-1.5799,-1.5282,-1.4776,-1.429,-1.3762,-1.3254,-1.2779,-1.2518,-1.2387,-1.5649,-1.5799,-1.5799,-1.5799,-1.5739,-1.5499,-1.4826,-1.4154,-1.3481,-1.2804,0.0,-1.2723,-1.2923,-1.3836,-1.4622,-1.4908,0.0,-1.6846,-1.7578,-1.8267,-1.8957,-1.9633,-1.9708,-1.9989,-2.0748,-2.0823,-2.1137,-2.1904,-2.1949,-2.2179,-2.2673,-2.2778,-2.3062,-2.358,-2.3595,-2.3595,-2.3595,-2.3595,-2.3595,-2.3595,-2.3595,-2.3595,-2.3595,-2.3595,-2.3595,-2.3595,0.0,0.0,-2.3595,-2.3595,-2.3595,-2.3595,-2.3595,-2.3595,-2.3595,-2.3595,-2.3595,-2.3595,-2.3595,-2.3595,-2.3595,-2.3595,-2.3595,-2.3595,-2.3595,-2.3595,-2.3595,-2.3595,-2.3227,-2.2808,-2.2718,-2.1829,-2.0946,-2.0838,-2.0318,-1.9842,-1.9842,-1.9768,-1.9708,-1.9708,-1.9708,-1.9708,-1.9708,-1.9211,-1.8837,-1.8837,-1.8252,-1.7833,-1.7833,-1.6712,-1.5919,-1.5919,-1.5858,-1.5799,-1.5799,-1.5799,-1.5799,-1.5799,-1.5799,-1.5799,-1.5799,-1.5799,-1.5799,-1.5799,-1.5507,-1.5179,-1.4808,-1.4509,-1.417,-1.3791,-1.3268,-1.3019,-1.5769,-1.5799,-1.5799,-1.5799,-1.538,-1.4811,-1.4139,-1.3451,0.0,0.0,-1.1969,-1.2035,-1.2234,-1.2758,-1.3398,-1.4151,0.0,0.0,0.0,0.0,-1.8957,0.0,0.0,0.0,0.0,0.0,0.0,0.0,0.0,0.0,-2.2718,-2.3182,-2.349,-2.3595,-2.3595,-2.3595,-2.3595,-2.3595,-2.3595,-2.3595,-2.3595,-2.3595,-2.3595,-2.3595,-2.3595,-2.3595,0.0,0.0,-2.3595,-2.3595,-2.3595,-2.3595,-2.3595,-2.3595,-2.3595,-2.3595,-2.3595,-2.3595,-2.3595,-2.3595,-2.3595,-2.3595,-2.3595,-2.3595,-2.3595,-2.3595,-2.3595,-2.3595,-2.352,-2.3325,-2.2838,-2.2523,-2.2224,-2.1665,-2.1021,-2.0543,-2.0543,-2.0094,-1.9708,-1.9708,-1.9708,-1.9708,-1.9708,-1.9603,-1.9528,-1.9528,-1.8957,-1.8538,-1.8538,-1.737,-1.6547,-1.6547,-1.6099,-1.5799,-1.5799,-1.5799,-1.5799,-1.5799,-1.5799,-1.5799,-1.5799,-1.5799,-1.5799,-1.5799,-1.5741,-1.5403,-1.4808,-1.4746,-1.4413,-1.3804,-1.37,-1.3647,-1.5799,-1.5799,-1.5799,-1.5799,-1.529,-1.4618,-1.3947,0.0,0.0,0.0,-1.1805,-1.1854,-1.2066,-1.2573,0.0,-1.3988,0.0,0.0,0.0,0.0,0.0,0.0,0.0,0.0,0.0,0.0,0.0,0.0,0.0,0.0,-2.3176,-2.343,-2.3595,-2.3595,-2.3595,-2.3595,-2.3595,-2.3595,-2.3595,-2.3595,-2.3566,-2.3566,-2.3595,-2.3566,-2.3566,-2.3595,0.0,0.0,-2.3625,-2.3984,-2.4111,-2.4111,-2.4111,-2.4321,-2.4597,-2.4268,-2.4111,-2.4111,-2.4111,-2.3894,-2.3595,-2.3595,-2.3595,-2.3595,-2.3595,-2.3595,-2.3595,-2.3595,-2.3595,-2.3535,-2.3236,-2.2942,-2.2628,-2.2298,-2.144,-2.0703,-2.0703,-2.0168,-1.969,-1.965,-1.9687,-1.969,-1.965,-1.9687,-1.9708,-1.9708,-1.94,-1.9173,-1.9226,-1.8323,-1.7574,-1.7249,-1.6966,-1.6787,-1.6787,-1.6473,-1.6263,-1.6263,-1.5905,-1.5741,-1.5799,-1.5741,-1.5741,-1.5799,-1.5799,-1.5463,-1.4808,-1.4808,-1.4461,-1.3804,-1.3804,-1.3804,-1.5799,-1.5799,-1.5799,-1.5799,-1.5185,-1.4453,-1.3917,-1.3166,0.0,0.0,-1.1805,-1.1854,-1.2066,0.0,-1.3099,0.0,-1.4508,-1.5259,0.0,0.0,0.0,0.0,0.0,0.0,0.0,0.0,0.0,0.0,0.0,0.0,0.0,-2.3595,-2.3595,-2.3595,-2.3588,-2.3588,-2.3588,-2.3566,-2.3545,-2.3545,-2.3473,-2.3473,-2.353,-2.3494,-2.3538,-2.3588,0.0,0.0,0.0,-2.438,-2.4694,-2.4814,-2.4814,-2.5128,-2.5555,-2.5008,-2.4724,-2.4605,-2.4605,-2.4156,-2.3595,-2.3595,-2.3595,-2.3595,-2.3595,-2.3595,-2.3595,-2.3595,-2.3595,-2.3595,-2.3595,-2.3236,-2.2853,-2.2697,-2.1869,-2.1032,-2.0744,-2.0236,-1.9818,-1.9641,-1.9614,-1.9632,-1.9574,-1.9614,-1.9672,-1.9636,-1.9629,-1.9611,-1.9617,-1.9132,-1.8592,-1.811,-1.7829,-1.7665,-1.7633,-1.7156,-1.6858,-1.6858,-1.6173,-1.5847,-1.595,-1.5713,-1.5639,-1.5741,-1.5668,-1.5359,-1.4763,-1.4685,-1.4351,-1.3804,-1.3758,-1.3758,-1.5799,-1.5799,-1.5799,-1.5799,-1.4841,-1.3872,-1.3812,0.0,0.0,-1.1805,-1.1805,-1.1854,-1.2066,0.0,0.0,0.0,0.0,-1.4571,0.0,0.0,0.0,0.0,0.0,0.0,0.0,0.0,0.0,0.0,0.0,0.0,0.0,-2.3595,-2.3595,-2.3595,-2.3538,-2.3509,-2.3509,-2.3385,-2.3341,-2.3341,-2.3319,-2.3319,-2.3341,-2.3466,-2.3509,-2.3494,0.0,0.0,0.0,-2.4575,-2.4963,-2.5501,-2.5501,-2.5555,-2.56,-2.554,-2.5113,-2.4605,-2.4605,-2.4156,-2.3595,-2.3595,-2.3595,-2.3595,-2.3595,-2.3595,-2.3595,-2.3595,-2.3595,-2.3595,-2.3595,-2.355,-2.3349,-2.2676,-2.2515,-2.2153,-2.0807,-2.048,-2.0262,-1.9712,-1.952,-1.9431,-1.9413,-1.952,-1.9574,-1.945,-1.9538,-1.9556,-1.9431,-1.9369,-1.931,-1.9236,-1.8258,-1.7565,-1.7438,-1.7362,-1.7333,-1.7333,-1.6759,-1.642,-1.6436,-1.5891,-1.558,-1.5536,-1.5285,-1.4968,-1.4611,-1.431,-1.4046,-1.3804,-1.3678,-1.3615,-1.5305,-1.5499,-1.5709,-1.529,-1.4483,-1.369,-1.3286,0.0,-1.1805,-1.1805,-1.1805,-1.1811,-1.1897,-1.195,0.0,0.0,0.0,0.0,-1.541,0.0,0.0,0.0,0.0,0.0,0.0,0.0,0.0,0.0,0.0,0.0,0.0,-2.3538,-2.3516,-2.3414,-2.3385,-2.3385,-2.3385,-2.3319,-2.3297,-2.3297,-2.3223,-2.3223,-2.3297,-2.3363,-2.3422,-2.3509,0.0,0.0,0.0,-2.4675,-2.4904,-2.4875,-2.566,-2.5972,-2.5972,-2.5972,-2.5542,-2.4964,-2.4964,-2.4282,-2.3436,-2.3516,-2.3538,-2.356,-2.3588,-2.3595,-2.3595,-2.3595,-2.3595,-2.3588,-2.356,-2.3538,-2.3457,-2.3059,-2.2782,-2.2289,-2.1262,-2.0725,-2.0237,-1.9546,-1.9413,-1.9395,-1.9358,-1.9413,-1.9465,-1.9413,-1.9413,-1.9413,-1.9395,-1.9358,-1.9339,-1.9339,-1.8956,-1.8664,-1.8614,-1.7893,-1.7613,-1.7981,-1.7019,-1.6461,-1.6493,-1.6228,-1.5904,-1.5507,-1.5195,-1.486,-1.4549,-1.4198,-1.3931,-1.3678,-1.3581,-1.3564,-1.4633,-1.4856,-1.5095,-1.4618,-1.4154,-1.363,0.0,-1.243,-1.204,-1.1835,-1.1805,-1.1805,-1.1805,-1.1918,-1.234,0.0,0.0,-1.3964,-1.4689,0.0,0.0,0.0,0.0,0.0,0.0,0.0,0.0,0.0,0.0,0.0,0.0,0.0,-2.3356,-2.3297,-2.3253,-2.3246,-2.3246,-2.3187,-2.3289,-2.348,-2.3382,-2.3382,-2.348,-2.3525,-2.3467,0.0,0.0,0.0,0.0,-2.4364,-2.4465,-2.4268,-2.5644,-2.6094,-2.6009,-2.6365,-2.6076,-2.5501,-2.5501,-2.4779,-2.3843,-2.3741,-2.3726,-2.3725,-2.3561,-2.3545,-2.3566,-2.3566,-2.3566,-2.3545,-2.3451,-2.3444,-2.3422,-2.3275,-2.2979,-2.2541,-2.178,-2.1098,-2.0416,-1.9713,-1.9434,-1.9302,-1.9246,-1.9321,-1.9358,-1.9321,-1.9302,-1.9302,-1.9321,-1.9265,-1.9246,-1.9246,-1.9123,-1.913,-1.9306,-1.8323,-1.7883,-1.8309,-1.7276,-1.666,-1.6723,-1.6676,-1.6354,-1.5711,-1.5392,-1.4982,-1.447,-1.4133,-1.3835,-1.3564,-1.3497,-1.3497,-1.3812,-1.3812,-1.3812,-1.3812,-1.381,-1.363,0.0,-1.2789,-1.2594,-1.1939,-1.1805,-1.1805,-1.1805,-1.1805,-1.2025,-1.2711,0.0,0.0,-1.4616,0.0,0.0,0.0,0.0,0.0,0.0,0.0,0.0,0.0,0.0,0.0,0.0,0.0,-2.3157,-2.3297,-2.3157,-2.3105,-2.3105,-2.297,-2.3229,-2.3876,-2.3876,-2.3876,-2.39,-2.4031,0.0,0.0,0.0,0.0,0.0,-2.3526,-2.3579,-2.3858,-2.5542,-2.5864,-2.5537,-2.6748,-2.6754,-2.6208,-2.6208,-2.5756,-2.507,-2.4416,-2.4279,-2.4252,-2.3511,-2.3385,-2.3509,-2.3509,-2.3509,-2.3466,-2.3341,-2.3297,-2.3275,-2.3127,-2.3201,-2.3062,-2.2285,-2.162,-2.0997,-2.0333,-1.9594,-1.9101,-1.9101,-1.9195,-1.9265,-1.912,-1.9213,-1.9246,-1.912,-1.9101,-1.9101,-1.9101,-1.8564,-1.8448,-1.9043,-1.855,-1.8201,-1.8201,-1.7577,-1.72,-1.72,-1.725,-1.693,-1.6213,-1.5927,-1.5324,-1.4406,-1.4052,-1.3752,-1.3497,-1.3425,-1.3408,-1.3241,-1.3451,-1.369,-1.3226,-1.3118,-1.2939,-1.228,-1.2115,-1.2059,-1.1835,-1.1805,-1.1805,-1.1805,-1.1805,-1.2164,-1.3301,-1.3481,0.0,0.0,0.0,0.0,0.0,0.0,0.0,0.0,0.0,0.0,0.0,0.0,0.0,0.0,0.0,-2.2978,-2.3023,-2.2978,-2.297,-2.297,-2.2925,-2.3004,-2.3215,-2.3215,-2.3215,-2.3215,-2.3366,0.0,0.0,0.0,0.0,0.0,-2.3295,-2.3739,-2.4537,-2.5571,-2.5859,-2.5774,-2.6637,-2.6513,-2.5919,-2.5919,-2.551,-2.4898,-2.4321,-2.417,-2.4076,-2.3384,-2.3312,-2.3487,-2.3385,-2.329,-2.3216,-2.3157,-2.3171,-2.3135,-2.2992,-2.3082,-2.2959,-2.2207,-2.1894,-2.1428,-2.0331,-1.9948,-1.9638,-1.9174,-1.9139,-1.9139,-1.9101,-1.9139,-1.9139,-1.9101,-1.9101,-1.9101,-1.9101,-1.8564,-1.8288,-1.8477,-1.7475,-1.704,-1.749,-1.6895,-1.6518,-1.6518,-1.6321,-1.6073,-1.579,-1.5108,-1.4686,-1.4534,-1.4016,-1.3598,-1.3301,-1.3374,-1.334,-1.2534,-1.2718,-1.2957,-1.2534,-1.2609,-1.2624,-1.1939,-1.1999,-1.2115,-1.185,-1.1805,-1.1805,-1.1805,-1.1805,-1.2074,-1.2912,-1.3062,0.0,0.0,0.0,0.0,0.0,0.0,0.0,0.0,0.0,0.0,0.0,0.0,0.0,0.0,0.0,-2.2888,-2.2888,-2.2888,-2.2888,-2.2888,-2.2888,-2.3041,-2.3273,-2.3273,-2.3273,-2.3273,0.0,0.0,0.0,0.0,0.0,0.0,-2.2531,-2.2944,-2.3659,-2.4747,-2.5168,-2.527,-2.615,-2.6335,-2.6195,-2.6195,-2.5948,-2.5483,-2.464,-2.4052,-2.3585,-2.3214,-2.3216,-2.3312,-2.3201,-2.3135,-2.3082,-2.3037,-2.3015,-2.2992,-2.2925,-2.297,-2.2913,-2.2439,-2.2164,-2.1757,-2.0973,-2.0422,-1.9972,-1.9551,-1.9275,-1.9101,-1.9101,-1.9101,-1.9101,-1.9101,-1.9101,-1.9101,-1.9101,-1.8564,-1.81,-1.7853,-1.6837,-1.6387,-1.6808,-1.6429,-1.6314,-1.6576,-1.6443,-1.6361,-1.6323,-1.5404,-1.4925,-1.4894,-1.4193,-1.3731,-1.3534,-1.3389,-1.3284,0.0,-1.1805,-1.1805,-1.1805,-1.2265,-1.2576,-1.1939,-1.228,0.0,-1.1925,-1.1805,-1.1805,-1.1865,-1.1835,-1.1835,-1.1925,0.0,0.0,0.0,0.0,0.0,0.0,0.0,0.0,0.0,0.0,0.0,0.0,0.0,0.0,0.0,0.0,0.0,-2.2888,-2.2888,-2.2888,-2.2888,-2.2888,-2.3215,-2.3818,-2.3795,-2.3771,-2.3771,0.0,0.0,0.0,0.0,0.0,0.0,-2.142,-2.1529,-2.1896,-2.3429,-2.4055,-2.43,-2.5409,-2.6187,-2.6675,-2.6718,-2.6747,-2.6504,-2.523,-2.3983,-2.2983,-2.3052,-2.3082,-2.306,-2.2947,-2.2992,-2.306,-2.2925,-2.2888,-2.2888,-2.2888,-2.2888,-2.2888,-2.2888,-2.2461,-2.2048,-2.2004,-2.1046,-2.0204,-2.0117,-1.958,-1.9159,-1.9116,-1.9101,-1.9101,-1.9101,-1.9101,-1.9101,-1.9101,-1.8564,-1.7954,-1.733,-1.6619,-1.6168,-1.6092,-1.6124,-1.6384,-1.6973,-1.7164,-1.7288,-1.7293,-1.635,-1.567,-1.5293,-1.4427,-1.4035,-1.4009,-1.3453,-1.3198,-1.1805,0.0,-1.1805,-1.1805,-1.191,-1.1984,0.0,-1.1925,-1.1973,-1.1766,-1.1757,-1.1944,-1.2402,-1.2112,-1.2149,-1.3154,0.0,0.0,0.0,0.0,0.0,0.0,0.0,0.0,0.0,0.0,0.0,0.0,0.0,0.0,0.0,0.0,0.0,-2.2888,-2.2888,-2.2888,-2.2888,-2.2888,-2.2975,-2.3142,-2.2783,-2.2606,-2.2583,0.0,0.0,0.0,0.0,0.0,0.0,-2.1679,-2.2533,-2.4166,-2.4085,-2.4337,-2.4767,-2.5013,-2.522,-2.54,-2.5865,-2.605,-2.5919,-2.5125,-2.4326,-2.3586,-2.3093,-2.2947,-2.2947,-2.2925,-2.2925,-2.2947,-2.2925,-2.2888,-2.2888,-2.2888,-2.2888,-2.2888,-2.2888,-2.2786,-2.2548,-2.2091,-2.1757,-2.1235,-2.0262,-1.9972,-1.9696,-1.9174,-1.9101,-1.9101,-1.9101,-1.9101,-1.9101,-1.9101,-1.8564,-1.8143,-1.7983,-1.688,-1.5885,-1.5175,-1.5378,-1.5343,-1.5003,-1.5026,-1.5111,-1.5282,-1.4813,-1.439,-1.4089,-1.3628,-1.3403,-1.3403,-1.3261,-1.3198,-1.1063,-1.1437,-1.1805,-1.1805,-1.1783,-1.1714,-1.159,-1.1648,-1.167,-1.1541,-1.1615,-1.1807,-1.2141,-1.217,-1.2404,0.0,0.0,0.0,0.0,0.0,0.0,0.0,0.0,0.0,0.0,0.0,0.0,0.0,0.0,0.0,0.0,0.0,0.0,0.0,-2.2888,-2.2888,-2.2888,-2.2888,-2.2797,-2.2578,-2.2324,-2.2077,-2.1803,0.0,0.0,0.0,0.0,0.0,-2.1595,-2.1268,-2.2039,-2.3375,-2.3021,-2.34,-2.414,-2.4416,-2.4857,-2.5386,-2.605,-2.6065,-2.5759,-2.5425,-2.466,-2.3833,-2.3461,-2.3142,-2.2888,-2.2888,-2.2888,-2.2888,-2.2888,-2.2888,-2.2888,-2.2888,-2.2888,-2.2888,-2.2888,-2.2888,-2.2786,-2.2475,-2.2193,-2.1772,-2.109,-2.0494,-1.9986,-1.9609,-1.9304,-1.9101,-1.9101,-1.8936,-1.8822,-1.8822,-1.8347,-1.7904,-1.7623,-1.693,-1.6157,-1.5274,-1.5121,-1.4952,-1.4716,-1.4544,-1.4414,-1.4374,-1.4429,-1.4277,-1.3882,-1.3702,-1.3609,-1.3609,-1.3328,-1.3198,-1.0246,-1.0973,-1.1674,-1.1685,-1.1626,-1.1527,-1.1299,-1.1367,-1.1437,-1.1259,-1.1373,-1.1552,-1.1719,-1.2141,0.0,0.0,0.0,0.0,0.0,0.0,0.0,0.0,0.0,0.0,0.0,0.0,0.0,0.0,0.0,0.0,0.0,0.0,0.0,0.0,-2.2752,-2.2797,-2.2797,-2.2865,-2.2661,-2.2208,-2.2123,-2.1803,-2.1248,-2.0721,0.0,0.0,0.0,0.0,-2.0691,-2.0691,-2.1018,-2.1521,-2.1592,-2.2267,-2.3267,-2.385,-2.4731,-2.5734,-2.6402,-2.6355,-2.5948,-2.5847,-2.5019,-2.4022,-2.392,-2.3418,-2.2888,-2.2888,-2.2888,-2.2865,-2.2797,-2.2843,-2.2865,-2.2797,-2.2843,-2.2888,-2.2888,-2.2888,-2.2888,-2.2888,-2.249,-2.2106,-2.2019,-2.1104,-2.0364,-2.0248,-1.9682,-1.9227,-1.917,-1.8764,-1.8461,-1.8403,-1.8028,-1.7584,-1.7083,-1.6942,-1.6586,-1.5847,-1.5268,-1.5015,-1.5111,-1.4638,-1.4259,-1.3959,-1.4406,-1.4406,-1.3959,-1.3959,-1.3959,-1.3946,-1.3428,-1.3248,-1.0532,-1.0905,-1.105,-1.1108,-1.1073,-1.1015,-1.0979,-1.0991,-1.0991,-1.0897,-1.0944,-1.1298,-1.2276,-1.211,-1.2319,0.0,0.0,0.0,0.0,0.0,0.0,0.0,0.0,0.0,0.0,0.0,0.0,0.0,0.0,0.0,0.0,0.0,0.0,0.0,0.0,-2.2301,-2.2301,-2.2706,-2.2661,-2.2194,-2.1742,-2.1237,-2.0696,-2.0182,-1.9927,0.0,0.0,0.0,-2.0691,-2.0691,-2.1018,-2.1549,-2.2007,-2.259,-2.3253,-2.3749,-2.4351,-2.5042,-2.572,-2.6268,-2.6533,-2.5966,-2.5324,-2.4631,-2.4065,-2.3418,-2.2888,-2.2888,-2.2888,-2.2797,-2.2417,-2.2615,-2.2797,-2.2394,-2.2615,-2.2888,-2.2888,-2.2888,-2.2888,-2.2888,-2.2815,-2.2606,-2.2091,-2.183,-2.1511,-2.0944,-2.0335,-1.9811,-1.9409,-1.8844,-1.8344,-1.7948,-1.7828,-1.776,-1.7666,-1.7192,-1.6744,-1.6307,-1.5927,-1.5416,-1.4721,-1.3873,-1.3393,-1.3341,-1.3428,-1.3428,-1.3341,-1.3341,-1.3341,-1.3341,-1.3235,-1.3483,-0.9402,-0.9766,-1.0061,-1.038,-1.109,-1.1612,-1.1158,-1.1372,-1.1615,-1.1482,-1.1562,-1.1817,0.0,0.0,-1.3038,-1.4501,0.0,0.0,0.0,0.0,0.0,0.0,0.0,0.0,0.0,0.0,0.0,0.0,0.0,0.0,0.0,0.0,0.0,0.0,0.0,0.0,-2.1779,-2.1978,-2.2147,-2.2208,-2.1945,-2.1396,-2.0585,-2.0334,-2.008,0.0,0.0,-1.9949,-2.02,-2.02,-2.0535,-2.1054,-2.129,-2.2082,-2.3289,-2.4478,-2.5319,-2.5923,-2.6228,-2.6559,-2.6762,-2.6457,-2.5919,-2.5338,-2.5033,-2.4471,-2.3867,-2.3519,-2.3186,-2.2797,-2.2324,-2.2555,-2.2775,-2.2301,-2.2555,-2.2888,-2.2888,-2.2888,-2.2888,-2.2888,-2.2888,-2.2733,-2.2206,-2.1818,-2.1366,-2.077,-2.0159,-1.9705,-1.9464,-1.8746,-1.815,-1.7919,-1.7419,-1.7089,-1.7089,-1.6834,-1.6459,-1.5892,-1.5548,-1.5175,-1.4775,-1.4354,-1.4124,-1.4124,-1.4124,-1.4124,-1.4124,-1.4124,-1.4124,-1.4124,-1.4124,-1.428,-0.8671,-0.8965,-0.9336,-0.9995,-1.1003,-1.1694,-1.1186,-1.1516,-1.1913,-1.1908,-1.2025,0.0,0.0,-1.307,0.0,0.0,0.0,0.0,0.0,0.0,0.0,0.0,0.0,0.0,0.0,0.0,0.0,0.0,0.0,0.0,0.0,0.0,0.0,0.0,0.0,0.0,-2.1393,-2.1272,-2.1407,-2.1841,-2.1841,-2.1323,-2.0409,-2.0409,-2.0182,-1.9798,-1.9798,-1.9875,-1.9978,-1.985,-2.0207,-2.0795,-2.0795,-2.1904,-2.3694,-2.5232,-2.6224,-2.6806,-2.6806,-2.6806,-2.6806,-2.6806,-2.6355,-2.5803,-2.5803,-2.5342,-2.4708,-2.4254,-2.3635,-2.2985,-2.2352,-2.2463,-2.2601,-2.2123,-2.2287,-2.2578,-2.2706,-2.2646,-2.2578,-2.2706,-2.2623,-2.2426,-2.2077,-2.1602,-2.1107,-2.069,-2.0097,-1.9674,-1.9584,-1.8754,-1.8094,-1.7876,-1.7171,-1.6638,-1.65,-1.65,-1.625,-1.5705,-1.5304,-1.5085,-1.5085,-1.4979,-1.4896,-1.4896,-1.4896,-1.4896,-1.4896,-1.4896,-1.4896,-1.4896,-1.4896,-1.4979,-0.9452,-0.9503,-0.9352,-1.0382,-1.0359,-1.021,-1.0649,-1.0774,-1.0977,-1.1519,-1.1648,-1.1799,0.0,-1.3692,0.0,0.0,0.0,0.0,0.0,0.0,0.0,0.0,0.0,0.0,0.0,0.0,0.0,0.0,0.0,0.0,0.0,0.0,0.0,0.0,0.0,0.0,-2.1393,-2.0919,-2.0684,-2.0709,-2.0709,-2.0409,-1.985,-1.985,-1.9824,-1.9798,-1.9798,-2.008,-2.051,-2.0003,-2.0421,-2.1345,-2.1345,-2.2703,-2.4775,-2.5531,-2.6224,-2.6806,-2.6806,-2.6806,-2.6806,-2.6806,-2.6355,-2.5803,-2.5803,-2.5342,-2.4795,-2.4752,-2.4312,-2.3594,-2.2465,-2.2231,-2.2123,-2.1575,-2.1489,-2.1647,-2.2147,-2.1874,-2.167,-2.2147,-2.1851,-2.1489,-2.1465,-2.1424,-2.1373,-2.1325,-2.0752,-2.0201,-1.9838,-1.9175,-1.8399,-1.7539,-1.7395,-1.7099,-1.6538,-1.65,-1.6484,-1.6417,-1.594,-1.563,-1.563,-1.516,-1.4896,-1.4896,-1.4896,-1.4896,-1.4896,-1.4896,-1.4896,-1.4896,-1.4896,-1.516,-0.9176,-0.9095,-0.8924,-0.9756,-1.0023,-1.0295,-1.1078,-1.1525,-1.2027,-1.2965,-1.286,-1.2663,0.0,0.0,0.0,0.0,0.0,0.0,0.0,0.0,0.0,0.0,0.0,0.0,0.0,0.0,0.0,0.0,0.0,0.0,0.0,0.0,0.0,0.0,0.0,0.0,0.0,-2.0194,-2.0105,-2.0105,-2.0795,-2.082,-2.0308,-2.0308,-2.0131,-1.9798,-1.9798,-1.9927,-2.0105,-2.0232,-2.0733,-2.1506,-2.2554,-2.3741,-2.4936,-2.556,-2.6224,-2.6806,-2.6806,-2.6553,-2.6233,-2.6233,-2.6062,-2.5863,-2.5863,-2.5942,-2.5803,-2.468,-2.4205,-2.3741,-2.2557,-2.2237,-2.1983,-2.1115,-2.1151,-2.1465,-2.167,-2.1537,-2.1465,-2.167,-2.1551,-2.1296,-2.0968,-2.0894,-2.0795,-2.0472,-2.019,-1.9973,-1.9812,-1.9291,-1.88,-1.8417,-1.779,-1.7322,-1.7074,-1.6722,-1.65,-1.65,-1.63,-1.6208,-1.6208,-1.6007,-1.5894,-1.5894,-1.5894,-1.5894,-1.5894,-1.5894,-1.5894,-1.5894,-1.5894,-1.6007,-0.9,-0.8899,-0.885,-0.9548,-1.0034,-1.0592,-1.1465,-1.1908,-1.2484,-1.3659,-1.3675,-1.3546,-1.3704,0.0,0.0,0.0,0.0,0.0,0.0,0.0,0.0,0.0,0.0,0.0,0.0,0.0,0.0,0.0,0.0,0.0,0.0,0.0,0.0,0.0,0.0,0.0,0.0,-1.9875,-1.9875,-2.0055,-2.0633,-2.0696,-2.0359,-2.0359,-2.0156,-1.9798,-1.9798,-1.9901,-2.0055,-2.0258,-2.0771,-2.153,-2.2847,-2.3856,-2.4622,-2.5049,-2.5649,-2.6245,-2.6245,-2.5961,-2.5633,-2.5633,-2.5633,-2.5563,-2.5396,-2.576,-2.5864,-2.428,-2.382,-2.3518,-2.2386,-2.1893,-2.1516,-2.0784,-2.0746,-2.093,-2.1102,-2.1004,-2.093,-2.1102,-2.1004,-2.0782,-2.0409,-2.0359,-2.0232,-1.985,-1.9798,-1.9798,-1.9798,-1.9497,-1.9183,-1.902,-1.8191,-1.7576,-1.7343,-1.6967,-1.6623,-1.6405,-1.6414,-1.6414,-1.6479,-1.65,-1.65,-1.6479,-1.65,-1.65,-1.65,-1.65,-1.65,-1.65,-1.65,-1.65,-0.9089,-0.9089,-0.928,-1.0004,-1.044,-1.0881,-1.162,-1.1698,-1.197,-1.3241,-1.384,-1.4292,-1.4796,0.0,0.0,0.0,0.0,0.0,0.0,0.0,0.0,0.0,0.0,0.0,0.0,0.0,0.0,0.0,0.0,0.0,0.0,0.0,0.0,0.0,0.0,0.0,0.0,-2.0055,-2.0055,-2.0585,-2.0055,-1.9798,-1.9798,-1.9798,-1.9798,-1.9798,-1.9798,-2.0105,-2.056,-2.0029,-2.0434,-2.1441,-2.1969,-2.2877,-2.3879,-2.3879,-2.4361,-2.5007,-2.5007,-2.5007,-2.4979,-2.4979,-2.4979,-2.487,-2.4273,-2.4473,-2.4667,-2.3586,-2.3186,-2.2839,-2.1847,-2.108,-2.0585,-2.0585,-2.0182,-1.9952,-2.0485,-2.0182,-1.9952,-2.0485,-2.0156,-1.9798,-1.9798,-1.9798,-1.9798,-1.9798,-1.9798,-1.9798,-1.9798,-1.9798,-1.961,-1.9058,-1.8519,-1.7944,-1.7277,-1.7204,-1.6923,-1.6259,-1.6212,-1.6265,-1.6392,-1.6457,-1.6479,-1.6392,-1.6457,-1.65,-1.65,-1.65,-1.65,-1.65,-1.65,-1.65,-0.8645,-0.8769,-0.9056,-0.9465,-0.9882,-1.0289,-1.0592,-1.1455,-1.2497,-1.3677,-1.4625,-1.516,-1.4934,0.0,0.0,0.0,0.0,0.0,0.0,0.0,0.0,0.0,0.0,0.0,0.0,0.0,0.0,0.0,0.0,0.0,0.0,0.0,0.0,0.0,0.0,0.0,0.0,0.0,-1.9875,-2.0029,-1.9875,-1.9798,-1.9798,-1.9798,-1.9798,-1.9798,-1.9798,-1.9901,-2.0055,-2.0258,-2.0771,-2.1417,-2.1575,-2.2364,-2.3408,-2.3408,-2.4095,-2.5007,-2.5007,-2.4709,-2.4379,-2.4379,-2.4379,-2.426,-2.3664,-2.3864,-2.4026,-2.2523,-2.2097,-2.178,-2.0617,-2.0182,-2.0029,-2.0029,-1.9927,-1.985,-2.0003,-1.9901,-1.985,-2.0003,-1.9901,-1.9798,-1.9798,-1.9798,-1.9798,-1.9798,-1.9798,-1.9798,-1.9798,-1.9798,-1.9748,-1.9585,-1.907,-1.8633,-1.8349,-1.7988,-1.7494,-1.6802,-1.6765,-1.6616,-1.6265,-1.6275,-1.6318,-1.6392,-1.634,-1.6362,-1.65,-1.6457,-1.6436,-1.6436,-1.6479,-1.6272,-0.8315,-0.8516,-0.884,-0.9425,-0.9915,-1.036,-1.084,-1.1679,0.0,0.0,-1.4688,-1.5223,-1.5485,0.0,0.0,0.0,0.0,0.0,0.0,0.0,0.0,0.0,0.0,0.0,0.0,0.0,0.0,0.0,0.0,0.0,0.0,0.0,0.0,0.0,0.0,0.0,0.0,0.0,0.0,-1.9798,-1.9798,-1.9798,-1.9798,-1.9798,-1.9798,-1.9798,-1.9798,-1.9798,-1.9824,-2.0156,-2.0597,-2.1091,-2.1091,-2.1666,-2.251,-2.2764,-2.3296,-2.3962,-2.4158,-2.4018,-2.3691,-2.3691,-2.3691,-2.3566,-2.2755,-2.2927,-2.303,-2.1368,-2.1043,-2.099,-2.0041,-1.9974,-2.0087,-1.9861,-1.9798,-1.9798,-1.9798,-1.9798,-1.9798,-1.9798,-1.9798,-1.9773,-1.9734,-1.9734,-1.9734,-1.9734,-1.9734,-1.9708,-1.9656,-1.9682,-1.9708,-1.9656,-1.9458,-1.9133,-1.8684,-1.84,-1.7932,-1.7215,-1.7155,-1.7009,-1.6692,-1.6355,-1.621,-1.6241,-1.621,-1.6253,-1.6371,-1.612,-1.601,-1.601,-1.5854,-1.5611,-0.7994,-0.8202,-0.8612,-0.9662,-1.0288,-1.0858,-1.177,-1.2083,-1.2541,-1.3899,0.0,-1.4712,0.0,0.0,0.0,0.0,0.0,0.0,0.0,0.0,0.0,0.0,0.0,0.0,0.0,0.0,0.0,0.0,0.0,0.0,0.0,0.0,0.0,0.0,0.0,0.0,0.0,0.0,0.0,0.0,-1.9798,-1.9798,-1.9798,-1.9798,-1.9798,-1.9798,-1.9798,-1.9798,-1.9798,-1.9798,-2.008,-2.0535,-2.0535,-2.0861,-2.142,-2.2017,-2.2255,-2.2397,-2.2907,-2.3108,-2.3108,-2.3108,-2.3108,-2.2895,-2.1832,-2.1841,-2.187,-2.0255,-2.0156,-2.0409,-1.9927,-2.0214,-2.049,-1.9973,-1.9874,-1.9861,-1.9811,-1.9798,-1.9798,-1.9798,-1.9798,-1.9734,-1.9604,-1.9591,-1.9591,-1.9591,-1.9591,-1.9539,-1.942,-1.9512,-1.9539,-1.942,-1.9604,-1.9419,-1.8556,-1.857,-1.8337,-1.752,-1.7459,-1.746,-1.7387,-1.6704,-1.6247,-1.6146,-1.6247,-1.6326,-1.6335,-1.5833,-1.5574,-1.5507,-1.5085,-1.4913,-0.7091,-0.7512,-0.8246,-0.9207,-1.0106,-1.0835,-1.1094,-1.1143,-1.1525,-1.29,-1.3831,0.0,0.0,0.0,0.0,0.0,0.0,0.0,0.0,0.0,0.0,0.0,0.0,0.0,0.0,0.0,0.0,0.0,0.0,0.0,0.0,0.0,0.0,0.0,0.0,0.0,-1.9798,-1.9798,-1.9798,0.0,-1.9798,-1.9798,-1.9798,-1.9798,-1.9798,-1.9798,-1.9798,-1.9798,-1.9798,-1.9798,-1.9875,-1.9978,-1.9978,-2.0333,-2.0915,-2.1473,-2.1945,-2.2397,-2.2907,-2.3108,-2.3108,-2.3108,-2.3108,-2.2895,-2.1832,-2.1577,-2.142,-2.0151,-1.9875,-1.9952,-1.9824,-1.9899,-2.0036,-2.0229,-2.0384,-2.0377,-1.9899,-1.9798,-1.9798,-1.9798,-1.9734,-1.963,-1.9617,-1.9512,-1.9447,-1.9447,-1.9447,-1.942,-1.9394,-1.942,-1.942,-1.9394,-1.9447,-1.9371,-1.9052,-1.9052,-1.877,-1.8061,-1.8037,-1.7845,-1.7436,-1.7219,-1.7182,-1.7253,-1.7182,-1.7253,-1.7466,-1.723,-1.6884,-1.6425,-1.6414,-1.5937,-0.6976,-0.7317,-0.7882,-0.9014,-0.9866,-1.0481,-1.0705,-1.0727,-1.0912,-1.1642,0.0,0.0,0.0,0.0,0.0,0.0,0.0,0.0,0.0,0.0,0.0,0.0,0.0,0.0,0.0,0.0,0.0,0.0,0.0,0.0,0.0,0.0,0.0,0.0,0.0,0.0,-1.9798,-1.9798,-1.9798,-1.9798,-1.9798,-1.9798,-1.9798,-1.9798,-1.9798,-1.9798,-1.9798,-1.9798,-1.9798,-1.9798,-1.9798,-1.9798,-1.9798,-1.9987,-2.0377,-2.1207,-2.1506,-2.1681,-2.2732,-2.2932,-2.2757,-2.302,-2.2932,-2.2556,-2.1744,-2.1333,-2.0916,-1.9971,-1.9708,-1.9708,-1.9708,-1.9855,-2.0014,-2.0,-2.0092,-2.0145,-2.0002,-1.979,-1.9617,-1.9617,-1.9539,-1.9486,-1.942,-1.9342,-1.9275,-1.921,-1.9263,-1.9275,-1.921,-1.9263,-1.9275,-1.921,-1.9316,-1.9316,-1.9105,-1.917,-1.9022,-1.8602,-1.8578,-1.8458,-1.8181,-1.8169,-1.7966,-1.7509,-1.7448,-1.746,-1.7605,-1.7314,-1.686,-1.6249,-1.6076,-1.5515,-0.6821,-0.7138,-0.7571,-0.8858,-0.9581,0.0,-1.0429,-1.0532,-1.0563,0.0,0.0,0.0,0.0,0.0,0.0,0.0,0.0,0.0,0.0,0.0,0.0,0.0,0.0,0.0,0.0,0.0,0.0,0.0,0.0,0.0,0.0,0.0,0.0,0.0,0.0,-1.9208,-1.966,-1.9761,-1.9798,-1.9798,-1.9798,-1.9798,-1.9798,-1.9798,-1.9798,-1.9798,-1.9798,-1.9798,-1.9798,-1.9798,-1.9798,-1.9798,-1.9798,-1.9798,-1.9924,-2.0966,-2.1144,-2.1043,-2.2456,-2.2732,-2.2493,-2.2957,-2.2732,-2.2209,-2.1656,-2.1104,-2.0525,-1.9792,-1.9591,-1.9565,-1.9565,-1.9793,-1.9998,-1.9735,-1.9613,-1.9636,-1.9998,-1.9787,-1.9505,-1.9406,-1.9368,-1.9316,-1.9196,-1.917,-1.9117,-1.9025,-1.9078,-1.9117,-1.9013,-1.9105,-1.9117,-1.9013,-1.921,-1.9237,-1.9025,-1.9105,-1.9117,-1.9025,-1.8907,-1.8881,-1.8987,-1.8907,-1.8436,-1.7552,-1.7528,-1.7478,-1.7367,-1.6991,-1.6471,-1.5877,-1.5421,-1.4954,-0.5482,-0.6299,-0.7374,-0.8434,-0.9264,-0.9876,0.0,0.0,-1.0418,0.0,0.0,0.0,0.0,0.0,0.0,0.0,0.0,0.0,0.0,0.0,0.0,0.0,0.0,0.0,0.0,0.0,0.0,0.0,0.0,0.0,0.0,0.0,-1.7664,-1.8292,-1.8757,0.0,-1.9108,-1.9572,-1.9798,-1.9798,-1.9798,-1.9798,-1.9798,-1.9798,-1.9798,-1.9798,-1.9798,-1.9798,-1.9798,-1.9798,-1.9798,-1.9798,-1.9798,-1.9798,-1.9874,-2.0566,-2.1056,-2.1481,-2.2184,-2.2656,-2.3007,-2.3083,-2.2732,-2.2209,-2.1656,-2.1049,-2.0403,-1.9766,-1.9512,-1.942,-1.942,-1.947,-1.9576,-1.9873,-1.959,-1.9287,-1.9466,-1.9812,-1.9959,-1.948,-1.9302,-1.917,-1.9052,-1.9025,-1.9025,-1.8987,-1.9025,-1.9025,-1.8987,-1.9025,-1.9025,-1.8987,-1.9013,-1.904,-1.8987,-1.9025,-1.9025,-1.8987,-1.8509,-1.8456,-1.8987,-1.8509,-1.8143,-1.8005,-1.8005,-1.7752,-1.7236,-1.7153,-1.6823,-1.6238,-1.6153,-1.5825,-0.6148,-0.6683,-0.7318,0.0,-0.875,-0.9206,-0.995,0.0,0.0,0.0,0.0,0.0,0.0,0.0,0.0,0.0,0.0,0.0,0.0,0.0,0.0,0.0,0.0,0.0,0.0,0.0,0.0,0.0,0.0,0.0,0.0,-1.6898,-1.7162,-1.7727,-1.7978,0.0,-1.8995,-1.9221,-1.9459,-1.9682,-1.9682,-1.9656,-1.9591,-1.9591,-1.9656,-1.9798,-1.9798,-1.9798,-1.9798,-1.9798,-1.9798,-1.9798,-1.9798,-1.9759,-1.9744,-2.0384,-2.0466,-2.0484,-2.1662,-2.201,-2.1997,-2.2409,-2.2164,-2.1643,-2.1094,-2.0505,-1.9913,-1.9482,-1.9328,-1.9375,-1.9668,-1.9468,-1.9318,-1.9876,-1.9761,-1.9552,-1.9594,-1.9573,-1.9463,-1.922,-1.9131,-1.9078,-1.9013,-1.8987,-1.8987,-1.8987,-1.8987,-1.8987,-1.8987,-1.8987,-1.8987,-1.8987,-1.8709,-1.8494,-1.8494,-1.8494,-1.8494,-1.8494,-1.8267,-1.8228,-1.8483,-1.7929,-1.7451,-1.709,-1.7765,-1.7781,-1.7202,-1.7202,-1.6894,-1.6312,-1.6312,-1.5979,-0.6673,-0.6897,-0.7084,-0.7999,-0.8432,-0.884,0.0,0.0,0.0,0.0,0.0,0.0,0.0,0.0,0.0,0.0,0.0,0.0,0.0,0.0,0.0,0.0,0.0,0.0,0.0,0.0,0.0,0.0,0.0,0.0,-1.65,-1.6479,-1.6666,-1.7127,-1.7255,-1.7747,-1.8684,-1.8971,-1.9282,-1.9617,-1.9565,-1.9486,-1.9394,-1.9394,-1.9512,-1.9708,-1.9734,-1.9734,-1.9708,-1.9734,-1.9734,-1.9708,-1.9708,-1.963,-1.9588,-2.0035,-2.0029,-1.9983,-2.124,-2.1571,-2.1498,-2.1927,-2.17,-2.1182,-2.0595,-2.0011,-1.9486,-1.9275,-1.9267,-1.9434,-1.9834,-1.9682,-1.9531,-2.0024,-2.0081,-1.9985,-1.9985,-1.9564,-1.9191,-1.9191,-1.9083,-1.8987,-1.8987,-1.8987,-1.8987,-1.8987,-1.8987,-1.8987,-1.8987,-1.8987,-1.8987,-1.8987,-1.8456,-1.8093,-1.8093,-1.7957,-1.7863,-1.7863,-1.7727,-1.7699,-1.7875,-1.7285,-1.6754,-1.6301,-1.7174,-1.7341,-1.6754,-1.6754,-1.65,-1.6083,-1.6083,-1.5825,-0.6104,-0.635,0.0,-0.7488,-0.8504,-0.9177,0.0,0.0,0.0,0.0,0.0,0.0,0.0,0.0,0.0,0.0,0.0,0.0,0.0,0.0,0.0,0.0,0.0,0.0,0.0,0.0,0.0,0.0,0.0,0.0,-1.65,-1.6436,-1.6405,-1.6442,-1.6819,-1.7293,-1.7871,-1.8867,-1.9436,-1.9617,-1.9473,-1.942,-1.9394,-1.9394,-1.942,-1.942,-1.9565,-1.9539,-1.942,-1.9565,-1.9539,-1.942,-1.942,-1.942,-1.942,-1.9457,-2.0069,-2.0929,-2.1027,-2.1743,-2.2518,-2.2068,-2.1613,-2.1141,-2.0446,-1.9851,-1.9368,-1.9249,-1.9468,-1.9772,-1.9796,-2.0153,-2.0538,-2.0562,-2.0574,-2.0574,-2.0574,-2.0141,-1.9772,-1.9772,-1.9363,-1.8987,-1.8987,-1.8987,-1.8987,-1.8987,-1.8987,-1.8987,-1.8987,-1.8987,-1.8987,-1.8987,-1.8456,-1.8093,-1.8093,-1.7589,-1.7257,-1.7257,-1.6698,-1.6641,-1.723,-1.6669,-1.633,-1.6312,-1.6358,-1.6112,-1.5497,-1.5497,-1.5468,-1.5439,-1.5439,-1.5439,-0.589,0.0,0.0,-0.7221,-0.8219,-0.9121,0.0,0.0,0.0,0.0,0.0,0.0,0.0,0.0,0.0,0.0,0.0,0.0,0.0,0.0,0.0,0.0,0.0,0.0,0.0,0.0,0.0,0.0,0.0,0.0,-1.6318,-1.6383,-1.6362,-1.6275,-1.6406,-1.6718,-1.7205,-1.8323,-1.8858,-1.8762,-1.9105,-1.9223,-1.9146,-1.9146,-1.9146,-1.9158,-1.9302,-1.9368,-1.9394,-1.9447,-1.9447,-1.9394,-1.9394,-1.9342,-1.9312,-1.9665,-1.9964,-2.0334,-2.1008,-2.1504,-2.1777,-2.1348,-2.11,-2.0799,-1.9863,-1.9422,-1.9322,-1.9528,-1.9691,-1.9965,-2.0634,-2.0718,-2.061,-2.0586,-2.0863,-2.1115,-2.1115,-2.0959,-2.0718,-2.0382,-2.0165,-2.0021,-2.0037,-2.0021,-2.0033,-2.0033,-2.0033,-2.0033,-2.0033,-2.0033,-1.9853,-1.9365,-1.8821,-1.8195,-1.7464,-1.7211,-1.694,-1.6634,-1.6415,-1.6397,-1.6613,-1.6054,-1.5719,-1.5719,-1.5719,-1.5613,-1.541,-1.541,-1.541,-1.541,-1.541,-1.541,-0.5803,0.0,0.0,0.0,0.0,-0.8887,0.0,0.0,0.0,0.0,0.0,0.0,0.0,0.0,0.0,0.0,0.0,0.0,0.0,0.0,0.0,0.0,0.0,0.0,0.0,0.0,0.0,0.0,0.0,0.0,-1.62,-1.6253,-1.6197,-1.6069,-1.6239,-1.6426,-1.6617,-1.7857,-1.8348,-1.8104,-1.8809,-1.909,-1.8987,-1.8987,-1.8987,-1.8987,-1.9078,-1.9184,-1.9263,-1.9316,-1.9316,-1.9263,-1.9263,-1.921,-1.9192,-1.9531,-1.9839,-2.0165,-2.0875,-2.1368,-2.1578,-2.0955,-2.077,-2.0592,-1.9458,-1.9303,-1.9509,-1.9739,-2.0073,-2.049,-2.1211,-2.1272,-2.1139,-2.1157,-2.1404,-2.1668,-2.1668,-2.1536,-2.1296,-2.0947,-2.073,-2.0586,-2.0603,-2.0598,-2.061,-2.0598,-2.061,-2.0581,-2.0581,-2.0581,-2.0309,-1.9572,-1.9007,-1.8274,-1.7294,-1.7032,-1.6789,-1.6445,-1.6424,-1.6353,-1.6231,-1.5861,-1.5557,-1.541,-1.541,-1.541,-1.541,-1.541,-1.541,-1.541,-1.541,-1.541,0.0,0.0,0.0,0.0,0.0,0.0,0.0,0.0,0.0,0.0,0.0,0.0,0.0,0.0,0.0,0.0,0.0,0.0,0.0,0.0,0.0,0.0,0.0,0.0,0.0,0.0,0.0,0.0,0.0,-1.6188,-1.62,-1.6066,-1.5935,-1.5792,-1.6307,-1.6408,-1.6068,-1.7455,-1.7979,-1.7683,-1.8553,-1.8975,-1.8987,-1.8987,-1.8987,-1.8987,-1.8987,-1.8987,-1.9013,-1.9143,-1.9117,-1.8987,-1.8987,-1.8987,-1.8999,-1.9035,-1.9708,-2.0581,-2.0651,-2.1337,-2.2017,-2.0959,-2.0696,-2.0564,-1.939,-1.9465,-1.997,-1.9872,-2.0586,-2.1404,-2.1416,-2.1813,-2.2197,-2.2197,-2.2197,-2.2197,-2.2197,-2.1789,-2.1428,-2.1428,-2.0983,-2.0639,-2.0639,-2.0646,-2.0658,-2.0651,-2.0646,-2.0658,-2.0658,-2.0629,-2.0328,-1.9618,-1.9021,-1.8416,-1.7668,-1.7053,-1.6716,-1.6697,-1.6697,-1.6502,-1.6134,-1.6114,-1.5909,-1.5439,-1.543,-1.542,-1.541,-1.541,-1.541,-1.541,-1.541,-1.541,-0.5937,0.0,0.0,0.0,0.0,0.0,0.0,0.0,0.0,0.0,0.0,0.0,0.0,0.0,0.0,0.0,0.0,0.0,0.0,0.0,0.0,0.0,0.0,0.0,0.0,0.0,0.0,0.0,0.0,-1.6001,-1.5925,-1.5881,-1.5836,-1.5792,-1.5936,-1.5787,-1.5304,-1.6467,-1.6994,-1.6927,-1.7951,-1.8614,-1.8987,-1.8987,-1.8987,-1.8987,-1.8987,-1.8987,-1.8987,-1.9052,-1.9013,-1.8987,-1.8987,-1.8987,-1.9083,-1.9877,-2.0358,-2.0701,-2.1488,-2.1933,-2.2017,-2.0959,-2.0627,-2.0511,-1.9796,-1.9727,-2.0004,-2.073,-2.1175,-2.1488,-2.1873,-2.2089,-2.2197,-2.2197,-2.2197,-2.2197,-2.2197,-2.2077,-2.1969,-2.1969,-2.1849,-2.1771,-2.1771,-2.1753,-2.1753,-2.1771,-2.1753,-2.1765,-2.1765,-2.1301,-2.0691,-2.002,-1.9319,-1.8515,-1.7541,-1.7295,-1.707,-1.6716,-1.6697,-1.6648,-1.6553,-1.6512,-1.6338,-1.5919,-1.5919,-1.5723,-1.541,-1.541,-1.541,-1.541,-1.541,-1.541,-0.622,0.0,0.0,0.0,0.0,0.0,0.0,0.0,0.0,0.0,0.0,0.0,0.0,0.0,0.0,0.0,0.0,0.0,0.0,0.0,0.0,0.0,0.0,0.0,0.0,0.0,0.0,0.0,-1.5869,-1.5869,-1.5792,-1.5792,-1.5792,-1.5792,-1.5792,-1.5564,-1.5039,-1.608,-1.649,-1.6322,-1.7598,-1.8362,-1.8662,-1.8891,-1.8987,-1.8987,-1.8987,-1.8987,-1.8987,-1.8987,-1.8987,-1.8987,-1.8987,-1.8987,-1.9071,-1.9708,-2.0225,-2.0706,-2.132,-2.168,-2.1728,-2.0887,-2.0442,-2.0205,-1.9904,-1.9965,-2.031,-2.1163,-2.156,-2.1813,-2.2113,-2.2197,-2.2197,-2.2197,-2.2197,-2.2197,-2.2197,-2.2197,-2.2197,-2.2197,-2.2197,-2.2197,-2.2197,-2.2197,-2.2197,-2.2197,-2.1925,-2.1726,-2.1726,-2.1135,-2.042,-1.9737,-1.9276,-1.8619,-1.7733,-1.7646,-1.7539,-1.7243,-1.7233,-1.7155,-1.7012,-1.7002,-1.6797,-1.6357,-1.6193,-1.588,-1.541,-1.541,-1.541,-1.541,-1.541,-1.541,-0.6592,-0.6842,0.0,0.0,0.0,0.0,-0.8868,-0.886,0.0,0.0,0.0,0.0,0.0,0.0,0.0,0.0,0.0,0.0,0.0,0.0,0.0,0.0,0.0,0.0,0.0,0.0,0.0,-1.5814,-1.5792,-1.5792,-1.5792,-1.5792,-1.5792,-1.5792,-1.5792,-1.5558,-1.5108,-1.6042,-1.6302,-1.5925,-1.7406,-1.8145,-1.8217,-1.8746,-1.8987,-1.8987,-1.8987,-1.8987,-1.8987,-1.8987,-1.8987,-1.8987,-1.8987,-1.8987,-1.8999,-1.9086,-1.9732,-2.0593,-2.0653,-2.1007,-2.132,-2.0762,-2.0237,-1.982,-1.988,-2.0213,-2.0713,-2.132,-2.1825,-2.2197,-2.2197,-2.2197,-2.2197,-2.2197,-2.2197,-2.2197,-2.2197,-2.2197,-2.2197,-2.2197,-2.2197,-2.2154,-2.2092,-2.2092,-2.2092,-2.2092,-2.1463,-2.1028,-2.1092,-2.0452,-1.9737,-1.9077,-1.8944,-1.8654,-1.8042,-1.8008,-1.8008,-1.8008,-1.8008,-1.7842,-1.7471,-1.7484,-1.7246,-1.6785,-1.6318,-1.5869,-1.5449,-1.541,-1.541,-1.541,-1.5391,-1.5391,-0.7048,-0.7453,-0.79,0.0,0.0,0.0,0.0,-0.8664,0.0,0.0,0.0,0.0,0.0,0.0,0.0,0.0,0.0,0.0,0.0,0.0,0.0,0.0,0.0,0.0,0.0,0.0,-1.5336,-1.5768,-1.5792,-1.5792,-1.5792,-1.5792,-1.5792,-1.5792,-1.5792,-1.5558,-1.5108,-1.5664,-1.5947,-1.5913,-1.7013,-1.7796,-1.8217,-1.8746,-1.8987,-1.8987,-1.8987,-1.8987,-1.8987,-1.8987,-1.8987,-1.8987,-1.8987,-1.8987,-1.9047,-1.9468,-2.0045,-2.0653,-2.1103,-2.132,-2.132,-2.0762,-2.0237,-1.988,-2.0314,-2.0514,-2.0815,-2.1765,-2.2113,-2.2197,-2.2197,-2.2197,-2.2197,-2.2197,-2.2197,-2.2197,-2.2197,-2.2197,-2.2197,-2.2197,-2.2197,-2.203,-2.1431,-2.1325,-2.1325,-2.1325,-2.0741,-2.0484,-2.1028,-1.9987,-1.9177,-1.9011,-1.8529,-1.8134,-1.8008,-1.8008,-1.8008,-1.8008,-1.8008,-1.7978,-1.7891,-1.7891,-1.7686,-1.7266,-1.6506,-1.5995,-1.5726,-1.5497,-1.541,-1.541,-1.5284,-1.5235,-0.7499,-0.7668,-0.7942,-0.7909,0.0,0.0,0.0,0.0,0.0,0.0,0.0,0.0,0.0,0.0,0.0,0.0,0.0,0.0,0.0,0.0,0.0,0.0,0.0,0.0,0.0,0.0,-1.5229,-1.5756,-1.5792,-1.5792,-1.5792,-1.5792,-1.5792,-1.5792,-1.5792,-1.5681,-1.5446,-1.5681,-1.5812,-1.5868,-1.6908,-1.7531,-1.7845,-1.8626,-1.8987,-1.8987,-1.8987,-1.8987,-1.8987,-1.8987,-1.8987,-1.8987,-1.8987,-1.8987,-1.9023,-1.9287,-1.9901,-2.0586,-2.0586,-2.0779,-2.0923,-2.0382,-1.9829,-1.9567,-2.0362,-2.0988,-2.1512,-2.2041,-2.2197,-2.2197,-2.2197,-2.2197,-2.2197,-2.2197,-2.2197,-2.2197,-2.2197,-2.2197,-2.2092,-2.1726,-2.1663,-2.1526,-2.1167,-2.1092,-2.0996,-2.0645,-1.9998,-1.9661,-2.002,-1.9144,-1.8496,-1.8496,-1.8202,-1.8008,-1.8008,-1.8008,-1.8008,-1.8008,-1.8008,-1.8008,-1.8008,-1.8008,-1.7812,-1.7425,-1.687,-1.6348,-1.58,-1.567,-1.5487,-1.5313,-1.5235,-1.5215,0.0,0.0,0.0,0.0,0.0,-0.8752,0.0,0.0,0.0,0.0,0.0,0.0,0.0,0.0,0.0,0.0,0.0,0.0,0.0,0.0,0.0,0.0,0.0,0.0,0.0,0.0,-1.4938,-1.5478,-1.5514,-1.555,-1.5636,-1.5732,-1.5792,-1.5792,-1.5792,-1.5792,-1.5792,-1.5792,-1.5792,-1.5804,-1.6787,-1.7291,-1.7423,-1.8398,-1.8891,-1.8987,-1.8987,-1.8987,-1.8987,-1.8987,-1.8987,-1.8987,-1.8987,-1.8987,-1.8999,-1.9134,-1.9712,-2.037,-1.9933,-1.9984,-2.0199,-1.9773,-1.947,-1.9468,-2.035,-2.1361,-2.2197,-2.2197,-2.2197,-2.2197,-2.2197,-2.2197,-2.2197,-2.2197,-2.2197,-2.2197,-2.2197,-2.2197,-2.1987,-2.123,-2.1092,-2.0996,-2.0741,-2.0709,-2.0516,-1.9966,-1.9276,-1.8844,-1.8977,-1.8395,-1.8008,-1.8008,-1.8008,-1.8008,-1.8008,-1.8008,-1.7974,-1.794,-1.794,-1.794,-1.7906,-1.7906,-1.775,-1.7444,-1.7172,-1.6689,-1.5947,-1.5902,-1.5635,-1.5156,-1.5156,-1.5156,0.0,0.0,0.0,0.0,-0.8678,0.0,0.0,0.0,0.0,0.0,0.0,0.0,0.0,0.0,0.0,0.0,0.0,0.0,0.0,0.0,0.0,0.0,0.0,0.0,0.0,0.0,0.0,-1.4434,-1.447,-1.4654,-1.5073,-1.554,-1.5792,-1.5792,-1.5792,-1.5792,-1.5792,-1.5792,-1.5792,-1.5804,-1.6415,-1.6931,-1.7411,-1.8025,-1.8554,-1.8987,-1.8987,-1.8987,-1.8987,-1.8987,-1.8987,-1.8987,-1.8987,-1.8987,-1.9047,-1.9516,-1.9796,-1.9869,-1.9732,-1.9431,-1.9073,-1.9015,-1.9623,-2.0454,-2.0574,-2.1356,-2.2197,-2.2197,-2.2197,-2.2197,-2.2197,-2.2197,-2.2197,-2.2197,-2.2197,-2.2197,-2.2197,-2.2197,-2.1987,-2.123,-2.1092,-2.0698,-1.9464,-1.9233,-1.9199,-1.9144,-1.8563,-1.8337,-1.8911,-1.8395,-1.8008,-1.8008,-1.8008,-1.8008,-1.8008,-1.8008,-1.794,-1.774,-1.774,-1.7681,-1.7573,-1.7573,-1.7554,-1.7507,-1.7068,-1.6722,-1.6529,-1.627,-1.5747,-1.5029,-1.5029,-1.4941,0.0,0.0,0.0,0.0,0.0,0.0,0.0,0.0,-0.8667,0.0,0.0,0.0,0.0,0.0,0.0,0.0,0.0,0.0,0.0,0.0,0.0,0.0,0.0,0.0,0.0,0.0,0.0,0.0,0.0,-1.4185,-1.4965,-1.5217,-1.548,-1.578,-1.5792,-1.5792,-1.5792,-1.5792,-1.5792,-1.5804,-1.6355,-1.6883,-1.7436,-1.7965,-1.8494,-1.8987,-1.8987,-1.8987,-1.8987,-1.8987,-1.8789,-1.8483,-1.8483,-1.8682,-1.9011,-1.9239,-1.9516,-1.9741,-1.9408,-1.9114,-1.8907,-1.8907,-1.9665,-2.0646,-2.0971,-2.1596,-2.2197,-2.2197,-2.2197,-2.2197,-2.2197,-2.2197,-2.2197,-2.2197,-2.2197,-2.2197,-2.2197,-2.1851,-2.1368,-2.0656,-2.015,-1.9562,-1.8596,-1.8754,-1.8877,-1.8496,-1.8168,-1.811,-1.8395,-1.8168,-1.8008,-1.8008,-1.8008,-1.8008,-1.8008,-1.7896,-1.7784,-1.7706,-1.7613,-1.7564,-1.7505,-1.7505,-1.7505,-1.7505,-1.7179,-1.6904,-1.6603,-1.6459,-1.6034,-1.5402,-1.5261,-1.5119,-0.9443,0.0,0.0,0.0,0.0,0.0,0.0,0.0,0.0,0.0,0.0,0.0,0.0,0.0,0.0,0.0,0.0,0.0,0.0,0.0,0.0,0.0,0.0,0.0,0.0,0.0,0.0,0.0,0.0,0.0,-1.4746,-1.4929,-1.5253,-1.578,-1.5792,-1.5792,-1.5792,-1.5792,-1.5748,-1.5614,-1.613,-1.6669,-1.7228,-1.7734,-1.835,-1.8987,-1.8987,-1.8987,-1.8987,-1.8987,-1.8735,-1.8348,-1.8348,-1.8602,-1.9011,-1.8982,-1.9239,-1.9528,-1.9114,-1.8846,-1.8667,-1.8635,-1.9367,-2.0369,-2.0704,-2.119,-2.1632,-2.1632,-2.1632,-2.1663,-2.1862,-2.1894,-2.1894,-2.1894,-2.2061,-2.2123,-2.1956,-2.1494,-2.0901,-2.0226,-1.9507,-1.8787,-1.811,-1.8395,-1.8563,-1.8076,-1.8008,-1.8008,-1.8008,-1.794,-1.794,-1.794,-1.7872,-1.7872,-1.7872,-1.7725,-1.7613,-1.7569,-1.7417,-1.7332,-1.7332,-1.7332,-1.7332,-1.7332,-1.7176,-1.6958,-1.6671,-1.6628,-1.6403,-1.601,-1.5632,-1.539,0.0,0.0,0.0,0.0,0.0,0.0,0.0,0.0,-0.8279,0.0,0.0,0.0,0.0,0.0,0.0,0.0,0.0,0.0,0.0,0.0,0.0,0.0,0.0,0.0,0.0,0.0,0.0,0.0,0.0,0.0,-1.4229,-1.4746,-1.5253,-1.578,-1.5792,-1.5792,-1.5792,-1.5792,-1.5558,-1.5131,-1.5604,-1.6148,-1.6736,-1.7204,-1.8001,-1.8987,-1.8987,-1.8987,-1.8987,-1.8987,-1.8987,-1.896,-1.896,-1.8987,-1.8994,-1.8934,-1.8955,-1.9003,-1.8918,-1.8573,-1.8114,-1.797,-1.8672,-1.9504,-1.9388,-1.9746,-2.0172,-2.0172,-2.0172,-2.0323,-2.0976,-2.1135,-2.1135,-2.1135,-2.1694,-2.1987,-2.1293,-2.1135,-2.0901,-2.0226,-1.9507,-1.8787,-1.811,-1.8008,-1.8008,-1.8008,-1.8008,-1.8008,-1.8008,-1.7828,-1.7706,-1.7706,-1.7588,-1.7505,-1.7505,-1.7505,-1.7426,-1.7235,-1.7038,-1.6908,-1.6908,-1.6908,-1.6908,-1.6908,-1.6908,-1.6899,-1.689,-1.689,-1.6881,-1.6853,-1.6178,-1.5595,0.0,0.0,-1.0137,-0.9542,0.0,0.0,0.0,0.0,0.0,0.0,0.0,0.0,0.0,0.0,0.0,0.0,0.0,0.0,0.0,0.0,0.0,0.0,0.0,0.0,0.0,0.0,0.0,0.0,0.0,0.0,0.0,-1.4257,-1.4766,-1.5265,-1.5612,-1.5659,-1.5334,-1.5334,-1.5266,-1.5108,-1.5266,-1.5975,-1.7168,-1.7339,-1.7989,-1.8987,-1.8987,-1.8987,-1.8987,-1.8987,-1.8536,-1.7847,-1.8267,-1.8147,-1.7886,-1.8682,-1.897,-1.8878,-1.8056,-1.8115,-1.8481,-1.8005,-1.854,-1.9419,-1.9746,-1.9976,-2.0096,-2.0096,-2.0096,-2.0161,-2.0387,-2.0452,-2.0452,-2.0452,-2.0624,-2.0752,-2.0484,-2.0053,-1.9628,-1.9408,-1.8821,-1.8269,-1.8042,-1.7896,-1.7784,-1.7784,-1.7784,-1.7759,-1.7676,-1.7691,-1.7681,-1.7588,-1.7529,-1.7505,-1.7505,-1.7392,-1.721,-1.7003,-1.6934,-1.6908,-1.6908,-1.6908,-1.6908,-1.6908,-1.6908,-1.6908,-1.6908,-1.6908,-1.6908,-1.6899,-1.6658,-1.6171,-1.0303,-1.0303,0.0,0.0,-0.9523,0.0,0.0,0.0,0.0,0.0,0.0,0.0,0.0,0.0,0.0,0.0,0.0,0.0,0.0,0.0,0.0,0.0,0.0,0.0,0.0,0.0,-1.003,-1.1074,-1.0941,0.0,0.0,0.0,-1.4522,-1.4989,-1.5516,-1.5647,-1.5356,-1.5176,-1.5108,-1.5108,-1.5108,-1.5823,-1.7168,-1.7314,-1.7989,-1.8987,-1.8987,-1.8881,-1.8709,-1.8907,-1.8282,-1.7257,-1.7875,-1.7727,-1.7313,-1.8321,-1.8682,-1.8572,-1.7734,-1.7888,-1.842,-1.809,-1.8428,-1.9009,-1.9271,-1.9353,-1.9353,-1.9353,-1.9309,-1.9299,-1.9639,-1.9671,-1.9639,-1.9704,-1.9901,-2.0042,-1.977,-1.9342,-1.9011,-1.9011,-1.8462,-1.7974,-1.7896,-1.7759,-1.7647,-1.7672,-1.7647,-1.7588,-1.7505,-1.752,-1.7476,-1.7392,-1.7323,-1.7298,-1.7298,-1.7185,-1.7038,-1.6908,-1.6908,-1.6908,-1.6908,-1.6908,-1.6908,-1.6908,-1.6908,-1.6908,-1.6908,-1.6908,-1.6908,-1.6908,-1.6621,-1.6158]},{"header":{"parameterUnit":"m.s-1","parameterCategory":1,"la1":30.6,"la2":29.2853,"lo1":-89.7004,"lo2":-87.6739,"dy":0.0162,"dx":0.0183,"nx":112,"ny":82,"refTime":"2026-03-24T12:00:00:Z","depth":0,"parameterNumber":3,"parameterNumberName":"V-component_of_WINDS"},"data":[0.0,0.0,0.0,0.0,0.0,0.0,0.0,0.0,0.0,0.0,0.0,0.0,0.0,0.0,0.0,0.0,0.0,0.0,0.0,0.0,0.0,0.0,0.0,0.0,0.0,0.0,0.0,0.0,0.0,0.0,0.0,0.0,0.0,0.0,0.0,0.0,0.0,0.0,0.0,0.0,0.0,0.0,0.0,0.0,0.0,0.0,0.0,0.0,0.0,0.0,0.0,0.0,0.0,0.0,0.0,0.0,0.0,0.0,0.0,0.0,0.0,0.0,0.0,0.0,0.0,0.0,0.0,0.0,0.0,0.0,0.0,0.0,0.0,0.0,0.0,0.0,0.0,0.0,0.0,0.0,0.0,0.0,0.0,0.0,0.0,0.0,0.0,0.0,0.0,0.0,0.0,0.4718,0.5505,0.5998,0.6043,0.6357,0.6128,0.5125,0.0,0.0,0.0,0.0,0.0,0.0,0.0,0.0,0.0,0.0,0.0,0.0,0.0,0.0,0.0,0.0,0.0,0.0,0.0,0.0,0.0,0.0,0.0,0.0,0.0,0.0,0.0,0.0,0.0,0.0,0.0,0.0,0.0,0.0,0.0,0.0,0.0,0.0,0.0,0.0,0.0,0.0,0.0,0.0,0.0,0.0,0.0,0.0,0.0,0.0,0.0,0.0,0.0,0.0,0.0,0.0,0.0,0.0,0.0,0.0,0.0,0.0,0.0,0.0,0.0,0.0,0.0,0.0,0.0,0.0,0.0,0.0,0.0,0.0,0.0,0.0,0.0,0.0,0.0,0.0,0.0,0.0,0.0,0.0,0.0,0.0,0.0,0.0,0.0,0.0,0.0,0.0,0.0,0.0,0.0,0.0,0.0,0.0,0.0,0.0,0.0,0.0,0.0,0.0,0.4401,0.5503,0.5793,0.6011,0.6236,0.6617,0.6531,0.5788,0.0,0.0,0.0,0.0,0.0,0.0,0.0,0.0,0.0,0.0,0.0,0.0,0.0,0.0,0.0,0.0,0.0,0.0,0.0,0.0,0.0,0.0,0.0,0.0,0.0,0.0,0.0,0.0,0.0,0.0,0.0,0.0,0.0,0.0,0.0,0.0,0.0,0.0,0.0,0.0,0.0,0.0,0.0,0.0,0.0,0.0,0.0,0.0,0.0,0.0,0.0,0.0,0.0,0.0,0.0,0.0,0.0,0.0,0.0,0.0,0.0,0.0,0.0,0.0,0.0,0.0,0.0,0.0,0.0,0.0,0.0,0.0,0.0,0.0,0.0,0.0,0.0,0.0,0.0,0.0,0.0,0.0,0.0,0.0,0.0,0.0,0.0,0.0,0.0,0.0,0.0,0.0,0.0,0.0,0.0,0.0,0.0,0.0,0.0,0.0,0.0,0.0,0.0,0.4515,0.4905,0.5716,0.5993,0.6198,0.6401,0.6676,0.6464,0.5573,0.5427,0.0,0.0,0.0,0.0,0.0,0.0,0.0,0.0,0.0,0.0,0.0,0.0,0.0,0.0,0.0,0.0,0.0,0.0,0.0,0.0,0.0,0.0,0.0,0.0,0.0,0.0,0.0,0.0,0.0,0.0,0.0,0.0,0.0,0.0,0.0,0.0,0.0,0.0,0.0,0.0,0.0,0.0,0.0,0.0,0.0,0.0,0.0,0.0,0.0,0.0,0.0,0.0,0.0,0.0,0.0,0.0,0.0,0.0,0.0,0.0,0.0,0.0,0.0,0.0,0.0,0.0,0.0,0.0,0.0,0.0,0.0,0.0,0.0,0.0,0.0,0.0,0.0,0.0,0.0,0.0,0.0,0.0,0.0,0.0,0.0,0.0,0.0,0.0,0.0,0.0,0.0,0.0,0.0,0.0,0.0,0.0,0.0,0.0,0.0,0.0,0.0,0.0,0.5065,0.5478,0.585,0.6138,0.6343,0.6441,0.6693,0.6443,0.5495,0.5566,0.0,0.0,0.0,0.0,0.0,0.0,0.0,0.0,0.0,0.0,0.0,0.0,0.0,0.0,0.0,0.0,0.0,0.0,0.0,0.0,0.0,0.0,0.0,0.0,0.0,0.0,0.0,0.0,0.0,0.0,0.0,0.0,0.0,0.0,0.0,0.0,0.0,0.0,0.0,0.0,0.0,0.0,0.0,0.0,0.0,0.0,0.0,0.0,0.0,0.0,0.0,0.0,0.0,0.0,0.0,0.0,0.0,0.0,0.0,0.0,0.0,0.0,0.0,0.0,0.0,0.0,0.0,0.0,0.0,0.0,0.0,0.0,0.0,0.0,0.0,0.0,0.0,0.0,0.0,0.0,0.0,0.0,0.0,0.0,0.0,0.0,0.0,0.0,0.0,0.0,0.0,0.0,0.0,0.0,0.0,0.0,0.0,0.0,0.0,0.0,0.0,0.0,0.5326,0.607,0.6165,0.6251,0.6305,0.6304,0.6727,0.6735,0.6165,0.5908,0.0,0.0,0.0,0.0,0.0,0.0,0.0,0.0,0.0,0.0,0.0,0.0,0.0,0.0,0.0,0.0,0.0,0.0,0.0,0.0,0.0,0.0,0.0,0.0,0.0,0.0,0.0,0.0,0.0,0.0,0.0,0.0,0.0,0.0,0.0,0.0,0.0,0.0,0.0,0.0,0.0,0.0,0.0,0.0,0.0,0.0,0.0,0.0,0.0,0.0,0.0,0.0,0.0,0.0,0.0,0.0,0.0,0.0,0.0,0.0,0.0,0.0,0.0,0.0,0.0,0.0,0.0,0.0,0.0,0.0,0.0,0.0,0.0,0.0,0.0,0.0,0.0,0.0,0.0,0.0,0.0,0.0,0.0,0.0,0.0,0.0,0.0,0.0,0.0,0.0,0.0,0.0,0.0,0.0,0.0,0.0,0.0,0.0,0.0,0.0,0.0,0.0,0.5143,0.5847,0.0,0.6266,0.6372,0.6535,0.6786,0.6607,0.5812,0.0,0.0,0.0,0.0,0.0,0.0,0.0,0.0,0.0,0.0,0.0,0.0,0.0,0.0,0.0,0.0,0.0,0.0,0.0,0.0,0.0,0.0,0.0,0.0,0.0,0.0,0.0,0.0,0.0,0.0,0.0,0.0,0.0,0.0,0.0,0.0,0.0,0.0,0.0,0.0,0.0,0.0,0.0,0.0,0.0,0.0,0.0,0.0,0.0,0.0,0.0,0.0,0.0,0.0,0.0,0.0,0.0,0.0,0.0,0.0,0.0,0.0,0.0,0.0,0.0,0.0,0.0,0.0,0.0,0.0,0.0,0.0,0.0,0.0,0.0,0.0,0.0,0.0,0.0,0.0,0.0,0.0,0.0,0.0,0.0,0.0,0.0,0.0,0.0,0.0,0.0,0.0,0.0,0.0,0.0,0.0,0.0,0.0,0.0,0.0,0.0,0.0,0.419,0.5132,0.585,0.0,0.6082,0.6123,0.6299,0.6339,0.6108,0.5512,0.0,0.0,0.0,0.0,0.0,0.0,0.0,0.0,0.0,0.0,0.0,0.0,0.0,0.0,0.0,0.0,0.0,0.0,0.0,0.0,0.0,0.0,0.0,0.0,0.0,0.0,0.0,0.0,0.0,0.0,0.0,0.0,0.0,0.0,0.0,0.0,0.0,0.0,0.0,0.0,0.0,0.0,0.0,0.0,0.0,0.0,0.0,0.0,0.0,0.0,0.0,0.0,0.0,0.0,0.0,0.0,0.0,0.0,0.0,0.0,0.0,0.0,0.0,0.0,0.0,0.0,0.0,0.0,0.0,0.0,0.0,0.0,0.0,0.0,0.0,0.0,0.0,0.0,0.0,0.0,0.0,0.0,0.0,0.0,0.0,0.0,0.0,0.0,0.0,0.0,0.0,0.0,0.0,0.0,0.0,0.0,0.0,0.0,0.0,0.0,0.0,0.0,0.4124,0.5388,0.6213,0.6016,0.5693,0.55,0.5496,0.531,0.5251,0.0,0.0,0.0,0.0,0.0,0.0,0.0,0.0,0.0,0.0,0.0,0.0,0.0,0.0,0.0,0.0,0.0,0.0,0.0,0.0,0.0,0.0,0.0,0.0,0.0,0.0,0.0,0.0,0.0,0.0,0.0,0.0,0.0,0.0,0.0,0.0,0.0,0.0,0.0,0.0,0.0,0.0,0.0,0.0,0.0,0.0,0.0,0.0,0.0,0.0,0.0,0.0,0.0,0.0,0.0,0.0,0.0,0.0,0.0,0.0,0.0,0.0,0.0,0.0,0.0,0.0,0.0,0.0,0.0,0.0,0.0,0.0,0.0,0.0,0.0,0.0,0.0,0.0,0.0,0.0,0.0,0.0,0.0,0.0,0.0,0.0,0.0,0.0,0.0,0.0,0.0,0.0,0.0,0.0,0.0,0.0,0.0,0.0,0.0,0.0,0.0,0.0,0.0,0.4262,0.5105,0.5666,0.5647,0.5553,0.541,0.5167,0.5138,0.5002,0.4713,0.0,0.0,0.0,0.0,0.0,0.0,0.0,0.0,0.0,0.0,0.0,0.0,0.0,0.0,0.0,0.0,0.0,0.0,0.0,0.0,0.0,0.0,0.0,0.0,0.0,0.0,0.0,0.0,0.0,0.0,0.0,0.0,0.0,0.0,0.0,0.0,0.0,0.0,0.0,0.0,0.0,0.0,0.0,0.0,0.0,0.0,0.0,0.0,0.0,0.0,0.0,0.0,0.0,0.0,0.0,0.0,0.0,0.0,0.0,0.0,0.0,0.0,0.0,0.0,0.0,0.0,0.0,0.0,0.0,0.0,0.0,0.0,0.0,0.0,0.0,0.0,0.0,0.0,0.0,0.0,0.0,0.0,0.0,0.0,0.0,0.0,0.0,0.0,0.0,0.0,0.0,0.0,0.0,0.0,0.0,0.0,0.0,0.0,0.0,0.0,0.0,0.0,0.4471,0.507,0.5505,0.5681,0.541,0.5212,0.5201,0.4701,0.438,0.4359,0.0,0.0,0.0,0.0,0.0,0.0,0.0,0.0,0.0,0.0,0.0,0.0,0.0,0.0,0.0,0.0,0.0,0.0,0.0,0.0,0.0,0.0,0.0,0.0,0.0,0.0,0.0,0.0,0.0,0.0,0.0,0.0,0.0,0.0,0.0,0.0,0.0,0.0,0.0,0.0,0.0,0.0,0.0,0.0,0.0,0.0,0.0,0.0,0.0,0.0,0.0,0.0,0.0,0.0,0.0,0.0,0.0,0.0,0.0,0.0,0.0,0.0,0.0,0.0,0.0,0.0,0.0,0.0,0.0,0.0,0.0,0.0,0.0,0.0,0.0,0.0,0.0,0.0,0.0,0.0,0.0,0.0,0.0,0.0,0.0,0.0,0.0,0.0,0.0,0.0,0.0,0.0,0.0,0.0,0.0,0.0,0.0,0.0,0.0,0.0,0.0,0.0,0.4728,0.5217,0.5607,0.5919,0.5301,0.4997,0.5329,0.4131,0.3612,0.417,0.0,0.0,0.0,0.0,0.0,0.0,0.0,0.0,0.0,0.0,0.0,0.0,0.0,0.0,0.0,0.0,0.0,0.0,0.0,0.0,0.0,0.0,0.0,0.0,0.0,0.0,0.0,0.0,0.0,0.0,0.0,0.0,0.0,0.0,0.0,0.0,0.0,0.0,0.0,0.0,0.0,0.0,0.0,0.0,0.0,0.0,0.0,0.0,0.0,0.0,0.0,0.0,0.0,0.0,0.0,0.0,0.0,0.0,0.0,0.0,0.6571,0.0,0.0,0.0,0.0,0.0,0.0,0.0,0.0,0.0,0.0,0.0,0.0,0.0,0.0,0.0,0.0,0.0,0.0,0.0,0.0,0.0,0.0,0.0,0.0,0.0,0.0,0.0,0.0,0.0,0.0,0.0,0.0,0.0,0.0,0.0,0.0,0.0,0.0,0.0,0.0,0.0,0.4912,0.5257,0.547,0.56,0.5449,0.5072,0.4377,0.403,0.3754,0.3531,0.0,0.0,0.0,0.0,0.0,0.0,0.0,0.0,0.0,0.0,0.0,0.0,0.0,0.0,0.0,0.0,0.0,0.0,0.0,0.0,0.0,0.0,0.0,0.0,0.0,0.0,0.0,0.0,0.0,0.0,0.0,0.0,0.0,0.0,0.0,0.0,0.0,0.0,0.0,0.0,0.0,0.0,0.0,0.0,0.0,0.0,0.0,0.0,0.0,0.0,0.0,0.0,0.0,0.0,0.0,0.0,0.0,0.0,0.0,0.0,0.0,0.7327,0.0,0.0,0.0,0.0,0.0,0.0,0.0,0.0,0.0,0.0,0.0,0.0,0.0,0.0,0.0,0.0,0.0,0.0,0.0,0.0,0.0,0.0,0.0,0.0,0.0,0.0,0.0,0.0,0.0,0.0,0.0,0.0,0.0,0.0,0.0,0.0,0.0,0.0,0.0,0.0,0.5394,0.5487,0.5557,0.5855,0.5652,0.5388,0.5127,0.4426,0.4019,0.407,0.3707,0.0,0.0,0.0,0.0,0.0,0.0,0.0,0.0,0.0,0.0,0.0,0.0,0.0,0.0,0.0,0.0,0.0,0.0,0.0,0.0,0.0,0.0,0.0,0.0,0.0,0.0,0.0,0.0,0.0,0.0,0.0,0.0,0.0,0.0,0.0,0.0,0.0,0.0,0.0,0.0,0.0,0.0,0.0,0.0,0.0,0.0,0.0,0.0,0.0,0.0,0.0,0.0,0.0,0.0,0.0,0.8299,0.8359,0.8706,0.9268,0.8932,0.893,0.913,0.0,0.0,0.0,0.0,0.0,0.0,0.0,0.0,0.0,0.0,0.0,0.0,0.0,0.0,0.0,0.0,0.0,0.0,0.0,0.0,0.0,0.0,0.0,0.0,0.0,0.6406,0.6335,0.0,0.0,0.0,0.0,0.0,0.0,0.0,0.0,0.0,0.0,0.0,0.0,0.5865,0.5786,0.5807,0.6259,0.5903,0.5792,0.6145,0.502,0.4462,0.4877,0.4118,0.3738,0.0,0.0,0.0,0.0,0.0,0.0,0.0,0.0,0.0,0.0,0.0,0.0,0.0,0.0,0.0,0.0,0.0,0.0,0.0,0.0,0.0,0.0,0.0,0.0,0.0,0.0,0.0,0.0,0.0,0.0,0.0,0.0,0.4728,0.5196,0.0,0.0,0.0,0.0,0.0,0.0,0.0,0.0,0.0,0.0,0.0,0.0,0.0,0.0,1.0176,0.9695,0.999,1.1076,1.1151,1.1153,1.1076,1.1076,1.1142,1.1219,1.1159,0.0,0.9742,0.9214,0.0,0.0,0.0,0.0,0.0,0.0,0.0,0.0,0.0,0.0,0.0,0.0,0.0,0.0,0.0,0.0,0.0,0.0,0.0,0.0,0.0,0.0,0.7739,0.7866,0.7781,0.7682,0.0,0.6377,0.5207,0.5305,0.0,0.0,0.0,0.0,0.0,0.0,0.0,0.0,0.5938,0.6112,0.6223,0.6295,0.6235,0.6057,0.5727,0.5511,0.5254,0.4927,0.4507,0.4296,0.4321,0.3991,0.0,0.0,0.0,0.0,0.0,0.0,0.0,0.0,0.0,0.0,0.0,0.0,0.0,0.0,0.0,0.0,0.0,0.0,0.0,0.0,0.0,0.0,0.0,0.0,0.0,0.0,0.0,0.0,0.0,0.4913,0.5629,0.6475,0.6584,0.6605,0.0,0.0,0.0,0.0,0.0,0.0,0.0,0.0,0.0,0.9574,0.9617,0.9956,1.0694,1.1011,1.1325,1.1603,1.1902,1.1889,1.1603,1.1603,1.1603,1.1603,1.1603,1.1326,1.0849,1.0597,1.0264,0.9831,0.0,0.0,0.0,0.0,0.0,0.0,0.9651,0.0,0.0,0.0,0.0,0.0,0.0,0.0,0.0,0.0,0.0,0.0,0.0,0.0,0.0,0.8305,0.8199,0.8133,0.8199,0.7547,0.6822,0.0,0.615,0.5756,0.5013,0.0,0.0,0.0,0.0,0.0,0.6248,0.6351,0.6416,0.6416,0.6416,0.6328,0.6117,0.5831,0.5563,0.5365,0.5004,0.4651,0.4357,0.4248,0.4055,0.0,0.0,0.0,0.0,0.0,0.0,0.0,0.0,0.0,0.0,0.0,0.0,0.0,0.0,0.0,0.0,0.0,0.0,0.0,0.0,0.0,0.0,0.0,0.0,0.0,0.0,0.0,0.0,0.5733,0.6433,0.7588,0.7784,0.783,0.0,0.0,0.0,0.0,0.0,0.0,0.9431,0.969,1.0139,1.0829,1.1085,1.1262,1.1332,1.2049,1.2262,1.2015,1.2436,1.249,1.2244,1.2253,1.2332,1.2432,1.2294,1.2231,1.2222,1.1779,1.1367,1.0975,1.0671,1.027,0.0,1.055,1.046,1.0136,1.0874,1.0871,1.0432,0.9738,0.0,0.9338,0.8789,0.0,0.0,0.0,0.0,1.0017,0.9558,0.0,0.9591,0.9052,0.8915,0.8864,0.8738,0.8713,0.8433,0.0,0.7335,0.7041,0.6124,0.0,0.0,0.0,0.0,0.6541,0.6678,0.6585,0.6507,0.6507,0.6507,0.6495,0.6504,0.6133,0.5907,0.5935,0.5536,0.5061,0.4533,0.4507,0.4249,0.0,0.0,0.0,0.0,0.0,0.0,0.0,0.0,0.0,0.0,0.0,0.0,0.0,0.0,0.0,0.0,0.0,0.0,0.0,0.0,0.0,0.0,0.0,0.0,0.0,0.0,0.0,0.0,0.0,0.0,0.8211,0.8413,0.0,0.0,0.0,0.0,0.8399,0.9582,1.0312,1.0249,1.1038,1.172,1.2271,1.1836,1.2062,1.306,1.2626,1.2638,1.3123,1.3216,1.3514,1.3984,1.4038,1.4308,1.4714,1.4186,1.3977,1.3851,1.2272,1.1247,1.0717,1.0706,1.0367,1.0029,1.1134,1.1525,1.156,1.2112,1.23,1.2174,1.1638,1.1462,1.1462,1.141,1.1422,0.0,0.0,1.1485,1.1487,1.146,1.1462,1.1312,1.072,1.0582,1.0444,0.9931,0.9818,0.9516,0.0,0.8239,0.8193,0.8073,0.0,0.0,0.7977,0.7549,0.7252,0.7262,0.6819,0.6507,0.6507,0.6507,0.6504,0.6501,0.6476,0.6494,0.6553,0.6114,0.5619,0.508,0.4705,0.4249,0.3707,0.3765,0.0,0.0,0.0,0.0,0.0,0.0,0.0,0.0,0.0,0.0,0.0,0.0,0.0,0.0,0.0,0.0,0.0,0.0,0.0,0.0,0.0,0.0,0.0,0.0,0.0,0.0,0.0,0.0,0.9956,1.0017,0.0,0.0,1.0462,1.0457,1.0456,1.0717,1.1113,1.1619,1.1955,1.2529,1.3451,1.3304,1.3569,1.4293,1.4099,1.4099,1.4287,1.4324,1.4443,1.4626,1.4654,1.4741,1.4884,1.4702,1.4614,1.4576,1.3966,1.3157,1.2309,1.2309,1.1986,1.1598,1.235,1.219,1.1691,1.22,1.2006,1.1425,1.0971,1.1001,1.1274,1.1615,1.1913,1.2115,1.2115,1.2115,1.204,1.1691,1.1603,1.1553,1.1324,1.1274,1.1123,1.0545,1.0419,1.0193,0.9479,0.9051,0.87,0.8327,0.8264,0.8254,0.8221,0.8059,0.7945,0.7945,0.7783,0.7509,0.7128,0.7069,0.6941,0.6586,0.6569,0.6569,0.6599,0.6125,0.5599,0.5061,0.4647,0.4183,0.3644,0.3742,0.3799,0.0,0.0,0.0,0.0,0.0,0.0,0.0,0.0,0.0,0.0,0.0,0.0,0.0,0.0,0.0,0.0,0.0,0.0,0.0,0.0,0.0,0.0,0.0,0.0,0.0,0.0,0.9547,1.0819,1.1141,1.136,1.159,1.1731,1.1745,1.1613,1.1743,1.1983,1.2388,1.2755,1.3312,1.4078,1.4292,1.4538,1.4896,1.4896,1.4896,1.4896,1.4915,1.5022,1.5173,1.5189,1.5296,1.5437,1.5248,1.5173,1.516,1.4959,1.4456,1.3767,1.3767,1.3559,1.3283,1.3629,1.332,1.2734,1.2906,1.2428,1.1701,1.1429,1.1527,1.181,1.2163,1.2452,1.2676,1.2676,1.2676,1.2588,1.2241,1.214,1.209,1.1914,1.1864,1.1713,1.1121,1.0996,1.0896,1.0546,0.9881,0.9252,0.8901,0.8838,0.8804,0.8723,0.8619,0.8541,0.844,0.8357,0.815,0.7741,0.7703,0.7478,0.6915,0.705,0.7,0.6624,0.6445,0.6014,0.5306,0.5041,0.4652,0.4111,0.4286,0.4297,0.4134,0.0,0.0,0.0,0.0,0.0,0.0,0.0,0.0,0.0,0.0,0.0,0.0,0.0,0.0,0.0,0.0,0.0,0.0,0.0,0.0,0.0,0.0,0.0,0.8449,0.912,0.9945,1.0692,1.1736,1.2203,1.1703,1.2588,1.2789,1.1738,1.2638,1.3015,1.25,1.3531,1.4141,1.4154,1.4651,1.4921,1.4947,1.4947,1.4947,1.4947,1.5016,1.5281,1.5731,1.5798,1.6064,1.6463,1.5957,1.5718,1.568,1.516,1.4947,1.4947,1.4909,1.4896,1.4896,1.4896,1.4896,1.4808,1.4299,1.3722,1.3231,1.3213,1.3213,1.3231,1.3231,1.3231,1.3248,1.3248,1.3235,1.3223,1.3223,1.3193,1.3043,1.2534,1.2397,1.2246,1.1711,1.1613,1.1628,1.1603,1.0709,0.9956,0.9931,0.9905,0.9803,0.9555,0.928,0.0,0.8766,0.8505,0.8349,0.8336,0.8324,0.8087,0.7481,0.7939,0.7799,0.6699,0.7078,0.6878,0.5845,0.585,0.5639,0.5119,0.5371,0.5282,0.4828,0.0,0.0,0.0,0.0,0.0,0.0,0.0,0.0,0.0,0.0,0.0,0.0,0.0,0.0,0.0,0.0,0.0,0.0,0.0,0.0,0.0,0.0,0.9767,1.0018,1.063,1.1415,1.2397,1.245,1.2488,1.2739,1.304,1.3253,1.3405,1.3695,1.3972,1.4205,1.4513,1.4865,1.5248,1.5412,1.5668,1.607,1.607,1.607,1.607,1.6081,1.6156,1.6274,1.6296,1.638,1.6488,1.6337,1.6274,1.6283,1.6132,1.607,1.5982,1.5198,1.4896,1.4896,1.4896,1.4896,1.4833,1.4393,1.413,1.3951,1.3669,1.3766,1.4008,1.4008,1.4199,1.4425,1.4425,1.4155,1.3858,1.3858,1.3314,1.2725,1.2579,1.2555,1.2409,1.1863,1.1974,1.2065,1.1678,1.1351,1.0985,1.0557,0.9997,0.9646,0.9764,0.0,0.0,0.9553,0.9504,0.9303,0.8913,0.8875,0.8661,0.81,0.7801,0.7516,0.0,0.6586,0.6114,0.5808,0.5495,0.5338,0.5389,0.5467,0.5488,0.0,0.0,0.0,0.0,0.0,0.0,0.0,0.0,0.0,0.0,0.0,0.0,0.0,0.0,0.0,0.0,0.0,0.0,0.0,0.0,0.0,0.0,0.988,1.0507,1.1297,1.1713,1.2178,1.2801,1.2801,1.2952,1.3521,1.3584,1.3828,1.4387,1.4437,1.4576,1.4871,1.511,1.5387,1.568,1.5919,1.6174,1.65,1.65,1.65,1.65,1.65,1.65,1.65,1.65,1.65,0.0,1.65,1.65,1.65,1.65,1.65,0.0,0.0,0.0,0.0,0.0,1.513,1.4885,1.4451,1.4125,1.3885,1.3651,1.3723,1.3925,1.3925,1.4237,1.4604,1.4604,1.4524,1.4374,1.4166,1.3671,1.316,1.291,1.2843,1.2758,1.2453,1.2576,1.2638,1.2341,0.0,0.0,1.1472,1.0631,1.0017,1.007,0.9846,0.9686,0.0,0.9828,0.978,0.9466,0.9441,0.9214,0.8686,0.8526,0.0,0.0,0.0,0.6629,0.6164,0.0,0.0,0.0,0.0,0.0,0.0,0.0,0.0,0.0,0.4592,0.4592,0.0,0.0,0.0,0.0,0.0,0.0,0.0,0.0,0.0,0.0,0.0,0.0,0.0,0.0,0.0,0.0,1.0582,1.1272,1.2337,1.2554,1.258,1.25,1.2977,1.3509,1.4053,1.4154,1.4412,1.4947,1.4984,1.5009,1.5072,0.0,0.0,0.0,0.0,1.65,1.65,1.65,1.65,1.65,1.65,1.65,1.65,1.65,1.65,1.65,1.6563,1.655,1.65,1.6638,1.6651,1.6588,1.6525,1.65,1.6457,1.6042,1.5586,0.0,0.0,0.0,0.0,1.3762,1.3721,1.368,1.368,1.3959,1.4288,1.4288,1.4601,1.4801,1.4325,1.4168,1.3974,1.3388,1.3233,1.3221,1.3159,1.3163,1.3198,1.3198,1.2826,1.2488,1.2488,1.1517,1.0668,1.0483,1.0155,0.0,0.9666,0.9788,0.9905,0.9905,0.0,0.0,0.9239,0.9579,0.9165,0.7691,0.8037,0.7849,0.6837,0.6787,0.6932,0.7252,0.7293,0.7203,0.6983,0.7011,0.672,0.6124,0.5829,0.5699,0.0,0.0,0.0,0.0,0.0,0.0,0.0,0.0,0.0,0.0,0.0,0.0,0.0,0.0,0.0,1.1723,1.1999,1.23,1.2947,1.3458,1.3589,1.3102,1.3576,1.3972,1.4091,1.4488,1.4979,1.5492,1.5563,1.5731,1.617,1.6287,0.0,1.6337,1.6437,1.65,1.65,1.65,1.65,1.65,0.0,0.0,1.65,1.65,1.65,1.6525,1.7011,1.6948,1.6563,1.7478,1.7614,1.7184,1.6697,1.65,1.65,1.6402,1.6296,1.6197,1.6123,1.6006,1.5886,1.5886,1.5639,1.5336,1.5336,1.5151,0.0,1.4932,1.4943,1.495,1.4853,1.4546,1.4116,1.3562,1.3441,1.332,1.2823,1.2978,1.3198,1.3198,1.3123,1.3048,1.3048,1.1921,1.1103,1.1323,1.0708,1.0281,1.0448,1.0142,0.9905,0.9905,0.9905,0.9855,0.9755,0.9441,0.9114,0.88,0.8474,0.8211,0.7974,0.7962,0.8052,0.8226,0.8441,0.8612,0.8711,0.8933,0.8973,0.879,0.6686,0.5699,0.0,0.0,0.0,0.0,0.0,0.0,0.0,0.0,0.0,0.0,0.0,1.0159,1.066,0.0,1.141,1.2262,1.24,1.2588,1.3123,1.3727,1.3984,1.369,1.4142,1.4614,1.4859,1.5135,1.5517,1.607,1.6107,1.6233,1.6488,1.65,1.65,1.65,1.65,1.65,1.65,1.65,1.65,1.65,1.681,1.6948,1.6961,1.7237,1.734,1.7375,1.7677,1.7626,1.7378,1.7978,1.8041,1.7765,1.7476,1.6989,1.6466,1.625,1.6151,1.6086,1.5601,1.5445,1.54,1.5141,1.5073,1.5108,1.5108,1.5096,1.5153,1.539,1.5433,1.5396,1.5351,1.5176,1.4802,1.3988,1.3791,1.3625,1.3036,1.3064,1.3198,1.3198,1.3198,1.3198,1.3198,1.2618,1.2114,1.2024,1.1229,1.0698,1.0829,1.0379,1.005,1.005,0.9964,0.9905,0.9905,0.9415,0.91,0.91,0.8598,0.8298,0.8298,0.8298,0.8361,0.8503,0.8769,0.9004,0.92,0.9461,0.9598,0.9569,0.8259,0.7656,0.0,0.0,0.0,0.0,0.0,0.0,0.0,0.0,0.9086,1.0289,1.0886,1.1327,1.1708,1.1854,1.2052,1.2488,1.2655,1.2881,1.3315,1.3878,1.4267,1.4267,1.4739,1.5236,1.5655,1.5793,1.6032,1.6463,1.65,1.65,1.65,1.65,1.65,1.65,1.66,1.6663,1.6663,1.6763,1.6826,1.6839,1.7325,1.7561,1.7574,1.8003,1.8204,1.8204,1.8204,1.8329,1.8505,1.8405,1.8367,1.8367,1.8367,1.7739,1.677,1.6404,1.627,1.6134,1.528,1.497,1.4889,1.4337,1.4398,1.4663,1.4663,1.4869,1.5176,1.5557,1.5722,1.578,1.5727,1.5794,1.5605,1.4639,1.4412,1.4223,1.3516,1.3366,1.3341,1.3223,1.3198,1.3198,1.3198,1.3198,1.3048,1.2626,1.1824,1.1266,1.1266,1.0795,1.0433,1.031,1.0144,1.0018,0.9905,0.9503,0.9264,0.9264,0.8851,0.8612,0.8612,0.8612,0.8667,0.8772,0.9082,0.9326,0.9488,0.9814,0.9962,0.9962,0.9962,0.9831,1.0629,0.997,0.9397,0.9805,0.9191,0.9122,0.0,0.0,1.0457,1.2077,1.2354,1.2336,1.2399,1.2751,1.3035,1.3098,1.3564,1.3921,1.3984,1.4475,1.4815,1.4815,1.5286,1.563,1.568,1.6132,1.6437,1.6488,1.65,1.65,1.65,1.65,1.65,1.65,1.7024,1.731,1.731,1.7777,1.8016,1.8016,1.8078,1.8116,1.8116,1.8179,1.8204,1.8204,1.8204,1.8744,1.9585,1.9108,1.8907,1.8907,1.8907,1.8531,1.7992,1.7945,1.7945,1.7847,1.7268,1.7049,1.6975,1.6367,1.5932,1.5634,1.5634,1.539,1.5108,1.5153,1.5467,1.5798,1.5782,1.6108,1.6249,1.5655,1.5517,1.5248,1.4223,1.3997,1.3828,1.3303,1.3198,1.3198,1.3198,1.3198,1.3173,1.3123,1.2618,1.2252,1.2252,1.1777,1.1228,1.07,1.063,1.0419,0.9943,0.9843,0.9805,0.9805,0.9755,0.973,0.973,0.973,0.973,0.9742,1.0237,1.0515,1.0525,1.1036,1.1285,1.1285,1.1285,1.0675,1.1837,1.1108,1.0431,0.0,1.0547,1.0405,1.1859,1.1696,1.1532,1.2548,1.2932,1.3081,1.3031,1.312,1.3198,0.0,1.3715,1.4103,1.4103,1.4563,1.4896,1.4896,1.5097,1.5361,1.5668,1.6195,1.65,1.65,1.65,1.65,1.65,1.6835,1.7024,1.7024,1.7564,1.7865,1.7865,1.8091,1.8204,1.8204,1.8506,1.8657,1.8669,1.8995,1.9133,1.9133,1.9133,1.9397,1.9786,1.9572,1.9472,1.9472,1.9472,1.9334,1.9058,1.843,1.8204,1.8119,1.7647,1.7466,1.7382,1.681,1.6691,1.6713,1.6364,1.6144,1.597,1.5941,1.5866,1.5854,1.6129,1.6358,1.635,1.5831,1.5693,1.548,1.4739,1.4563,1.44,1.3828,1.3727,1.3609,1.3248,1.3198,1.3198,1.3198,1.2815,1.2531,1.2531,1.2054,1.1578,1.1257,1.0908,1.0606,1.0382,1.0081,0.9905,0.9905,0.9905,0.9905,0.9905,0.9905,0.9905,0.9905,1.0273,1.0533,1.0693,1.1073,1.1353,1.1489,1.1489,1.1198,1.2374,0.0,0.0,1.1801,1.1609,1.1495,1.2021,1.221,1.2396,1.2884,1.3261,1.3493,1.3408,1.3301,1.3198,1.3198,1.384,1.4311,1.4311,1.4664,1.4896,1.4896,1.4777,1.4884,1.5437,1.5969,1.6337,1.6488,1.65,1.65,1.65,1.7074,1.741,1.741,1.8066,1.8406,1.8406,1.8581,1.8643,1.8656,1.9033,1.9221,1.9221,1.9623,1.9798,1.9798,1.9798,1.9798,1.9798,1.9798,1.9798,1.9798,1.9798,1.9798,1.971,1.8932,1.8643,1.857,1.8068,1.7922,1.7824,1.7277,1.7388,1.7605,1.7166,1.6947,1.682,1.6751,1.6383,1.6064,1.6402,1.65,1.64,1.6019,1.5919,1.5768,1.5236,1.5123,1.4959,1.4425,1.4311,1.4135,1.3559,1.3441,1.3391,1.3223,1.296,1.2773,1.2773,1.23,1.1923,1.1821,1.1312,1.0946,1.0946,1.0596,1.037,1.037,1.0219,1.0118,1.0118,0.9981,0.9905,0.9905,1.016,1.0422,1.0693,1.0968,1.125,1.1489,1.1489,1.1489,0.0,0.0,1.1789,1.1875,1.1936,1.2108,1.2657,1.2823,1.2998,1.3389,1.3497,1.3493,1.3408,1.3301,1.3198,1.3198,1.4136,1.489,1.489,1.4884,1.4896,1.4896,1.4437,1.4324,0.0,1.5412,1.5944,1.645,1.65,1.65,1.65,1.7074,1.741,1.741,1.8406,1.8983,1.8983,1.9497,1.9748,1.9748,1.9773,1.9773,1.9773,1.9798,1.9798,1.9798,1.9798,1.9798,1.9798,1.9798,1.9798,1.9798,1.9798,1.9798,1.9798,1.9761,1.9748,1.9685,1.9146,1.8945,1.887,1.8332,1.818,1.818,1.8155,1.7779,1.7375,1.7363,1.6948,1.6466,1.65,1.65,1.6488,1.6475,1.6475,1.6325,1.5781,1.5668,1.5525,1.4972,1.489,1.4714,1.4179,1.4078,1.3871,1.3303,1.3181,1.3181,1.3181,1.2722,1.2388,1.2391,1.1889,1.1578,1.1578,1.1565,1.1553,1.1553,1.0996,1.0682,1.0682,1.0181,0.9905,0.9905,1.016,1.0422,1.0693,1.0968,1.125,1.1489,1.1489,1.1489,1.1746,0.0,1.1889,1.2275,1.2455,1.2657,1.3161,1.3327,1.3382,1.3475,1.3459,1.3425,1.3408,1.3301,1.3198,1.3198,1.4161,1.4896,1.4896,1.5211,1.5299,1.4934,1.4739,0.0,0.0,0.0,0.0,1.645,1.65,1.6663,1.7074,1.7626,1.8091,1.8455,1.9171,1.9547,1.9547,1.971,1.9798,1.9798,1.9798,1.9798,1.9798,1.9798,1.9798,1.9798,1.9798,1.9798,1.9798,1.9798,1.9798,1.9798,1.9798,1.9798,1.9798,1.9798,1.9798,1.9773,1.9597,1.9547,1.951,1.9321,1.9258,1.9208,1.8832,1.8594,1.8317,1.7612,1.7237,1.6999,1.66,1.65,1.65,1.65,1.65,1.645,1.6283,1.6233,1.6082,1.5517,1.5437,1.5261,1.4727,1.4626,1.4437,1.3878,1.3453,1.3198,1.3198,1.3035,1.2939,1.2939,1.245,1.2128,1.2128,1.1801,1.1603,1.1603,1.1412,1.1299,1.1299,1.1123,1.1037,1.1037,1.0716,1.0781,1.1238,1.0956,1.105,1.1489,1.1489,1.1489,1.1934,1.2015,1.2188,1.2781,1.3,1.3119,1.3403,1.336,1.3251,1.3132,1.3098,1.3065,1.3048,1.3128,1.3198,1.3198,1.4161,1.4896,1.4896,1.5361,1.5567,1.5236,1.5009,0.0,0.0,0.0,0.0,1.645,1.65,1.6773,1.7373,1.7903,1.8455,1.8983,1.9509,1.9798,1.9798,1.9798,1.9798,1.9798,1.9798,1.9798,1.9798,1.9798,1.9798,1.9798,1.9798,1.9798,1.9798,1.9798,1.9798,1.9798,1.9798,1.9798,1.9798,1.9798,1.9798,1.9798,1.9798,1.9798,1.9798,1.9798,1.9798,1.9748,1.9384,1.9146,1.8857,1.8179,1.7712,1.7322,1.6923,1.6651,1.65,1.65,1.65,1.65,1.65,1.65,1.6387,1.6057,1.5994,1.5819,1.5286,1.4878,1.45,1.4154,1.3584,1.3198,1.3198,1.3198,1.3198,1.3198,1.2902,1.2689,1.2689,1.2363,1.2178,1.2178,1.1989,1.1889,1.1889,1.1688,1.1603,1.1603,1.1342,1.1433,1.1858,1.1622,1.1745,1.2158,1.1928,1.1826,1.2345,1.2497,1.2681,1.3318,1.348,1.348,1.337,1.2999,1.2631,1.2398,1.2414,1.2418,0.0,0.0,1.316,1.316,1.4136,1.4896,1.4896,1.5399,1.5731,0.0,0.0,0.0,0.0,0.0,0.0,1.6538,0.0,1.681,1.7423,1.7953,1.8481,1.902,1.9547,1.9798,1.9798,1.9798,1.9798,1.9798,1.9798,1.9798,1.9798,1.9798,1.9798,1.9798,1.9798,1.9798,1.9798,1.9798,1.9798,1.9798,1.9798,1.9798,1.9798,1.9798,1.9798,1.9798,1.9798,1.9798,1.9798,1.9798,1.9798,1.9798,1.9798,1.9434,1.9045,1.9008,1.8279,1.7473,1.7423,1.6974,1.6538,1.65,1.65,1.65,1.65,1.65,1.65,1.65,1.65,1.6337,1.5831,1.4859,1.4191,1.4191,1.3647,1.3223,1.3198,1.3198,1.3198,1.3198,1.3198,1.3198,1.3198,1.3198,1.3198,1.3198,1.2726,1.2438,1.2438,1.1952,1.1691,1.1691,1.1969,1.2265,1.2537,1.283,1.3115,1.338,1.2744,1.2456,1.2382,1.2722,1.3057,1.3229,1.334,1.3293,1.2771,1.2601,1.2418,1.192,1.1816,1.1819,0.0,0.0,0.0,1.2601,1.3903,0.0,1.4896,1.5706,0.0,1.5743,0.0,1.6158,1.6274,1.6697,0.0,0.0,1.74,1.74,1.7965,1.8494,1.9033,1.9585,1.9736,1.9798,1.9798,1.9798,1.9798,1.9798,1.9798,1.9798,1.9798,1.9798,1.9798,1.9798,1.9798,1.9798,1.9798,1.9798,1.9798,1.9798,1.9798,1.9798,1.9798,1.9798,1.9798,1.9798,1.9798,1.9798,1.9798,1.9798,1.9798,1.9798,1.9798,1.971,1.9497,1.9108,1.8795,1.8417,1.7624,1.7297,1.7049,1.66,1.65,1.65,1.65,1.65,1.65,1.65,1.65,1.645,1.6333,1.5731,1.5299,1.5299,1.4481,1.3715,1.3248,1.3198,1.3198,1.3198,1.3198,1.3198,1.3198,1.3198,1.3198,1.3198,1.3073,1.2998,1.2998,1.2847,1.2801,1.2801,1.2484,1.2584,1.3089,1.2785,1.2898,1.3394,1.322,1.3161,1.2689,1.296,1.3198,1.3198,1.3267,1.315,1.2542,1.2247,1.1935,1.1324,1.1211,0.0,0.0,0.0,0.0,0.0,0.0,0.0,1.4878,1.5618,1.6132,0.0,1.6333,0.0,1.6873,1.7187,1.7614,0.0,1.7915,1.799,1.8506,1.8845,1.9246,1.9786,1.9798,1.9798,1.9798,1.9798,1.9798,1.9798,1.9798,1.9798,1.9798,1.9798,1.9798,1.9798,0.0,1.9798,1.9798,1.9798,1.9798,1.9798,1.9798,1.9798,1.9798,1.9798,1.9798,1.9798,1.9798,1.9798,1.9798,1.9798,1.9798,1.9798,1.9798,1.9798,1.9748,1.9447,1.9171,1.8857,1.8267,1.7739,1.73,1.6974,1.6697,1.65,1.65,1.65,1.65,1.65,1.65,1.65,1.65,1.6057,1.5693,1.5693,1.4984,1.4337,1.3998,1.3516,1.3198,1.3198,1.3198,1.3198,1.3198,1.3198,1.3198,1.3198,1.3198,1.3198,1.3198,1.3198,1.3198,1.3198,1.3052,1.3217,1.374,1.3583,1.3755,1.4224,1.3933,1.3788,1.3073,1.3198,1.3198,1.3198,1.3148,1.2947,1.2413,1.1876,1.1312,1.072,0.0,1.0512,1.0234,1.128,1.2107,1.1911,0.0,1.4198,1.4815,1.5361,1.5906,1.6437,1.65,1.6773,1.7448,1.7511,1.7775,1.838,1.8417,1.8569,1.8983,1.907,1.9309,1.9786,1.9798,1.9798,1.9798,1.9798,1.9798,1.9798,1.9798,1.9798,1.9798,1.9798,1.9798,1.9798,0.0,0.0,1.9798,1.9798,1.9798,1.9798,1.9798,1.9798,1.9798,1.9798,1.9798,1.9798,1.9798,1.9798,1.9798,1.9798,1.9798,1.9798,1.9798,1.9798,1.9798,1.9798,1.9447,1.9096,1.902,1.8317,1.7576,1.7524,1.7049,1.6613,1.6613,1.655,1.65,1.65,1.65,1.65,1.65,1.612,1.5806,1.5806,1.5349,1.4997,1.4997,1.4023,1.3328,1.3328,1.3248,1.3198,1.3198,1.3198,1.3198,1.3198,1.3198,1.3198,1.3198,1.3198,1.3198,1.3198,1.348,1.3848,1.43,1.4604,1.4932,1.5283,1.4703,1.4428,1.3173,1.3198,1.3198,1.3198,1.2877,1.24,1.1864,1.1286,0.0,0.0,1.0044,0.9965,0.9688,1.0377,1.1044,1.1231,0.0,0.0,0.0,0.0,1.5906,0.0,0.0,0.0,0.0,0.0,0.0,0.0,0.0,0.0,1.902,1.9409,1.971,1.9798,1.9798,1.9798,1.9798,1.9798,1.9798,1.9798,1.9798,1.9798,1.9798,1.9798,1.9798,1.9798,0.0,0.0,1.9798,1.9798,1.9798,1.9798,1.9798,1.9798,1.9798,1.9798,1.9798,1.9798,1.9798,1.9798,1.9798,1.9798,1.9798,1.9798,1.9798,1.9798,1.9798,1.9798,1.9736,1.9572,1.9121,1.8857,1.8607,1.8179,1.7639,1.7237,1.7237,1.6861,1.65,1.65,1.65,1.65,1.65,1.6412,1.635,1.635,1.5906,1.5555,1.5555,1.4607,1.3946,1.3946,1.3509,1.3198,1.3198,1.3198,1.3198,1.3198,1.3198,1.3198,1.3198,1.3198,1.3198,1.3198,1.3267,1.3628,1.43,1.4365,1.4699,1.5298,1.5182,1.5124,1.3198,1.3198,1.3198,1.3198,1.2801,1.2266,1.1728,0.0,0.0,0.0,0.9905,0.9816,0.9555,1.0046,0.0,1.1028,0.0,0.0,0.0,0.0,0.0,0.0,0.0,0.0,0.0,0.0,0.0,0.0,0.0,0.0,1.9447,1.966,1.9798,1.9798,1.9798,1.9798,1.9798,1.9798,1.9798,1.9798,1.9862,1.9862,1.9798,1.9862,1.9862,1.9798,0.0,0.0,1.9823,2.0125,2.0277,2.0277,2.0277,2.0453,2.0639,2.0363,2.0277,2.0277,2.0277,2.0049,1.9798,1.9798,1.9798,1.9798,1.9798,1.9798,1.9798,1.9798,1.9798,1.9748,1.9497,1.9208,1.8945,1.8669,1.799,1.741,1.741,1.6923,1.6522,1.6599,1.6556,1.6522,1.6599,1.6556,1.65,1.65,1.6351,1.6195,1.6132,1.5477,1.491,1.4538,1.4268,1.4086,1.4086,1.3822,1.3677,1.3677,1.3435,1.3267,1.3198,1.3267,1.3267,1.3198,1.3198,1.356,1.43,1.43,1.4651,1.5298,1.5298,1.5298,1.3198,1.3198,1.3198,1.3198,1.2714,1.2128,1.1703,1.1048,0.0,0.0,0.9905,0.9816,0.9555,0.0,1.042,0.0,1.1566,1.244,0.0,0.0,0.0,0.0,0.0,0.0,0.0,0.0,0.0,0.0,0.0,0.0,0.0,1.9798,1.9798,1.9798,1.9837,1.9837,1.9837,1.9862,1.9888,1.9888,2.0003,2.0003,1.9875,1.9978,1.9926,1.9837,0.0,0.0,0.0,2.0503,2.0767,2.0867,2.0867,2.1131,2.1443,2.1031,2.0792,2.0691,2.0691,2.0314,1.9798,1.9798,1.9798,1.9798,1.9798,1.9798,1.9798,1.9798,1.9798,1.9798,1.9798,1.9497,1.9133,1.9045,1.8391,1.7687,1.7483,1.7055,1.6703,1.6701,1.6641,1.662,1.6718,1.6641,1.6543,1.6586,1.6654,1.6675,1.6607,1.6304,1.5914,1.5365,1.5093,1.4954,1.4961,1.4588,1.4335,1.4335,1.3874,1.3564,1.3473,1.342,1.3357,1.3267,1.3323,1.3678,1.4319,1.4399,1.4732,1.5298,1.5313,1.5313,1.3198,1.3198,1.3198,1.3198,1.2425,1.1666,1.1615,0.0,0.0,0.9905,0.9905,0.9816,0.9555,0.0,0.0,0.0,0.0,1.22,0.0,0.0,0.0,0.0,0.0,0.0,0.0,0.0,0.0,0.0,0.0,0.0,0.0,1.9798,1.9798,1.9798,1.9926,1.999,1.999,2.0105,2.0156,2.0156,2.0182,2.0182,2.0156,2.0042,1.999,1.9978,0.0,0.0,0.0,2.0666,2.0993,2.1446,2.1446,2.1443,2.1481,2.143,2.1119,2.0691,2.0691,2.0314,1.9798,1.9798,1.9798,1.9798,1.9798,1.9798,1.9798,1.9798,1.9798,1.9798,1.9798,1.9761,1.9635,1.9282,1.9018,1.863,1.7771,1.7492,1.7267,1.6798,1.6782,1.6854,1.6876,1.6782,1.6718,1.6833,1.6761,1.674,1.6854,1.6837,1.6786,1.6722,1.5732,1.5101,1.5159,1.5126,1.5101,1.5101,1.46,1.4305,1.4287,1.3723,1.3425,1.3476,1.3702,1.4019,1.439,1.469,1.4996,1.5298,1.5359,1.5389,1.2814,1.2947,1.3123,1.2801,1.2153,1.1487,1.1148,0.0,0.9905,0.9905,0.9905,0.9867,0.9764,0.9699,0.0,0.0,0.0,0.0,1.2902,0.0,0.0,0.0,0.0,0.0,0.0,0.0,0.0,0.0,0.0,0.0,0.0,1.9926,1.9952,2.0042,2.0105,2.0105,2.0105,2.0182,2.0207,2.0207,2.0322,2.0322,2.0207,2.0131,2.0093,1.999,0.0,0.0,0.0,2.1121,2.1364,2.1339,2.2013,2.228,2.228,2.228,2.1911,2.1415,2.1415,2.083,2.0016,1.9952,1.9926,1.9901,1.9837,1.9798,1.9798,1.9798,1.9798,1.9837,1.9901,1.9926,1.9901,1.9825,1.9458,1.8953,1.8321,1.7897,1.7476,1.6991,1.6876,1.6897,1.6939,1.6876,1.6846,1.6876,1.6876,1.6876,1.6897,1.6939,1.696,1.696,1.6478,1.6189,1.6217,1.5588,1.5344,1.5665,1.4925,1.4436,1.44,1.4169,1.3886,1.351,1.3802,1.4133,1.4454,1.4799,1.5103,1.5359,1.5418,1.5433,1.2278,1.2438,1.2638,1.2266,1.1876,1.1437,0.0,1.0407,1.0081,0.9931,0.9905,0.9905,0.9905,0.9738,0.9993,0.0,0.0,1.1308,1.2271,0.0,0.0,0.0,0.0,0.0,0.0,0.0,0.0,0.0,0.0,0.0,0.0,0.0,2.0169,2.0207,2.0258,2.0296,2.0296,2.0334,2.0424,2.0592,2.0732,2.0732,2.0592,2.054,2.0399,0.0,0.0,0.0,0.0,2.1509,2.1836,2.1851,2.2538,2.2884,2.301,2.302,2.2667,2.2168,2.2168,2.154,2.0681,2.0411,2.0308,2.0219,1.999,1.9888,1.9862,1.9862,1.9862,1.9888,2.0029,2.0067,2.0093,2.0233,1.9888,1.938,1.8975,1.8421,1.7865,1.7364,1.7118,1.7002,1.7065,1.6981,1.6939,1.6981,1.7002,1.7002,1.6981,1.7044,1.7065,1.7065,1.6881,1.6814,1.6968,1.6104,1.5718,1.6091,1.5284,1.4772,1.473,1.4754,1.4469,1.3839,1.4136,1.4373,1.4533,1.486,1.5165,1.5433,1.5492,1.5492,1.1615,1.1615,1.1615,1.1615,1.1588,1.1437,0.0,1.0708,1.0545,1.0018,0.9905,0.9905,0.9905,0.9905,1.0068,1.0618,0.0,0.0,1.2237,0.0,0.0,0.0,0.0,0.0,0.0,0.0,0.0,0.0,0.0,0.0,0.0,0.0,2.0398,2.0207,2.0398,2.0486,2.0486,2.0637,2.0962,2.1498,2.1498,2.1498,2.1472,2.1355,0.0,0.0,0.0,0.0,0.0,2.1795,2.2424,2.3344,2.2947,2.3085,2.3503,2.356,2.3257,2.2783,2.2783,2.2439,2.1889,2.1272,2.1013,2.0805,2.0348,2.0105,1.999,1.999,1.999,2.0042,2.0156,2.0207,2.0233,2.0461,2.0347,2.0091,1.9673,1.9128,1.8536,1.7989,1.7527,1.7199,1.7199,1.7094,1.7044,1.7178,1.7073,1.7065,1.7178,1.7199,1.7199,1.7199,1.6715,1.6611,1.7146,1.6702,1.6388,1.6388,1.5826,1.5487,1.5487,1.543,1.5144,1.4598,1.4852,1.4863,1.4596,1.4937,1.524,1.5492,1.558,1.5595,1.1111,1.1286,1.1487,1.1098,1.0983,1.0833,1.0281,1.0143,1.0119,0.9931,0.9905,0.9905,0.9905,0.9905,1.0207,1.1161,1.1312,0.0,0.0,0.0,0.0,0.0,0.0,0.0,0.0,0.0,0.0,0.0,0.0,0.0,0.0,0.0,2.0599,2.0549,2.0599,2.0637,2.0637,2.0687,2.0804,2.0949,2.0949,2.0949,2.0949,2.0809,0.0,0.0,0.0,0.0,0.0,2.2942,2.3075,2.2831,2.3898,2.3904,2.336,2.3774,2.356,2.3082,2.3082,2.2719,2.2173,2.147,2.1197,2.1068,2.0553,2.022,2.0016,2.0105,2.0246,2.036,2.0398,2.041,2.0423,2.0612,2.0511,2.0268,1.982,1.9584,1.9167,1.8226,1.7922,1.7682,1.7264,1.7157,1.7157,1.7199,1.7157,1.7157,1.7199,1.7199,1.7199,1.7199,1.6715,1.6467,1.6637,1.5735,1.5343,1.5748,1.5212,1.4872,1.4872,1.5087,1.5153,1.5083,1.4944,1.5142,1.5689,1.5396,1.5404,1.5712,1.5624,1.5653,1.0494,1.0671,1.0872,1.0494,1.0557,1.057,1.0018,1.0069,1.0143,0.9943,0.9905,0.9905,0.9905,0.9905,1.0131,1.0834,1.096,0.0,0.0,0.0,0.0,0.0,0.0,0.0,0.0,0.0,0.0,0.0,0.0,0.0,0.0,0.0,2.0699,2.0699,2.0699,2.0699,2.0699,2.0699,2.0792,2.1001,2.1001,2.1001,2.1001,0.0,0.0,0.0,0.0,0.0,0.0,2.3639,2.3811,2.3711,2.464,2.4518,2.3876,2.4279,2.4079,2.3535,2.3535,2.3313,2.2895,2.1992,2.142,2.1004,2.0628,2.036,2.022,2.0347,2.0423,2.0511,2.0562,2.0587,2.0612,2.0687,2.0637,2.0496,2.0205,1.9956,1.959,1.8885,1.8388,1.7983,1.7604,1.7356,1.7199,1.7199,1.7199,1.7199,1.7199,1.7199,1.7199,1.7199,1.6715,1.6297,1.6075,1.516,1.4755,1.5134,1.4825,1.4689,1.4925,1.5501,1.5869,1.5936,1.5641,1.5831,1.6577,1.6077,1.5935,1.6129,1.5816,1.5726,0.0,0.9905,0.9905,0.9905,1.0269,1.0506,1.0018,1.0281,0.0,1.0006,0.9905,0.9905,0.9956,0.9931,0.9931,1.0006,0.0,0.0,0.0,0.0,0.0,0.0,0.0,0.0,0.0,0.0,0.0,0.0,0.0,0.0,0.0,0.0,0.0,2.0699,2.0699,2.0699,2.0699,2.0699,2.0949,2.1446,2.1472,2.1498,2.1498,0.0,0.0,0.0,0.0,0.0,0.0,2.3999,2.4658,2.558,2.5234,2.5019,2.4836,2.4915,2.4526,2.3965,2.4005,2.4031,2.3864,2.2767,2.1642,2.0739,2.0575,2.0511,2.0537,2.0662,2.0612,2.0537,2.0687,2.0699,2.0699,2.0699,2.0699,2.0699,2.0699,2.0268,1.9852,1.9812,1.895,1.8192,1.8114,1.763,1.7251,1.7212,1.7199,1.7199,1.7199,1.7199,1.7199,1.7199,1.6715,1.6166,1.5604,1.4964,1.4589,1.4585,1.455,1.4817,1.5417,1.6359,1.6878,1.6956,1.6711,1.6767,1.7059,1.678,1.6652,1.6622,1.6069,1.5799,0.9905,0.0,0.9905,0.9905,0.9993,1.0056,0.0,1.0006,1.0069,0.9982,0.9931,1.0044,1.0499,1.0208,1.0194,1.1062,0.0,0.0,0.0,0.0,0.0,0.0,0.0,0.0,0.0,0.0,0.0,0.0,0.0,0.0,0.0,0.0,0.0,2.0699,2.0699,2.0699,2.0699,2.0699,2.0777,2.0883,2.1246,2.1406,2.143,0.0,0.0,0.0,0.0,0.0,0.0,2.4994,2.5414,2.5802,2.617,2.5479,2.4286,2.4314,2.3673,2.2871,2.3289,2.3404,2.3287,2.2622,2.1904,2.1237,2.0793,2.0662,2.0662,2.0687,2.0687,2.0662,2.0687,2.0699,2.0699,2.0699,2.0699,2.0699,2.0699,2.0607,2.0347,1.9891,1.959,1.912,1.8244,1.7983,1.7735,1.7264,1.7199,1.7199,1.7199,1.7199,1.7199,1.7199,1.6715,1.6336,1.6192,1.5199,1.4524,1.4369,1.4122,1.4276,1.4938,1.5191,1.5682,1.646,1.6597,1.6372,1.5751,1.5921,1.6009,1.6009,1.5873,1.5799,0.9809,0.9855,0.9905,0.9905,0.9931,0.9983,1.0097,1.0059,1.0034,1.0211,1.0097,1.0084,1.0415,1.0441,1.0618,0.0,0.0,0.0,0.0,0.0,0.0,0.0,0.0,0.0,0.0,0.0,0.0,0.0,0.0,0.0,0.0,0.0,0.0,0.0,2.0699,2.0699,2.0699,2.0699,2.0799,2.1008,2.1277,2.1506,2.1756,0.0,0.0,0.0,0.0,0.0,2.4679,2.5012,2.5353,2.5734,2.6078,2.5314,2.4087,2.4363,2.3744,2.2858,2.3404,2.3417,2.3143,2.2843,2.2204,2.1459,2.1171,2.0883,2.0699,2.0699,2.0699,2.0699,2.0699,2.0699,2.0699,2.0699,2.0699,2.0699,2.0699,2.0699,2.0607,2.0281,1.9982,1.9603,1.8989,1.8453,1.7996,1.7656,1.7382,1.7199,1.7199,1.7352,1.7475,1.7475,1.741,1.7252,1.6981,1.6349,1.5603,1.4718,1.4255,1.4376,1.514,1.5359,1.5799,1.6463,1.6932,1.6753,1.5934,1.6114,1.6219,1.6219,1.5919,1.5799,0.983,0.9967,1.0059,1.0046,1.0084,1.0198,1.0422,1.0347,1.0298,1.0522,1.0399,1.0288,1.0482,1.086,0.0,0.0,0.0,0.0,0.0,0.0,0.0,0.0,0.0,0.0,0.0,0.0,0.0,0.0,0.0,0.0,0.0,0.0,0.0,0.0,2.0848,2.0799,2.0799,2.0724,2.0947,2.1399,2.1458,2.1756,2.2244,2.2762,0.0,0.0,0.0,0.0,2.4605,2.4605,2.4993,2.5591,2.5506,2.4893,2.4042,2.4483,2.3987,2.3171,2.3772,2.3678,2.3313,2.3221,2.2477,2.1629,2.1538,2.1132,2.0699,2.0699,2.0699,2.0724,2.0799,2.0749,2.0724,2.0799,2.0749,2.0699,2.0699,2.0699,2.0699,2.0699,2.0294,1.9904,1.9826,1.9002,1.8336,1.8231,1.7721,1.735,1.7413,1.7651,1.7828,1.7888,1.8266,1.8289,1.7768,1.766,1.7026,1.5641,1.5004,1.4982,1.5682,1.6045,1.6331,1.6562,1.713,1.713,1.6562,1.6562,1.6562,1.6547,1.6039,1.5858,1.0349,1.0693,1.0741,1.0681,1.0717,1.0777,1.0813,1.0801,1.0801,1.0897,1.0849,1.1102,1.2196,1.2031,1.2292,0.0,0.0,0.0,0.0,0.0,0.0,0.0,0.0,0.0,0.0,0.0,0.0,0.0,0.0,0.0,0.0,0.0,0.0,0.0,0.0,2.1302,2.1302,2.0898,2.0947,2.1385,2.1789,2.2282,2.2785,2.3268,2.3486,0.0,0.0,0.0,2.4605,2.4605,2.4993,2.5568,2.5149,2.4599,2.3974,2.3594,2.3057,2.2597,2.3158,2.36,2.389,2.338,2.2752,2.2178,2.1668,2.1132,2.0699,2.0699,2.0699,2.0799,2.118,2.0997,2.0799,2.1204,2.0997,2.0699,2.0699,2.0699,2.0699,2.0699,2.0633,2.0399,1.9891,1.9656,1.9368,1.8858,1.831,1.8074,1.8419,1.8078,1.7948,1.8344,1.8461,1.8472,1.8373,1.7881,1.7606,1.7641,1.682,1.6281,1.6207,1.5994,1.589,1.5934,1.6039,1.6039,1.5934,1.5934,1.5934,1.5934,1.5844,1.6069,1.006,1.0495,1.086,1.1204,1.1636,1.192,1.1706,1.1853,1.208,1.2259,1.2157,1.221,0.0,0.0,1.3502,1.5049,0.0,0.0,0.0,0.0,0.0,0.0,0.0,0.0,0.0,0.0,0.0,0.0,0.0,0.0,0.0,0.0,0.0,0.0,0.0,0.0,2.1779,2.1551,2.1434,2.1399,2.1612,2.2156,2.2912,2.3135,2.3355,0.0,0.0,2.3774,2.4073,2.4073,2.4097,2.4114,2.3906,2.3525,2.3087,2.3178,2.3251,2.3341,2.3616,2.3861,2.4044,2.377,2.3287,2.2765,2.249,2.2034,2.1538,2.1223,2.0923,2.0799,2.1277,2.1033,2.0823,2.1302,2.1033,2.0699,2.0699,2.0699,2.0699,2.0699,2.0699,2.0695,2.0662,2.039,2.0187,2.0189,1.9724,1.9406,1.9592,1.9285,1.9126,1.9342,1.9218,1.9147,1.9147,1.8903,1.84,1.765,1.7381,1.719,1.7072,1.6919,1.6832,1.6832,1.6832,1.6832,1.6832,1.6832,1.6832,1.6832,1.6832,1.6981,1.0086,1.0451,1.0931,1.1755,1.2301,1.2596,1.2451,1.2706,1.3058,1.343,1.3326,0.0,0.0,1.417,0.0,0.0,0.0,0.0,0.0,0.0,0.0,0.0,0.0,0.0,0.0,0.0,0.0,0.0,0.0,0.0,0.0,0.0,0.0,0.0,0.0,0.0,2.2105,2.2221,2.2119,2.1746,2.1746,2.2226,2.3068,2.3068,2.3268,2.3595,2.3595,2.353,2.3443,2.3551,2.3246,2.2694,2.2694,2.2534,2.2387,2.2969,2.3561,2.4083,2.4083,2.4083,2.4083,2.4083,2.3678,2.3182,2.3182,2.2818,2.2296,2.1838,2.1328,2.097,2.1304,2.1131,2.0983,2.1458,2.1288,2.1008,2.0898,2.0934,2.1008,2.0898,2.0959,2.1142,2.1506,2.1182,2.1015,2.1426,2.0994,2.0642,2.0727,2.0512,2.0318,2.025,2.0061,1.9872,1.9708,1.9708,1.9152,1.7868,1.788,1.7938,1.7938,1.7772,1.7713,1.7713,1.7713,1.7713,1.7713,1.7713,1.7713,1.7713,1.7713,1.7772,1.1165,1.1225,1.1096,1.24,1.2291,1.2034,1.2634,1.2784,1.2996,1.3637,1.3759,1.3938,0.0,1.6174,0.0,0.0,0.0,0.0,0.0,0.0,0.0,0.0,0.0,0.0,0.0,0.0,0.0,0.0,0.0,0.0,0.0,0.0,0.0,0.0,0.0,0.0,2.2105,2.2581,2.2822,2.2799,2.2799,2.3068,2.3551,2.3551,2.3573,2.3595,2.3595,2.3355,2.2979,2.3421,2.3031,2.2151,2.2151,2.2262,2.2455,2.2988,2.3561,2.4083,2.4083,2.4083,2.4083,2.4083,2.3678,2.3182,2.3182,2.2818,2.2375,2.2336,2.189,2.1432,2.1412,2.1375,2.1458,2.1955,2.2011,2.1884,2.1434,2.1684,2.186,2.1434,2.1708,2.2011,2.2035,2.1993,2.1988,2.2035,2.1583,2.138,2.1744,2.1343,2.0934,2.0672,2.0639,2.0378,1.9753,1.9708,1.9645,1.9522,1.8954,1.8627,1.8627,1.8027,1.7713,1.7713,1.7713,1.7713,1.7713,1.7713,1.7713,1.7713,1.7713,1.8027,1.0887,1.1157,1.132,1.2155,1.2516,1.2799,1.332,1.3735,1.4333,1.5382,1.5292,1.5125,0.0,0.0,0.0,0.0,0.0,0.0,0.0,0.0,0.0,0.0,0.0,0.0,0.0,0.0,0.0,0.0,0.0,0.0,0.0,0.0,0.0,0.0,0.0,0.0,0.0,2.3231,2.3334,2.3334,2.2694,2.2672,2.3157,2.3157,2.3312,2.3595,2.3595,2.3486,2.3334,2.3224,2.2725,2.2077,2.1828,2.1994,2.2452,2.3014,2.3561,2.4083,2.4083,2.4332,2.4677,2.4677,2.4517,2.4329,2.4329,2.3929,2.3386,2.2964,2.2671,2.248,2.241,2.19,2.1602,2.2397,2.2337,2.2035,2.186,2.1964,2.2035,2.186,2.1978,2.2198,2.2535,2.2603,2.2694,2.2987,2.2871,2.2775,2.2942,2.2437,2.206,2.1949,2.1201,2.0598,2.0348,1.9929,1.9708,1.9708,1.9468,1.9316,1.9316,1.9076,1.8942,1.8942,1.8942,1.8942,1.8942,1.8942,1.8942,1.8942,1.8942,1.9076,1.0678,1.0964,1.1353,1.222,1.2757,1.3287,1.4063,1.4382,1.4944,1.6533,1.6443,1.6144,1.6368,0.0,0.0,0.0,0.0,0.0,0.0,0.0,0.0,0.0,0.0,0.0,0.0,0.0,0.0,0.0,0.0,0.0,0.0,0.0,0.0,0.0,0.0,0.0,0.0,2.353,2.353,2.3377,2.2815,2.2785,2.3113,2.3113,2.329,2.3595,2.3595,2.3508,2.3377,2.3201,2.2717,2.2053,2.1634,2.1956,2.271,2.3054,2.3814,2.4635,2.4635,2.4907,2.5244,2.5244,2.5244,2.5231,2.5011,2.4552,2.4013,2.3498,2.3103,2.291,2.3182,2.2572,2.2039,2.2731,2.274,2.2543,2.2383,2.2475,2.2543,2.2383,2.2475,2.268,2.3068,2.3113,2.3224,2.3551,2.3595,2.3595,2.3595,2.3236,2.2912,2.2718,2.168,2.0946,2.076,2.031,1.9987,1.9812,1.978,1.978,1.9726,1.9708,1.9708,1.9726,1.9708,1.9708,1.9708,1.9708,1.9708,1.9708,1.9708,1.9708,1.0807,1.0807,1.1207,1.2805,1.3008,1.3229,1.4839,1.4478,1.4457,1.672,1.694,1.692,1.7594,0.0,0.0,0.0,0.0,0.0,0.0,0.0,0.0,0.0,0.0,0.0,0.0,0.0,0.0,0.0,0.0,0.0,0.0,0.0,0.0,0.0,0.0,0.0,0.0,2.3377,2.3377,2.2912,2.3377,2.3595,2.3595,2.3595,2.3595,2.3595,2.3595,2.3334,2.2934,2.3399,2.2995,2.2058,2.1589,2.214,2.3211,2.3211,2.4308,2.5783,2.5783,2.5783,2.581,2.581,2.581,2.5698,2.508,2.4527,2.4082,2.3949,2.3135,2.2542,2.3531,2.336,2.2912,2.2912,2.3268,2.3465,2.3001,2.3268,2.3465,2.3001,2.329,2.3595,2.3595,2.3595,2.3595,2.3595,2.3595,2.3595,2.3595,2.3595,2.337,2.2763,2.2119,2.1479,2.0865,2.0824,2.0575,2.0033,2.0021,1.9952,1.9797,1.9744,1.9726,1.9797,1.9744,1.9708,1.9708,1.9708,1.9708,1.9708,1.9708,1.9708,1.119,1.1636,1.2323,1.3424,1.4015,1.466,1.5778,1.5236,1.4959,1.6518,1.7507,1.8027,1.7758,0.0,0.0,0.0,0.0,0.0,0.0,0.0,0.0,0.0,0.0,0.0,0.0,0.0,0.0,0.0,0.0,0.0,0.0,0.0,0.0,0.0,0.0,0.0,0.0,0.0,2.353,2.3399,2.353,2.3595,2.3595,2.3595,2.3595,2.3595,2.3595,2.3508,2.3377,2.3201,2.2717,2.2081,2.1955,2.2658,2.3768,2.3768,2.4626,2.5783,2.5783,2.6095,2.6431,2.6431,2.6431,2.6301,2.5655,2.5093,2.4556,2.3995,2.3592,2.3407,2.3613,2.3526,2.3399,2.3399,2.3486,2.3551,2.3421,2.3508,2.3551,2.3421,2.3508,2.3595,2.3595,2.3595,2.3595,2.3595,2.3595,2.3595,2.3595,2.3595,2.3535,2.334,2.2778,2.2354,2.2209,2.1773,2.1269,2.0749,2.0704,2.0473,1.9952,1.9919,1.9884,1.9797,1.9866,1.9848,1.9708,1.9744,1.9762,1.9762,1.9726,1.9871,1.1341,1.1775,1.2479,1.3974,1.4562,1.511,1.6223,1.626,0.0,0.0,1.7937,1.8508,1.8495,0.0,0.0,0.0,0.0,0.0,0.0,0.0,0.0,0.0,0.0,0.0,0.0,0.0,0.0,0.0,0.0,0.0,0.0,0.0,0.0,0.0,0.0,0.0,0.0,0.0,0.0,2.3595,2.3595,2.3595,2.3595,2.3595,2.3595,2.3595,2.3595,2.3595,2.3573,2.329,2.2875,2.242,2.242,2.3032,2.3981,2.4252,2.5091,2.615,2.6421,2.6733,2.7074,2.7074,2.7074,2.6872,2.5947,2.5296,2.4751,2.3941,2.3577,2.3466,2.3569,2.3804,2.3939,2.367,2.3595,2.3595,2.3595,2.3595,2.3595,2.3595,2.3595,2.3616,2.3674,2.3674,2.3674,2.3674,2.3674,2.3696,2.3739,2.3717,2.3696,2.3739,2.3344,2.3005,2.2919,2.2521,2.2046,2.1545,2.1518,2.1335,2.0938,2.0332,1.9973,1.9922,1.9973,1.9937,1.9815,1.9995,2.0083,2.0083,2.0156,2.0345,1.1259,1.1447,1.2018,1.4426,1.4899,1.5118,1.6387,1.7337,1.7994,1.8114,0.0,1.862,0.0,0.0,0.0,0.0,0.0,0.0,0.0,0.0,0.0,0.0,0.0,0.0,0.0,0.0,0.0,0.0,0.0,0.0,0.0,0.0,0.0,0.0,0.0,0.0,0.0,0.0,0.0,0.0,2.3595,2.3595,2.3595,2.3595,2.3595,2.3595,2.3595,2.3595,2.3595,2.3595,2.3355,2.2957,2.2957,2.3373,2.4052,2.4723,2.5658,2.6692,2.736,2.76,2.76,2.76,2.76,2.7345,2.6019,2.5292,2.4774,2.3874,2.329,2.3068,2.3486,2.4036,2.4365,2.3856,2.3684,2.367,2.361,2.3595,2.3595,2.3595,2.3595,2.3674,2.3782,2.3818,2.3818,2.3818,2.3818,2.3861,2.3982,2.3882,2.3861,2.3982,2.3782,2.3504,2.3224,2.3138,2.2899,2.2424,2.2397,2.2347,2.2305,2.0953,2.0243,2.0299,2.0243,2.0205,2.0172,2.0495,2.0668,2.0719,2.1003,2.115,1.0998,1.1376,1.2225,1.4698,1.6094,1.6927,1.7248,1.7449,1.762,1.7715,1.8606,0.0,0.0,0.0,0.0,0.0,0.0,0.0,0.0,0.0,0.0,0.0,0.0,0.0,0.0,0.0,0.0,0.0,0.0,0.0,0.0,0.0,0.0,0.0,0.0,0.0,2.3595,2.3595,2.3595,0.0,2.3595,2.3595,2.3595,2.3595,2.3595,2.3595,2.3595,2.3595,2.3595,2.3595,2.353,2.3443,2.3443,2.3859,2.4543,2.5197,2.5923,2.6692,2.736,2.76,2.76,2.76,2.76,2.7345,2.6019,2.5544,2.5191,2.3962,2.353,2.3465,2.3573,2.3714,2.3931,2.4431,2.4455,2.4231,2.3714,2.3595,2.3595,2.3595,2.3674,2.376,2.3797,2.3882,2.3961,2.3961,2.3961,2.3982,2.4003,2.3982,2.3982,2.4003,2.3961,2.3921,2.3952,2.3952,2.3703,2.3117,2.3086,2.284,2.2317,2.199,2.1796,2.1739,2.1796,2.1739,2.1569,2.1758,2.2003,2.2299,2.2283,2.2603,1.1301,1.171,1.2463,1.4818,1.6219,1.7103,1.7469,1.7547,1.7548,1.759,0.0,0.0,0.0,0.0,0.0,0.0,0.0,0.0,0.0,0.0,0.0,0.0,0.0,0.0,0.0,0.0,0.0,0.0,0.0,0.0,0.0,0.0,0.0,0.0,0.0,0.0,2.3595,2.3595,2.3595,2.3595,2.3595,2.3595,2.3595,2.3595,2.3595,2.3595,2.3595,2.3595,2.3595,2.3595,2.3595,2.3595,2.3595,2.3819,2.4231,2.5217,2.563,2.5839,2.7151,2.739,2.718,2.7495,2.739,2.6941,2.5914,2.5367,2.4926,2.3959,2.3696,2.3696,2.3696,2.398,2.4279,2.4316,2.4265,2.4221,2.4264,2.4008,2.3797,2.3797,2.3861,2.3903,2.3982,2.4046,2.4124,2.4151,2.4109,2.4124,2.4151,2.4109,2.4124,2.4151,2.4067,2.4067,2.4234,2.4208,2.4076,2.381,2.3779,2.3625,2.3271,2.3255,2.2943,2.2259,2.2282,2.2248,2.2133,2.2362,2.2682,2.3099,2.3173,2.3552,1.1213,1.1821,1.2631,1.4706,1.5867,0.0,1.7271,1.7528,1.7624,0.0,0.0,0.0,0.0,0.0,0.0,0.0,0.0,0.0,0.0,0.0,0.0,0.0,0.0,0.0,0.0,0.0,0.0,0.0,0.0,0.0,0.0,0.0,0.0,0.0,0.0,2.2942,2.343,2.355,2.3595,2.3595,2.3595,2.3595,2.3595,2.3595,2.3595,2.3595,2.3595,2.3595,2.3595,2.3595,2.3595,2.3595,2.3595,2.3595,2.3744,2.4986,2.5143,2.5023,2.6821,2.7151,2.6866,2.742,2.7151,2.6467,2.5809,2.5151,2.4515,2.3956,2.3818,2.3839,2.3839,2.4334,2.4696,2.4154,2.3951,2.4033,2.4696,2.4489,2.414,2.4019,2.4024,2.4067,2.4187,2.4208,2.425,2.4297,2.4255,2.425,2.4281,2.4234,2.425,2.4281,2.4151,2.413,2.4297,2.4234,2.425,2.4297,2.4364,2.4385,2.4302,2.4364,2.3864,2.2771,2.274,2.2778,2.2838,2.3119,2.3469,2.3874,2.4148,2.4463,0.9261,1.0774,1.2612,1.4072,1.5533,1.6601,0.0,0.0,1.7687,0.0,0.0,0.0,0.0,0.0,0.0,0.0,0.0,0.0,0.0,0.0,0.0,0.0,0.0,0.0,0.0,0.0,0.0,0.0,0.0,0.0,0.0,0.0,2.1051,2.1799,2.2403,0.0,2.2823,2.3325,2.3595,2.3595,2.3595,2.3595,2.3595,2.3595,2.3595,2.3595,2.3595,2.3595,2.3595,2.3595,2.3595,2.3595,2.3595,2.3595,2.3684,2.4455,2.5038,2.56,2.6437,2.7061,2.748,2.757,2.7151,2.6467,2.5809,2.5197,2.4641,2.3978,2.3882,2.3982,2.3982,2.4043,2.4283,2.4872,2.4573,2.4139,2.4146,2.452,2.4702,2.411,2.4103,2.4208,2.4276,2.4297,2.4297,2.4302,2.4297,2.4297,2.4302,2.4297,2.4297,2.4302,2.4281,2.4261,2.4302,2.4297,2.4297,2.4302,2.4619,2.4659,2.4302,2.4619,2.4745,2.4556,2.4556,2.4715,2.5078,2.5134,2.5356,2.5735,2.5788,2.6014,1.0568,1.1545,1.2644,0.0,1.4929,1.559,1.6237,0.0,0.0,0.0,0.0,0.0,0.0,0.0,0.0,0.0,0.0,0.0,0.0,0.0,0.0,0.0,0.0,0.0,0.0,0.0,0.0,0.0,0.0,0.0,0.0,2.0139,2.0453,2.1126,2.1425,0.0,2.2688,2.2957,2.3293,2.3717,2.3717,2.3739,2.3818,2.3818,2.3739,2.3595,2.3595,2.3595,2.3595,2.3595,2.3595,2.3595,2.3595,2.3653,2.3793,2.4455,2.4717,2.4904,2.6337,2.676,2.6744,2.7063,2.6708,2.6023,2.5363,2.4709,2.421,2.4058,2.4082,2.4194,2.456,2.442,2.434,2.5044,2.501,2.4802,2.4744,2.4661,2.4524,2.4218,2.4213,2.4255,2.4281,2.4302,2.4302,2.4302,2.4302,2.4302,2.4302,2.4302,2.4302,2.4302,2.4492,2.4655,2.4655,2.4655,2.4655,2.4655,2.4799,2.4803,2.4639,2.502,2.5332,2.5577,2.5137,2.5102,2.5503,2.5503,2.5707,2.6104,2.6104,2.6332,1.1528,1.1827,1.2057,1.3785,1.4278,1.4603,0.0,0.0,0.0,0.0,0.0,0.0,0.0,0.0,0.0,0.0,0.0,0.0,0.0,0.0,0.0,0.0,0.0,0.0,0.0,0.0,0.0,0.0,0.0,0.0,1.9708,1.9726,1.9951,2.0456,2.0655,2.1338,2.2515,2.2861,2.3288,2.3797,2.3839,2.3903,2.4003,2.4003,2.3882,2.3696,2.3674,2.3674,2.3696,2.3674,2.3674,2.3696,2.3696,2.376,2.3921,2.4413,2.4569,2.4733,2.6229,2.6638,2.6547,2.6777,2.6382,2.5696,2.504,2.4383,2.3903,2.4124,2.433,2.4597,2.5102,2.5023,2.4943,2.54,2.5529,2.558,2.558,2.5041,2.4564,2.4564,2.4425,2.4302,2.4302,2.4302,2.4302,2.4302,2.4302,2.4302,2.4302,2.4302,2.4302,2.4302,2.4659,2.4902,2.4902,2.5001,2.5044,2.5044,2.5141,2.516,2.5059,2.5446,2.5799,2.6087,2.5521,2.5408,2.5799,2.5799,2.5962,2.6245,2.6245,2.6402,1.0572,1.0517,0.0,1.2839,1.3709,1.3998,0.0,0.0,0.0,0.0,0.0,0.0,0.0,0.0,0.0,0.0,0.0,0.0,0.0,0.0,0.0,0.0,0.0,0.0,0.0,0.0,0.0,0.0,0.0,0.0,1.9708,1.9762,1.9812,1.9858,2.0585,2.1307,2.202,2.3299,2.3894,2.3797,2.394,2.3982,2.4003,2.4003,2.3982,2.3982,2.3839,2.3861,2.3982,2.3839,2.3861,2.3982,2.3982,2.3982,2.3982,2.4028,2.4839,2.5902,2.6024,2.6851,2.7807,2.7191,2.6453,2.5704,2.5137,2.4513,2.4024,2.4145,2.4694,2.525,2.5281,2.5795,2.6287,2.6318,2.6334,2.6334,2.6334,2.578,2.525,2.525,2.4727,2.4302,2.4302,2.4302,2.4302,2.4302,2.4302,2.4302,2.4302,2.4302,2.4302,2.4302,2.4659,2.4902,2.4902,2.5237,2.5465,2.5465,2.5835,2.5872,2.5484,2.5854,2.607,2.6104,2.6052,2.6228,2.6641,2.6641,2.6657,2.6674,2.6674,2.6674,1.0176,0.0,0.0,1.2475,1.338,1.4012,0.0,0.0,0.0,0.0,0.0,0.0,0.0,0.0,0.0,0.0,0.0,0.0,0.0,0.0,0.0,0.0,0.0,0.0,0.0,0.0,0.0,0.0,0.0,0.0,1.9884,1.983,1.9848,1.9919,2.0215,2.1017,2.2372,2.3035,2.3707,2.4451,2.4234,2.4166,2.4177,2.4177,2.4177,2.4193,2.4103,2.4024,2.4003,2.3961,2.3961,2.4003,2.4003,2.4046,2.417,2.4612,2.5098,2.5678,2.6589,2.7217,2.75,2.6718,2.6291,2.5857,2.4804,2.4307,2.4237,2.4771,2.509,2.5496,2.6411,2.6518,2.638,2.6349,2.6703,2.7026,2.7026,2.6826,2.6518,2.6087,2.581,2.5626,2.5588,2.5626,2.5641,2.5641,2.5641,2.5641,2.5641,2.5641,2.5756,2.6052,2.6447,2.6598,2.6385,2.6503,2.6399,2.5923,2.6016,2.605,2.589,2.6263,2.6487,2.6487,2.6487,2.6573,2.6691,2.6691,2.6691,2.6691,2.6691,2.6691,1.0001,0.0,0.0,0.0,0.0,1.3206,0.0,0.0,0.0,0.0,0.0,0.0,0.0,0.0,0.0,0.0,0.0,0.0,0.0,0.0,0.0,0.0,0.0,0.0,0.0,0.0,0.0,0.0,0.0,0.0,2.0005,1.9937,1.9957,2.0111,2.0325,2.1024,2.2254,2.2805,2.3537,2.441,2.4292,2.4271,2.4302,2.4302,2.4302,2.4302,2.4255,2.4172,2.4109,2.4067,2.4067,2.4109,2.4109,2.4151,2.429,2.4719,2.5222,2.581,2.6718,2.7349,2.7557,2.6581,2.6229,2.5946,2.4627,2.4376,2.4637,2.5152,2.5635,2.6226,2.7149,2.7226,2.7057,2.7019,2.7396,2.7734,2.7734,2.7565,2.7257,2.6811,2.6534,2.6349,2.6311,2.6364,2.638,2.6364,2.638,2.6402,2.6402,2.6402,2.6588,2.7063,2.7462,2.7675,2.7609,2.7725,2.7599,2.71,2.7067,2.695,2.6682,2.6926,2.6945,2.6691,2.6691,2.6691,2.6691,2.6691,2.6691,2.6691,2.6691,2.6691,0.0,0.0,0.0,0.0,0.0,0.0,0.0,0.0,0.0,0.0,0.0,0.0,0.0,0.0,0.0,0.0,0.0,0.0,0.0,0.0,0.0,0.0,0.0,0.0,0.0,0.0,0.0,0.0,0.0,1.999,2.0005,2.0063,2.0168,2.0304,2.0919,2.1383,2.1616,2.2697,2.3378,2.3627,2.407,2.4287,2.4302,2.4302,2.4302,2.4302,2.4302,2.4302,2.4281,2.4229,2.425,2.4302,2.4302,2.4302,2.4317,2.4364,2.5226,2.6402,2.6373,2.7249,2.8181,2.6826,2.6312,2.5969,2.4706,2.4746,2.5218,2.5321,2.6349,2.7396,2.7411,2.7919,2.8411,2.8411,2.8411,2.8411,2.8411,2.7888,2.7426,2.7426,2.6857,2.6357,2.6357,2.6426,2.6441,2.6373,2.6426,2.6441,2.6441,2.6464,2.6672,2.7126,2.7547,2.7956,2.8412,2.8807,2.9027,2.8993,2.8993,2.8654,2.7874,2.7841,2.7486,2.6742,2.6725,2.6708,2.6691,2.6691,2.6691,2.6691,2.6691,2.6691,1.0104,0.0,0.0,0.0,0.0,0.0,0.0,0.0,0.0,0.0,0.0,0.0,0.0,0.0,0.0,0.0,0.0,0.0,0.0,0.0,0.0,0.0,0.0,0.0,0.0,0.0,0.0,0.0,0.0,2.0115,2.02,2.0235,2.027,2.0304,2.0489,2.1094,2.2163,2.1952,2.2655,2.4175,2.3768,2.3825,2.4302,2.4302,2.4302,2.4302,2.4302,2.4302,2.4302,2.4276,2.4281,2.4302,2.4302,2.4302,2.4425,2.5441,2.6057,2.6556,2.7503,2.8073,2.8181,2.6826,2.6342,2.6135,2.5281,2.5136,2.549,2.6534,2.7103,2.7503,2.7996,2.8273,2.8411,2.8411,2.8411,2.8411,2.8411,2.8258,2.8119,2.8119,2.7965,2.7803,2.7803,2.7842,2.7842,2.7803,2.7842,2.7857,2.7857,2.814,2.8544,2.8994,2.9466,2.9702,2.9631,2.973,2.9567,2.9027,2.8993,2.8908,2.867,2.8671,2.8298,2.7503,2.7503,2.7232,2.6691,2.6691,2.6691,2.6691,2.6691,2.6691,1.0639,0.0,0.0,0.0,0.0,0.0,0.0,0.0,0.0,0.0,0.0,0.0,0.0,0.0,0.0,0.0,0.0,0.0,0.0,0.0,0.0,0.0,0.0,0.0,0.0,0.0,0.0,0.0,2.022,2.022,2.0304,2.0304,2.0304,2.0304,2.0304,2.0749,2.1729,2.1436,2.1983,2.3311,2.33,2.3502,2.3887,2.4179,2.4302,2.4302,2.4302,2.4302,2.4302,2.4302,2.4302,2.4302,2.4302,2.4302,2.441,2.5226,2.5887,2.6503,2.7288,2.775,2.7811,2.6734,2.6164,2.5804,2.5419,2.5496,2.5995,2.7088,2.7596,2.7919,2.8304,2.8411,2.8411,2.8411,2.8411,2.8411,2.8411,2.8411,2.8411,2.8411,2.8411,2.8411,2.8411,2.8411,2.8411,2.8411,2.8573,2.87,2.87,2.909,2.9572,3.0032,3.033,3.0533,3.056,3.0565,3.0378,2.9941,2.9924,2.9788,2.9465,2.9448,2.9093,2.8332,2.7976,2.7435,2.6691,2.6691,2.6691,2.6691,2.6691,2.6691,1.1417,1.1791,0.0,0.0,0.0,0.0,1.2291,1.1812,0.0,0.0,0.0,0.0,0.0,0.0,0.0,0.0,0.0,0.0,0.0,0.0,0.0,0.0,0.0,0.0,0.0,0.0,0.0,2.0287,2.0304,2.0304,2.0304,2.0304,2.0304,2.0304,2.0304,2.046,2.0794,2.1049,2.139,2.1818,2.2735,2.3225,2.3317,2.3994,2.4302,2.4302,2.4302,2.4302,2.4302,2.4302,2.4302,2.4302,2.4302,2.4302,2.4317,2.4374,2.5256,2.6418,2.6495,2.6888,2.7288,2.6633,2.5903,2.5312,2.5389,2.5872,2.6572,2.7288,2.7934,2.8411,2.8411,2.8411,2.8411,2.8411,2.8411,2.8411,2.8411,2.8411,2.8411,2.8411,2.8411,2.842,2.8468,2.8468,2.8468,2.8468,2.8873,2.9143,2.9097,2.955,3.0032,3.0456,3.0539,3.074,3.1171,3.119,3.119,3.119,3.119,3.0903,3.026,3.0207,2.9871,2.9145,2.8264,2.7486,2.6826,2.6759,2.6691,2.6691,2.6725,2.6725,1.2056,1.2497,1.2797,0.0,0.0,0.0,0.0,1.198,0.0,0.0,0.0,0.0,0.0,0.0,0.0,0.0,0.0,0.0,0.0,0.0,0.0,0.0,0.0,0.0,0.0,0.0,1.9718,2.0273,2.0304,2.0304,2.0304,2.0304,2.0304,2.0304,2.0304,2.046,2.0794,2.06,2.0924,2.1802,2.2273,2.2778,2.3317,2.3994,2.4302,2.4302,2.4302,2.4302,2.4302,2.4302,2.4302,2.4302,2.4302,2.4302,2.4379,2.4918,2.5656,2.6495,2.7011,2.7288,2.7288,2.6633,2.5903,2.5389,2.5942,2.6257,2.6641,2.7857,2.8304,2.8411,2.8411,2.8411,2.8411,2.8411,2.8411,2.8411,2.8411,2.8411,2.8411,2.8411,2.8411,2.8517,2.8897,2.8951,2.8951,2.8951,2.9348,2.9528,2.9143,2.9843,3.0393,3.0497,3.0838,3.1095,3.119,3.119,3.119,3.119,3.119,3.114,3.0987,3.0987,3.0632,2.9905,2.8517,2.7774,2.7725,2.7046,2.6691,2.6691,2.6809,2.6859,1.2923,1.3051,1.3251,1.3294,0.0,0.0,0.0,0.0,0.0,0.0,0.0,0.0,0.0,0.0,0.0,0.0,0.0,0.0,0.0,0.0,0.0,0.0,0.0,0.0,0.0,0.0,1.958,2.0258,2.0304,2.0304,2.0304,2.0304,2.0304,2.0304,2.0304,2.039,2.0544,2.039,2.056,2.1058,2.1886,2.249,2.284,2.384,2.4302,2.4302,2.4302,2.4302,2.4302,2.4302,2.4302,2.4302,2.4302,2.4302,2.4348,2.4687,2.5472,2.6349,2.6349,2.6595,2.678,2.6087,2.5379,2.4989,2.6004,2.6803,2.7534,2.8211,2.8411,2.8411,2.8411,2.8411,2.8411,2.8411,2.8411,2.8411,2.8411,2.8411,2.8468,2.87,2.8748,2.8826,2.9067,2.9097,2.9166,2.9416,2.9859,3.0059,2.9821,3.0414,3.0858,3.0858,3.1055,3.119,3.119,3.119,3.119,3.119,3.119,3.119,3.119,3.119,3.0852,3.0106,2.9367,2.8675,2.7998,2.7555,2.7165,2.6792,2.6859,2.6893,0.0,0.0,0.0,0.0,0.0,1.3413,0.0,0.0,0.0,0.0,0.0,0.0,0.0,0.0,0.0,0.0,0.0,0.0,0.0,0.0,0.0,0.0,0.0,0.0,0.0,0.0,1.9162,1.9856,1.9902,1.9948,2.0104,2.0227,2.0304,2.0304,2.0304,2.0304,2.0304,2.0304,2.0304,2.032,2.1535,2.2182,2.2351,2.3548,2.4179,2.4302,2.4302,2.4302,2.4302,2.4302,2.4302,2.4302,2.4302,2.4302,2.4317,2.4435,2.5173,2.6072,2.5744,2.5926,2.6205,2.5595,2.5089,2.4918,2.5988,2.728,2.8411,2.8411,2.8411,2.8411,2.8411,2.8411,2.8411,2.8411,2.8411,2.8411,2.8411,2.8411,2.8525,2.902,2.9097,2.9166,2.9348,2.9371,2.9506,2.9881,3.033,3.0601,3.0518,3.0918,3.119,3.119,3.119,3.119,3.119,3.119,3.121,3.123,3.123,3.123,3.1249,3.1249,3.0978,3.0366,3.0274,2.9649,2.8475,2.8322,2.7777,2.6926,2.6926,2.6926,0.0,0.0,0.0,0.0,1.4881,0.0,0.0,0.0,0.0,0.0,0.0,0.0,0.0,0.0,0.0,0.0,0.0,0.0,0.0,0.0,0.0,0.0,0.0,0.0,0.0,0.0,0.0,1.8391,1.8437,1.8715,1.9379,1.998,2.0304,2.0304,2.0304,2.0304,2.0304,2.0304,2.0304,2.032,2.1057,2.172,2.2336,2.3071,2.3748,2.4302,2.4302,2.4302,2.4302,2.4302,2.4302,2.4302,2.4302,2.4302,2.4379,2.4979,2.5281,2.5546,2.6485,2.644,2.5952,2.5874,2.5981,2.618,2.6334,2.7334,2.8411,2.8411,2.8411,2.8411,2.8411,2.8411,2.8411,2.8411,2.8411,2.8411,2.8411,2.8411,2.8525,2.902,2.9097,2.9355,3.0187,3.0335,3.0356,3.0414,3.0818,3.0975,3.0559,3.0918,3.119,3.119,3.119,3.119,3.119,3.119,3.123,3.1276,3.1276,3.1332,3.146,3.146,3.1426,3.134,3.0713,3.0324,3.0207,2.9503,2.8408,2.6975,2.6975,2.7024,0.0,0.0,0.0,0.0,0.0,0.0,0.0,0.0,1.3282,0.0,0.0,0.0,0.0,0.0,0.0,0.0,0.0,0.0,0.0,0.0,0.0,0.0,0.0,0.0,0.0,0.0,0.0,0.0,0.0,1.8115,1.924,1.9564,1.9903,2.0289,2.0304,2.0304,2.0304,2.0304,2.0304,2.032,2.098,2.1658,2.2317,2.2994,2.3671,2.4302,2.4302,2.4302,2.4302,2.4302,2.4431,2.4639,2.4639,2.4513,2.4333,2.4625,2.4979,2.5324,2.5408,2.5655,2.5904,2.5904,2.6096,2.6426,2.6842,2.7642,2.8411,2.8411,2.8411,2.8411,2.8411,2.8411,2.8411,2.8411,2.8411,2.8411,2.8411,2.8605,2.8943,2.9432,2.9733,3.0123,3.0797,3.0679,3.058,3.0858,3.1075,3.1131,3.0918,3.1075,3.119,3.119,3.119,3.119,3.119,3.1232,3.1274,3.1295,3.137,3.1443,3.1498,3.1498,3.1498,3.1498,3.1232,3.0892,3.05,3.0156,2.9454,2.8441,2.7962,2.7773,1.6356,0.0,0.0,0.0,0.0,0.0,0.0,0.0,0.0,0.0,0.0,0.0,0.0,0.0,0.0,0.0,0.0,0.0,0.0,0.0,0.0,0.0,0.0,0.0,0.0,0.0,0.0,0.0,0.0,0.0,1.8916,1.9194,1.961,2.0289,2.0304,2.0304,2.0304,2.0304,2.0339,2.0441,2.0833,2.1528,2.2452,2.2852,2.3486,2.4302,2.4302,2.4302,2.4302,2.4302,2.4472,2.4739,2.4739,2.4574,2.4333,2.4627,2.4848,2.4995,2.4797,2.5123,2.5693,2.6005,2.6293,2.6665,2.7538,2.8248,2.8771,2.8771,2.8771,2.8748,2.8621,2.8597,2.8597,2.8597,2.8493,2.8444,2.8549,2.885,2.9234,2.9705,3.0182,3.0658,3.1131,3.0918,3.0818,3.1151,3.119,3.119,3.119,3.123,3.123,3.123,3.1269,3.1269,3.1269,3.1329,3.137,3.1372,3.1502,3.1593,3.1593,3.1593,3.1593,3.1593,3.1634,3.1396,3.0864,3.0865,3.0608,3.011,2.9093,2.8492,0.0,0.0,0.0,0.0,0.0,0.0,0.0,0.0,1.4232,0.0,0.0,0.0,0.0,0.0,0.0,0.0,0.0,0.0,0.0,0.0,0.0,0.0,0.0,0.0,0.0,0.0,0.0,0.0,0.0,0.0,1.813,1.8916,1.961,2.0289,2.0304,2.0304,2.0304,2.0304,2.046,2.0778,2.0474,2.1188,2.2773,2.2471,2.304,2.4302,2.4302,2.4302,2.4302,2.4302,2.4302,2.4323,2.4323,2.4302,2.4421,2.5472,2.5212,2.4488,2.5508,2.5447,2.5104,2.6208,2.6791,2.728,2.8409,2.9205,2.9766,2.9766,2.9766,2.9639,2.9205,2.909,2.909,2.909,2.8724,2.8525,2.8974,2.909,2.9234,2.9705,3.0182,3.0658,3.1131,3.119,3.119,3.119,3.119,3.119,3.119,3.1271,3.1295,3.1295,3.1406,3.1498,3.1498,3.1498,3.1519,3.1579,3.1709,3.18,3.18,3.18,3.18,3.18,3.18,3.1783,3.1765,3.1765,3.1748,3.1696,3.0108,2.9025,0.0,0.0,1.7557,1.657,0.0,0.0,0.0,0.0,0.0,0.0,0.0,0.0,0.0,0.0,0.0,0.0,0.0,0.0,0.0,0.0,0.0,0.0,0.0,0.0,0.0,0.0,0.0,0.0,0.0,0.0,0.0,1.8207,1.89,1.9626,2.0073,2.0407,2.0628,2.0628,2.0678,2.0794,2.0678,2.1295,2.2474,2.2343,2.3025,2.4302,2.4302,2.4302,2.4302,2.4302,2.4599,2.5079,2.4799,2.4863,2.5075,2.4905,2.4611,2.4436,2.5314,2.5632,2.585,2.7267,2.7944,2.8388,2.9205,2.9615,2.9793,2.9793,2.9793,2.975,2.9595,2.955,2.955,2.955,2.9454,2.9364,2.9528,2.9799,3.0081,3.0246,3.0638,3.1015,3.1171,3.1232,3.1274,3.1274,3.1274,3.131,3.1402,3.1349,3.1332,3.1406,3.1462,3.1498,3.1498,3.1538,3.1615,3.1727,3.1764,3.18,3.18,3.18,3.18,3.18,3.18,3.18,3.18,3.18,3.18,3.1783,3.1247,3.0334,1.78,1.78,0.0,0.0,1.6536,0.0,0.0,0.0,0.0,0.0,0.0,0.0,0.0,0.0,0.0,0.0,0.0,0.0,0.0,0.0,0.0,0.0,0.0,0.0,0.0,0.0,1.3131,1.4497,1.413,0.0,0.0,0.0,1.8545,1.9271,1.995,2.0392,2.0611,2.0745,2.0794,2.0794,2.0794,2.1384,2.2474,2.2362,2.3025,2.4302,2.4302,2.4385,2.4492,2.4364,2.4764,2.5465,2.5059,2.5141,2.5427,2.4759,2.4513,2.4645,2.5564,2.6028,2.6491,2.8191,2.8856,2.9202,3.0032,3.0305,3.0305,3.0305,3.0309,3.0293,3.0097,3.0075,3.0097,3.0054,2.9924,2.9853,3.0011,3.0288,3.0497,3.0497,3.0878,3.121,3.1232,3.131,3.1351,3.1315,3.1351,3.1406,3.1498,3.1445,3.1447,3.1538,3.1576,3.1612,3.1612,3.1651,3.1709,3.18,3.18,3.18,3.18,3.18,3.18,3.18,3.18,3.18,3.18,3.18,3.18,3.18,3.1929,3.1289]}]]